Date StartTime U_cm/s V_cm/s W_cm/s Ustd_cm/s Vstd_cm/s Wstd_cm/s Uvar_(cm/s)^2 Vvar_(cm/s)^2 Wvar_(cm/s)^2 KE_(m/s)^2 TurbulentKE_(m/s)^2 HorizWindSpeed_cm/s FrictionSpeec_cm/s DragCoef SpeedOfSound_m/s SonicTemperature_C Pressure_mb 
05/21/2013  00:00:00     -213.275      -90.850       -5.372      104.708       92.729       51.047    10963.861     8598.709     2605.838        3.796        1.108      231.818       51.419        0.049      342.595       18.112      860.149
05/21/2013  00:01:00     -257.213        7.227      -14.529      127.388      101.912       57.377    16227.710    10386.013     3292.108        4.816        1.495      257.314       54.278        0.044      342.610       18.136      860.132
05/21/2013  00:02:00     -263.661     -143.294       -7.055      113.626       93.152       61.783    12910.927     8677.359     3817.105        5.775        1.270      300.084       49.095        0.027      342.582       18.089      860.121
05/21/2013  00:03:00     -156.362      -45.069        4.865       93.216      100.566       52.145     8689.232    10113.593     2719.105        2.401        1.076      162.728       42.269        0.067      342.530       18.003      860.122
05/21/2013  00:04:00     -200.429     -125.732      -13.138      119.071      101.250       55.680    14178.018    10251.613     3100.219        4.184        1.376      236.602       63.102        0.071      342.591       18.105      860.115
05/21/2013  00:05:00     -297.269     -127.834      -10.530      165.686      120.406       69.328    27451.923    14497.570     4806.349        7.578        2.338      323.589       77.505        0.057      342.632       18.173      860.089
05/21/2013  00:06:00     -305.096      -96.098        4.617      169.469       83.497       61.979    28719.656     6971.792     3841.413        7.093        1.977      319.872       72.133        0.051      342.674       18.246      860.089
05/21/2013  00:07:00     -211.915     -157.610      -12.740      124.712       96.856       53.741    15553.102     9381.168     2888.074        4.886        1.391      264.100       60.004        0.052      342.678       18.251      860.094
05/21/2013  00:08:00     -362.500     -141.010      -21.275      147.274      114.976       74.611    21689.624    13219.464     5566.852        9.610        2.024      388.960       72.594        0.035      342.593       18.108      860.092
05/21/2013  00:09:00     -341.255      -27.110      -13.426      164.472      127.741       69.767    27050.973    16317.880     4867.483        8.279        2.412      342.330       76.582        0.050      342.569       18.066      860.091
05/21/2013  00:10:00     -192.892     -101.174        2.497      118.347       88.219       59.177    14006.115     7782.508     3501.898        3.636        1.265      217.815       56.947        0.068      342.576       18.079      860.087
05/21/2013  00:11:00     -276.684     -150.921      -25.323      169.924      134.297       81.722    28874.127    18035.720     6678.439        7.677        2.679      315.169       93.086        0.087      342.588       18.099      860.062
05/21/2013  00:12:00     -277.543     -120.767      -19.212      161.954       94.763       60.332    26229.171     8980.091     3639.946        6.541        1.942      302.679       56.908        0.035      342.601       18.122      860.076
05/21/2013  00:13:00     -296.818      -65.978      -21.216      138.748       87.835       62.613    19250.874     7714.912     3920.394        6.189        1.544      304.063       69.811        0.053      342.614       18.144      860.062
05/21/2013  00:14:00     -221.204     -113.402       -2.337      118.175      128.118       53.488    13965.304    16414.129     2860.920        4.751        1.662      248.579       61.430        0.061      342.601       18.124      860.043
05/21/2013  00:15:00      -91.214      -66.856        8.584      155.251       87.323       46.986    24102.887     7625.378     2207.719        2.339        1.697      113.092       57.474        0.258      342.571       18.073      860.003
05/21/2013  00:16:00     -261.928      -77.607        0.897      147.176      118.758       69.428    21660.887    14103.484     4820.224        5.760        2.029      273.183       67.153        0.060      342.517       17.979      859.988
05/21/2013  00:17:00     -253.872      -64.835       -7.337      154.696      112.407       56.188    23931.000    12635.430     3157.079        5.421        1.986      262.020       61.326        0.055      342.494       17.941      859.968
05/21/2013  00:18:00     -261.668     -118.115      -12.288      110.882       96.224       47.744    12294.767     9259.077     2279.470        5.320        1.192      287.091       50.118        0.030      342.482       17.919      859.962
05/21/2013  00:19:00     -148.480      -74.214        5.611      140.352       85.861       53.225    19698.756     7372.050     2832.888        2.874        1.495      165.994       51.225        0.095      342.431       17.833      859.944
05/21/2013  00:20:00     -254.369     -138.566      -12.698      135.859      113.013       48.864    18457.675    12772.017     2387.679        5.883        1.681      289.662       47.816        0.027      342.489       17.931      859.914
05/21/2013  00:21:00     -192.328     -114.750        6.400      133.946      127.712       60.929    17941.443    16310.428     3712.333        4.407        1.898      223.960       68.065        0.092      342.453       17.870      859.905
05/21/2013  00:22:00     -131.979      -77.352       13.558      149.878      109.961       70.665    22463.518    12091.341     4993.557        3.156        1.977      152.977       82.299        0.289      342.445       17.858      859.913
05/21/2013  00:23:00     -164.917     -163.265        0.218      117.684       88.875       60.248    13849.635     7898.818     3629.777        3.961        1.269      232.063       64.592        0.077      342.483       17.922      859.885
05/21/2013  00:24:00     -228.863      -85.807       -0.100      125.809       97.070       59.712    15827.963     9422.566     3565.575        4.427        1.441      244.420       61.741        0.064      342.435       17.840      859.890
05/21/2013  00:25:00     -308.975      -24.968      -17.906      132.806       86.644       66.197    17637.532     7507.100     4382.045        6.296        1.476      309.982       73.076        0.056      342.503       17.955      859.872
05/21/2013  00:26:00     -293.464     -109.757      -20.228      129.477      148.767       58.555    16764.188    22131.522     3428.641        7.044        2.116      313.317       64.194        0.042      342.484       17.920      859.857
05/21/2013  00:27:00     -224.571     -131.668      -13.741      119.189      108.073       59.594    14205.946    11679.738     3551.452        4.869        1.472      260.324       53.375        0.042      342.454       17.872      859.851
05/21/2013  00:28:00     -170.107      -97.278       -1.266      125.762      100.876       66.913    15816.124    10176.018     4477.352        3.443        1.523      195.958       63.945        0.106      342.453       17.872      859.847
05/21/2013  00:29:00     -168.192      -74.236       11.561      118.445       87.577       57.200    14029.159     7669.737     3271.805        2.945        1.249      183.847       60.027        0.107      342.383       17.752      859.849
05/21/2013  00:30:00     -144.875      -75.924       -1.050      129.208       86.093       58.998    16694.587     7412.034     3480.749        2.717        1.379      163.564       64.691        0.156      342.401       17.782      859.859
05/21/2013  00:31:00      -99.511     -122.830        7.040      103.648       70.570       51.139    10742.804     4980.104     2615.173        2.168        0.917      158.081       56.793        0.129      342.367       17.724      859.862
05/21/2013  00:32:00      -78.003      -64.646        9.215       98.383       82.858       52.338     9679.165     6865.486     2739.246        1.481        0.964      101.309       59.160        0.341      342.297       17.606      859.864
05/21/2013  00:33:00     -159.375      -42.678       -1.701       98.605       61.243       45.999     9723.038     3750.691     2115.883        2.140        0.779      164.991       51.581        0.098      342.269       17.559      859.853
05/21/2013  00:34:00     -169.691      -93.747       15.749      137.021      104.682       66.407    18774.794    10958.372     4409.902        3.598        1.707      193.865       71.231        0.135      342.308       17.624      859.819
05/21/2013  00:35:00     -192.419      -76.710       -9.481      104.769       93.137       53.261    10976.506     8674.477     2836.781        3.274        1.124      207.146       50.327        0.059      342.360       17.711      859.814
05/21/2013  00:36:00     -137.817      -36.106       -3.751       90.640       73.156       51.258     8215.602     5351.842     2627.351        1.825        0.810      142.468       52.948        0.138      342.311       17.630      859.806
05/21/2013  00:37:00     -264.672      -53.078      -10.994       99.457       74.872       45.792     9891.720     5605.840     2096.947        4.529        0.880      269.942       42.530        0.025      342.348       17.690      859.790
05/21/2013  00:38:00     -245.837      -18.642       -2.675      122.609      136.228       47.919    15032.996    18558.196     2296.273        4.833        1.794      246.543       48.824        0.039      342.305       17.619      859.779
05/21/2013  00:39:00     -125.096     -126.337       12.749       92.061       82.290       53.076     8475.191     6771.650     2817.016        2.491        0.903      177.792       45.575        0.066      342.295       17.603      859.779
05/21/2013  00:40:00     -183.678     -158.856       -0.763      126.804      117.733       59.102    16079.209    13861.109     3493.093        4.620        1.672      242.844       65.101        0.072      342.312       17.632      859.773
05/21/2013  00:41:00     -187.152     -131.241       -2.590      113.668      109.647       60.561    12920.339    12022.401     3667.686        4.043        1.431      228.583       50.857        0.050      342.290       17.593      859.756
05/21/2013  00:42:00     -191.693     -107.699       -7.246      133.034       94.418       38.766    17698.009     8914.700     1502.800        3.825        1.406      219.875       50.327        0.052      342.334       17.670      859.764
05/21/2013  00:43:00     -147.589     -121.357        5.862       85.048       80.420       52.965     7233.225     6467.443     2805.269        2.652        0.825      191.075       54.222        0.081      342.248       17.522      859.757
05/21/2013  00:44:00     -264.648     -171.882      -16.851      124.493       79.473       51.252    15498.550     6315.916     2626.779        6.215        1.222      315.567       59.271        0.035      342.350       17.696      859.750
05/21/2013  00:45:00     -226.997     -134.424        3.300      139.025       77.654       48.044    19327.918     6030.216     2308.266        4.863        1.383      263.813       56.229        0.045      342.306       17.621      859.741
05/21/2013  00:46:00     -219.584     -111.091       -8.929      121.584       69.401       49.927    14782.601     4816.536     2492.718        4.136        1.105      246.087       58.224        0.056      342.238       17.504      859.750
05/21/2013  00:47:00     -181.586     -128.460        6.840       91.982       96.451       47.916     8460.701     9302.802     2295.960        3.479        1.003      222.431       41.490        0.035      342.228       17.487      859.758
05/21/2013  00:48:00     -203.247     -156.762      -11.462       88.999       56.866       38.637     7920.892     3233.746     1492.830        3.933        0.632      256.678       29.494        0.013      342.268       17.555      859.736
05/21/2013  00:49:00     -142.458      -77.008       -6.615       68.826       45.192       34.627     4736.997     2042.351     1199.036        1.712        0.399      161.940       33.080        0.042      342.179       17.408      859.732
05/21/2013  00:50:00     -170.717     -120.635        0.911      108.407       94.053       41.043    11752.033     8845.916     1684.522        3.299        1.114      209.039       34.056        0.027      342.238       17.504      859.711
05/21/2013  00:51:00     -192.448     -133.466       -1.973       85.499       83.885       46.512     7310.028     7036.676     2163.334        3.568        0.826      234.199       43.443        0.034      342.255       17.532      859.725
05/21/2013  00:52:00     -232.263     -149.843       -1.480       86.525       88.608       49.921     7486.566     7851.392     2492.060        4.711        0.892      276.404       41.583        0.023      342.265       17.551      859.712
05/21/2013  00:53:00     -186.647      -97.884        2.981      119.526       75.252       55.971    14286.556     5662.924     3132.802        3.375        1.154      210.757       68.984        0.107      342.307       17.621      859.702
05/21/2013  00:54:00     -145.370      -36.729       -1.397       84.062       61.079       41.525     7066.478     3730.662     1724.365        1.750        0.626      149.938       37.123        0.061      342.333       17.668      859.682
05/21/2013  00:55:00     -169.661      -94.336       10.654       94.413       85.574       58.247     8913.899     7322.912     3392.723        2.871        0.981      194.124       56.484        0.085      342.362       17.715      859.655
05/21/2013  00:56:00     -161.978      -99.853       12.777       98.230       62.156       42.254     9649.130     3863.370     1785.399        2.583        0.765      190.283       34.308        0.033      342.371       17.731      859.646
05/21/2013  00:57:00     -143.569     -144.234        5.169      102.152       80.202       51.081    10434.943     6432.371     2609.303        3.046        0.974      203.508       56.812        0.078      342.309       17.627      859.636
05/21/2013  00:58:00     -188.982     -158.397        4.634      121.659      122.091       67.860    14800.865    14906.107     4604.920        4.756        1.716      246.584       69.201        0.079      342.389       17.760      859.634
05/21/2013  00:59:00     -219.881     -150.815       -8.034       91.750       67.795       40.962     8418.044     4596.185     1677.860        4.292        0.735      266.632       38.214        0.021      342.332       17.663      859.635
05/21/2013  01:00:00     -153.387     -109.560        7.793       94.078       67.470       38.573     8850.640     4552.201     1487.841        2.524        0.745      188.497       45.737        0.059      342.347       17.691      859.649
05/21/2013  01:01:00      -93.073     -186.537        2.817       74.584       97.474       48.354     5562.784     9501.107     2338.066        3.043        0.870      208.467       32.202        0.024      342.349       17.695      859.640
05/21/2013  01:02:00     -178.660     -163.551       -2.341      112.782      101.978       54.582    12719.828    10399.513     2979.239        4.238        1.305      242.215       50.128        0.043      342.366       17.721      859.636
05/21/2013  01:03:00     -173.682     -167.890       -5.279      101.419       86.320       54.939    10285.733     7451.058     3018.250        3.956        1.038      241.562       47.331        0.038      342.355       17.703      859.606
05/21/2013  01:04:00     -104.083      -79.919        5.465       60.370       71.591       37.749     3644.493     5125.316     1424.968        1.372        0.510      131.226       33.811        0.066      342.344       17.686      859.561
05/21/2013  01:05:00     -256.965     -122.074       -9.111      171.991      111.828       64.648    29581.020    12505.579     4179.302        6.363        2.313      284.487       76.916        0.073      342.425       17.823      859.535
05/21/2013  01:06:00     -256.366     -171.131       -4.583       92.341       84.389       49.686     8526.799     7121.583     2468.653        5.657        0.906      308.236       49.019        0.025      342.355       17.703      859.505
05/21/2013  01:07:00     -187.385     -114.324       10.564      153.807      104.106       66.656    23656.579    10838.067     4443.075        4.361        1.947      219.507       78.842        0.129      342.324       17.651      859.501
05/21/2013  01:08:00     -160.771     -104.619        2.811       98.638       83.538       49.681     9729.389     6978.681     2468.217        2.798        0.959      191.814       53.206        0.077      342.390       17.764      859.475
05/21/2013  01:09:00     -182.564     -134.823       11.036      118.914       97.351       52.952    14140.637     9477.173     2803.928        3.902        1.321      226.951       51.289        0.051      342.387       17.758      859.469
05/21/2013  01:10:00     -222.212     -158.713       10.981      132.387      105.427       59.299    17526.309    11114.838     3516.340        5.342        1.608      273.072       68.004        0.062      342.410       17.796      859.490
05/21/2013  01:11:00      -79.458     -194.103        7.436      112.485      102.404       48.448    12652.780    10486.642     2347.200        3.476        1.274      209.737       49.006        0.055      342.394       17.770      859.485
05/21/2013  01:12:00      -87.645     -159.950        0.280       66.805       83.368       42.196     4462.901     6950.281     1780.462        2.323        0.660      182.389       29.196        0.026      342.361       17.715      859.466
05/21/2013  01:13:00      -93.580      -78.875       17.496       80.484       65.050       38.645     6477.750     4231.474     1493.412        1.374        0.610      122.387       35.279        0.083      342.213       17.465      859.449
05/21/2013  01:14:00     -219.627     -200.062      -12.080      125.067       87.261       54.007    15641.742     7614.489     2916.750        5.728        1.309      297.087       50.847        0.029      342.358       17.709      859.439
05/21/2013  01:15:00     -181.477     -170.686        2.409      127.139       99.489       54.319    16164.243     9898.133     2950.546        4.554        1.451      249.134       63.292        0.065      342.406       17.790      859.413
05/21/2013  01:16:00     -247.564     -141.408        0.618      161.000      115.238       63.019    25920.853    13279.704     3971.448        6.222        2.159      285.104       71.516        0.063      342.465       17.890      859.429
05/21/2013  01:17:00     -199.984     -137.009       10.367      101.127      126.558       59.328    10226.731    16016.959     3519.763        4.431        1.488      242.415       50.506        0.043      342.443       17.854      859.372
05/21/2013  01:18:00     -225.676     -184.365       -8.387      138.233      102.180       73.514    19108.481    10440.680     5404.331        5.996        1.748      291.410       78.141        0.072      342.386       17.755      859.379
05/21/2013  01:19:00     -147.656     -148.274      -25.125       66.763       77.134       40.728     4457.274     5949.717     1658.745        2.824        0.603      209.255       29.356        0.020      342.437       17.844      859.359
05/21/2013  01:20:00     -185.294     -154.318       -6.040       92.057       75.618       45.475     8474.575     5718.103     2067.942        3.722        0.813      241.138       33.831        0.020      342.326       17.654      859.349
05/21/2013  01:21:00      -45.051      -69.987       24.624       82.634       58.062       37.819     6828.352     3371.180     1430.299        0.958        0.581       83.233       34.211        0.169      342.232       17.496      859.356
05/21/2013  01:22:00     -199.229     -178.170       11.936      137.725      110.258       56.015    18968.262    12156.806     3137.693        5.291        1.713      267.277       59.538        0.050      342.294       17.600      859.345
05/21/2013  01:23:00     -263.409     -159.433       -2.344      133.061      123.987       66.272    17705.124    15372.885     4391.990        6.613        1.874      307.901       64.688        0.044      342.291       17.596      859.341
05/21/2013  01:24:00     -190.131     -135.711       -3.561      105.053      113.048       56.032    11036.059    12779.851     3139.559        4.076        1.348      233.596       61.699        0.070      342.344       17.686      859.322
05/21/2013  01:25:00     -168.988     -110.468        3.589      143.416       88.610       58.373    20568.279     7851.763     3407.382        3.629        1.591      201.892       66.285        0.108      342.321       17.646      859.298
05/21/2013  01:26:00     -294.896     -208.414       11.226      145.434       88.460       66.328    21151.035     7825.220     4399.449        8.194        1.669      361.109       68.636        0.036      342.247       17.521      859.315
05/21/2013  01:27:00     -224.281     -144.728       13.194      106.581       87.887       60.926    11359.614     7724.058     3711.919        4.710        1.140      266.923       57.139        0.046      342.127       17.316      859.337
05/21/2013  01:28:00      -68.055     -145.321       -0.709       63.591       68.114       39.229     4043.811     4639.456     1538.945        1.798        0.511      160.467       33.077        0.042      342.115       17.298      859.324
05/21/2013  01:29:00     -140.058     -136.692        7.263      112.335       64.150       48.740    12619.218     4115.180     2375.607        2.873        0.956      195.706       56.528        0.083      342.050       17.186      859.310
05/21/2013  01:30:00     -171.827     -144.794       -9.616       99.742       85.223       46.436     9948.557     7263.001     2156.291        3.497        0.968      224.700       31.607        0.020      342.073       17.226      859.288
05/21/2013  01:31:00     -183.299     -181.196       -5.226       81.732       69.981       42.064     6680.088     4897.309     1769.339        3.990        0.667      257.741       30.105        0.014      342.125       17.310      859.270
05/21/2013  01:32:00     -195.483     -121.276        0.507      101.206      124.918       49.875    10242.650    15604.559     2487.503        4.062        1.417      230.047       48.720        0.045      342.110       17.288      859.260
05/21/2013  01:33:00     -200.186     -125.015       -0.538      119.719       87.184       54.953    14332.562     7601.069     3019.783        4.032        1.248      236.015       59.187        0.063      342.185       17.415      859.252
05/21/2013  01:34:00     -262.866     -105.846       -5.088      143.020      104.826       56.782    20454.818    10988.489     3224.234        5.749        1.733      283.376       71.142        0.063      342.224       17.480      859.237
05/21/2013  01:35:00     -224.943     -151.603       -0.805      165.404      125.783       63.430    27358.597    15821.450     4023.389        6.038        2.360      271.261       68.149        0.063      342.247       17.521      859.206
05/21/2013  01:36:00     -137.442      -38.997       -7.269      116.567      103.946       65.700    13587.961    10804.716     4316.528        2.458        1.435      142.867       62.499        0.191      342.191       17.427      859.194
05/21/2013  01:37:00     -233.651     -113.712      -10.911      137.643       94.482       44.726    18945.474     8926.764     2000.456        4.875        1.494      259.852       40.513        0.024      342.271       17.562      859.199
05/21/2013  01:38:00     -406.998      -13.966      -12.306      157.858      134.135       74.594    24919.113    17992.158     5564.309       10.722        2.424      407.237       71.490        0.031      342.331       17.661      859.190
05/21/2013  01:39:00     -427.172      -55.374      -38.297      111.068      117.824       57.130    12336.127    13882.393     3263.823       10.824        1.474      430.746       57.948        0.018      342.374       17.735      859.185
05/21/2013  01:40:00     -278.659      -41.240      -11.529       93.552       97.789       50.778     8751.955     9562.784     2578.376        5.018        1.045      281.694       50.171        0.032      342.348       17.692      859.186
05/21/2013  01:41:00     -169.714     -127.279      -18.845      149.247      111.851       60.276    22274.528    12510.555     3633.207        4.188        1.921      212.139       65.347        0.095      342.318       17.642      859.214
05/21/2013  01:42:00     -148.992     -130.344        7.284      131.106      106.420       58.382    17188.765    11325.207     3408.508        3.558        1.596      197.960       64.493        0.106      342.287       17.588      859.238
05/21/2013  01:43:00     -195.382     -163.543       -3.262      132.843      119.201       56.987    17647.382    14208.937     3247.485        5.001        1.755      254.795       69.645        0.075      342.350       17.696      859.249
05/21/2013  01:44:00     -162.509     -132.593       -3.146      125.255       63.999       48.328    15688.700     4095.935     2335.584        3.306        1.106      209.738       54.824        0.068      342.336       17.672      859.224
05/21/2013  01:45:00     -294.800      -95.323      -10.745      133.978       86.364       54.129    17950.195     7458.717     2929.987        6.222        1.417      309.828       60.003        0.038      342.335       17.670      859.197
05/21/2013  01:46:00     -257.054     -107.375      -11.265       83.931       75.757       46.960     7044.331     5739.100     2205.270        4.636        0.749      278.579       29.536        0.011      342.332       17.663      859.158
05/21/2013  01:47:00     -330.909      -69.010      -24.300      101.548       87.782       42.304    10312.015     7705.746     1789.645        6.733        0.990      338.028       44.237        0.017      342.335       17.669      859.132
05/21/2013  01:48:00     -374.383      -83.937      -11.665      106.321       87.089       59.116    11304.131     7584.532     3494.746        8.486        1.119      383.677       55.467        0.021      342.304       17.618      859.135
05/21/2013  01:49:00     -321.412      -81.986      -10.634      128.089      115.525       57.420    16406.838    13346.052     3297.002        7.159        1.652      331.704       60.545        0.033      342.349       17.694      859.126
05/21/2013  01:50:00     -304.765      -66.834       -3.712      135.910       91.369       61.736    18471.481     8348.219     3811.368        6.399        1.532      312.007       64.507        0.043      342.320       17.644      859.113
05/21/2013  01:51:00     -261.492      -55.830       -1.939      114.990       82.615       54.324    13222.650     6825.223     2951.079        4.724        1.150      267.386       54.329        0.041      342.275       17.567      859.104
05/21/2013  01:52:00     -340.661      -90.619       -9.933      125.477      103.638       54.553    15744.506    10740.888     2976.031        7.690        1.473      352.508       47.193        0.018      342.327       17.656      859.090
05/21/2013  01:53:00     -336.880      -83.139      -16.976      106.637      108.036       55.226    11371.395    11671.755     3049.899        7.339        1.305      346.987       52.379        0.023      342.331       17.662      859.068
05/21/2013  01:54:00     -317.495     -105.426      -15.316      101.530       88.845       56.578    10308.320     7893.391     3201.106        6.677        1.070      334.541       44.881        0.018      342.316       17.636      859.050
05/21/2013  01:55:00     -373.223      -66.186      -29.512      102.203       95.185       59.486    10445.423     9060.218     3538.625        8.379        1.152      379.047       53.112        0.020      342.404       17.785      859.040
05/21/2013  01:56:00     -430.022     -104.436      -38.298      142.801      119.678       65.013    20392.070    14322.923     4226.642       11.811        1.947      442.523       57.889        0.017      342.423       17.819      859.046
05/21/2013  01:57:00     -414.250     -102.242       -9.044      144.711      122.777       62.770    20941.151    15074.124     3940.104       11.104        1.998      426.681       62.503        0.021      342.518       17.979      859.030
05/21/2013  01:58:00     -365.132      -46.353      -15.772      131.230      112.753       53.421    17221.383    12713.219     2853.819        8.425        1.639      368.062       38.201        0.011      342.469       17.897      859.033
05/21/2013  01:59:00     -309.846     -141.300       -3.476      121.673       83.377       56.576    14804.205     6951.713     3200.878        7.046        1.248      340.544       54.751        0.026      342.353       17.700      859.045
05/21/2013  02:00:00     -446.587      -40.611      -32.138      163.990      122.239       65.842    26892.728    14942.452     4335.212       12.414        2.309      448.430       77.987        0.030      342.479       17.914      859.032
05/21/2013  02:01:00     -368.339      -59.943      -17.003      127.459      102.820       58.490    16245.853    10571.854     3421.103        8.489        1.512      373.184       57.979        0.024      342.446       17.858      859.028
05/21/2013  02:02:00     -225.822      -47.963       -8.207      105.311      114.058       49.979    11090.393    13009.121     2497.929        3.997        1.330      230.859       40.130        0.030      342.377       17.741      859.028
05/21/2013  02:03:00     -163.877      -72.495       -0.396       90.645       57.626       44.127     8216.553     3320.715     1947.234        2.280        0.674      179.196       39.331        0.048      342.334       17.668      859.036
05/21/2013  02:04:00      -98.864      -47.827       -1.425       65.882       62.504       27.090     4340.459     3906.708      733.876        1.052        0.449      109.825       18.545        0.029      342.412       17.803      859.042
05/21/2013  02:05:00      -21.373      -71.185        7.857       66.369       52.046       41.662     4404.824     2708.763     1735.711        0.722        0.442       74.325       31.831        0.183      342.337       17.676      859.060
05/21/2013  02:06:00      -47.700      -67.961        5.251       41.347       55.795       35.513     1709.610     3113.131     1261.191        0.650        0.304       83.030       23.453        0.080      342.378       17.746      859.068
05/21/2013  02:07:00      -57.418      -62.128       -3.443       50.279       58.444       37.581     2527.998     3415.698     1412.365        0.726        0.368       84.597       27.544        0.106      342.332       17.666      859.057
05/21/2013  02:08:00      -58.355      -46.572        0.500       37.516       27.890       28.864     1407.445      777.836      833.150        0.430        0.151       74.661       19.038        0.065      342.324       17.655      859.084
05/21/2013  02:09:00       51.164      -44.123        6.965       71.355       86.192       40.520     5091.474     7429.139     1641.877        0.938        0.708       67.562       53.580        0.629      342.098       17.268      859.070
05/21/2013  02:10:00       28.613       22.616       97.811       91.424      104.905       85.911     8358.305    11004.999     7380.634        1.882        1.337       36.471      101.377        7.726      341.749       16.677      859.017
05/21/2013  02:11:00       32.667       -3.786       69.303       71.311       70.175       45.632     5085.304     4924.468     2082.317        0.899        0.605       32.886       46.074        1.963      341.636       16.487      859.011
05/21/2013  02:12:00      101.467       19.724       41.136       88.831       57.208       50.710     7890.923     3272.812     2571.477        1.305        0.687      103.366       53.765        0.271      341.489       16.236      859.001
05/21/2013  02:13:00       52.378       28.242       60.768       61.918       63.230       40.914     3833.892     3998.059     1673.922        0.837        0.475       59.507       48.846        0.674      341.446       16.164      859.002
05/21/2013  02:14:00      117.489       54.179        5.765       31.858       43.532       28.085     1014.906     1895.077      788.777        1.023        0.185      129.380       19.427        0.023      341.237       15.810      859.015
05/21/2013  02:15:00      171.794      105.605       31.285       53.147       41.469       36.651     2824.591     1719.648     1343.316        2.376        0.294      201.657       14.649        0.005      341.048       15.487      858.972
05/21/2013  02:16:00      122.949      136.079       88.032       69.088       42.644       51.497     4773.094     1818.548     2651.904        2.531        0.462      183.395       46.490        0.064      341.055       15.500      858.920
05/21/2013  02:17:00      126.861       95.080       58.173       58.668       47.215       49.679     3441.933     2229.225     2468.029        1.833        0.407      158.537       41.145        0.067      340.985       15.382      858.904
05/21/2013  02:18:00       58.420       24.127       23.488       40.092       27.528       30.192     1607.377      757.764      911.584        0.391        0.164       63.206       21.066        0.111      340.926       15.282      858.919
05/21/2013  02:19:00       19.568       47.125       -8.542       20.395       21.536       14.923      415.951      463.806      222.709        0.189        0.055       51.026       11.060        0.047      340.904       15.247      858.933
05/21/2013  02:20:00       73.999       56.307       24.821       30.348       29.424       27.611      921.000      865.801      762.344        0.591        0.127       92.985       11.013        0.014      340.860       15.172      858.913
05/21/2013  02:21:00       12.005       67.106       80.520       39.880       44.874       32.883     1590.435     2013.651     1081.308        0.791        0.234       68.171       33.605        0.243      340.877       15.201      858.881
05/21/2013  02:22:00       62.052       63.976       99.618       89.167       88.026       72.804     7950.702     7748.636     5300.369        1.943        1.050       89.125       66.177        0.551      340.982       15.377      858.829
05/21/2013  02:23:00      106.712      -16.475       82.616      117.186      132.595       89.362    13732.662    17581.508     7985.646        2.888        1.965      107.977       99.274        0.845      341.022       15.444      858.815
05/21/2013  02:24:00       85.272      -15.315       75.055       86.997      117.317       67.542     7568.456    13763.314     4561.861        1.951        1.295       86.636       71.057        0.673      341.043       15.482      858.793
05/21/2013  02:25:00       82.566      -48.479       48.017       82.314       95.695       63.426     6775.569     9157.625     4022.876        1.571        0.998       95.746       64.279        0.451      341.107       15.589      858.824
05/21/2013  02:26:00       98.575       14.590       51.214       86.304       42.553       47.665     7448.382     1810.754     2271.974        1.204        0.577       99.648       20.458        0.042      341.437       16.148      858.822
05/21/2013  02:27:00      -44.446      -11.977       -8.026       57.132       33.844       17.242     3264.040     1145.383      297.290        0.344        0.235       46.032       10.552        0.053      341.250       15.834      858.824
05/21/2013  02:28:00      -13.776      -34.739        2.669       46.029       34.983       19.582     2118.685     1223.786      383.468        0.256        0.186       37.371       13.994        0.140      341.039       15.474      858.831
05/21/2013  02:29:00        5.609      -25.592       46.869       32.232       78.069       32.356     1038.905     6094.786     1046.913        0.553        0.409       26.200       44.964        2.945      341.353       16.008      858.783
05/21/2013  02:30:00      -19.021       10.208       28.950       34.417       42.366       24.985     1184.538     1794.867      624.227        0.245        0.180       21.587       19.339        0.803      341.143       15.653      858.741
05/21/2013  02:31:00     -169.150      -42.921       -7.030       80.979       74.520       32.416     6557.550     5553.256     1050.792        2.183        0.658      174.510       20.192        0.013      341.118       15.607      858.770
05/21/2013  02:32:00     -171.460      -11.344      -12.447       84.181       61.309       32.835     7086.438     3758.832     1078.109        2.080        0.596      171.835       43.307        0.064      340.943       15.310      858.786
05/21/2013  02:33:00      -61.444       33.987        3.243       67.115       24.566       21.576     4504.361      603.466      465.534        0.526        0.279       70.218       28.743        0.168      340.954       15.331      858.763
05/21/2013  02:34:00        7.452       85.419        4.694       25.664       37.373       29.397      658.627     1396.720      864.183        0.515        0.146       85.743       27.081        0.100      340.945       15.316      858.696
05/21/2013  02:35:00       93.205       64.547       21.617       52.818       33.810       32.188     2789.771     1143.120     1036.062        0.914        0.248      113.373       21.363        0.036      340.888       15.221      858.663
05/21/2013  02:36:00       72.475       96.996       73.177       64.751       32.382       41.899     4192.696     1048.587     1755.549        1.350        0.350      121.082       44.197        0.133      340.914       15.264      858.630
05/21/2013  02:37:00      117.246       31.516       26.504       32.270       41.641       34.847     1041.372     1733.997     1214.344        0.972        0.199      121.408       25.774        0.045      340.980       15.376      858.618
05/21/2013  02:38:00       38.794       15.588       19.719       49.438       38.962       26.794     2444.127     1518.032      717.901        0.341        0.234       41.809       18.244        0.190      341.011       15.428      858.621
05/21/2013  02:39:00       69.217       -7.946       22.008       63.306       42.079       34.009     4007.603     1770.631     1156.604        0.614        0.347       69.672       22.881        0.108      340.973       15.363      858.622
05/21/2013  02:40:00       46.654       26.817       43.611       44.443       33.203       32.898     1975.145     1102.409     1082.304        0.448        0.208       53.813       28.507        0.281      340.880       15.205      858.641
05/21/2013  02:41:00       24.000       42.509       50.583       33.902       32.803       25.092     1149.379     1076.044      629.628        0.390        0.143       48.817       19.256        0.156      340.800       15.071      858.657
05/21/2013  02:42:00       54.763       61.482       49.904       40.369       40.325       43.828     1629.661     1626.066     1920.937        0.722        0.259       82.335       33.915        0.170      340.810       15.087      858.656
05/21/2013  02:43:00       51.783       17.435       31.328       62.355       59.061       37.796     3888.127     3488.172     1428.568        0.638        0.440       54.640       35.589        0.424      340.795       15.061      858.651
05/21/2013  02:44:00       72.886       47.651        4.099       48.226       35.058       26.878     2325.733     1229.068      722.445        0.594        0.214       87.080        7.023        0.007      340.707       14.913      858.657
05/21/2013  02:45:00       21.593       17.970        4.955       47.174       24.992       19.012     2225.398      624.592      361.451        0.201        0.161       28.092       11.741        0.175      340.653       14.822      858.660
05/21/2013  02:46:00      -19.765       54.261       -9.246       33.077       26.023       17.040     1094.095      677.174      290.352        0.274        0.103       57.749       17.074        0.087      340.680       14.868      858.696
05/21/2013  02:47:00      -57.306       63.103      -12.568       23.964       28.295       14.988      574.286      800.599      224.634        0.451        0.080       85.240       14.780        0.030      340.668       14.847      858.725
05/21/2013  02:48:00      -12.474       64.336       -7.301       25.641       24.319       13.512      657.436      591.397      182.572        0.289        0.072       65.534       10.696        0.027      340.683       14.872      858.720
05/21/2013  02:49:00      -41.747       32.447      -12.103       29.454       43.106       14.460      867.525     1858.151      209.091        0.294        0.147       52.873       10.338        0.038      340.646       14.809      858.711
05/21/2013  02:50:00      -45.130       -7.597       -9.184       18.631       32.091       12.804      347.123     1029.833      163.932        0.186        0.077       45.765        7.557        0.027      340.623       14.772      858.713
05/21/2013  02:51:00      -30.798       48.887      -15.088       24.074       13.649        6.684      579.535      186.291       44.678        0.219        0.041       57.780        4.549        0.006      340.636       14.792      858.703
05/21/2013  02:52:00       33.001       22.611        5.843       20.893       18.859       14.030      436.534      355.662      196.830        0.131        0.049       40.004       13.249        0.110      340.578       14.697      858.694
05/21/2013  02:53:00       11.080        1.841       -1.620       16.211        5.314        7.061      262.803       28.241       49.863        0.023        0.017       11.232        5.193        0.214      340.617       14.762      858.700
05/21/2013  02:54:00       -1.625       16.532      -12.298       14.727       14.337        9.322      216.882      205.540       86.892        0.047        0.025       16.612        5.905        0.126      340.685       14.876      858.703
05/21/2013  02:55:00       -0.174       12.891        0.202        6.733        8.921        8.633       45.334       79.578       74.533        0.018        0.010       12.892        5.849        0.206      340.663       14.839      858.699
05/21/2013  02:56:00        7.249       13.689       10.527       10.632       12.059        6.845      113.036      145.417       46.857        0.033        0.015       15.490        5.310        0.118      340.675       14.860      858.695
05/21/2013  02:57:00      -35.362       31.457       -8.629       19.800       17.915        9.655      392.048      320.944       93.223        0.156        0.040       47.329       11.026        0.054      340.633       14.790      858.704
05/21/2013  02:58:00      -33.816       70.523       -1.485       27.075       22.410       17.788      733.056      502.221      316.404        0.384        0.078       78.211       15.057        0.037      340.626       14.777      858.684
05/21/2013  02:59:00      -11.514       62.734       -3.769       34.520       19.931       11.835     1191.615      397.246      140.068        0.291        0.086       63.782       14.919        0.055      340.694       14.892      858.668
05/21/2013  03:00:00      -17.107       48.971       -8.658       20.591       34.295       16.362      424.006     1176.163      267.718        0.232        0.093       51.872       19.605        0.143      340.695       14.892      858.650
05/21/2013  03:01:00      -16.293      -23.536       -8.075       19.436       10.848       11.771      377.749      117.682      138.546        0.076        0.032       28.625        9.607        0.113      340.675       14.861      858.638
05/21/2013  03:02:00       -6.374        9.398      -14.554       10.971       15.602        6.129      120.367      243.424       37.559        0.037        0.020       11.355        6.454        0.323      340.759       15.001      858.616
05/21/2013  03:03:00        8.046       54.964       -5.215       13.418       15.365       10.456      180.053      236.071      109.318        0.182        0.026       55.550        7.515        0.018      340.827       15.116      858.603
05/21/2013  03:04:00      -57.397       28.655       -8.771       21.845       17.498        5.881      477.221      306.189       34.583        0.251        0.041       64.152        7.218        0.013      340.754       14.992      858.610
05/21/2013  03:05:00      -40.479       22.591      -10.258        8.501       10.751        7.466       72.264      115.590       55.736        0.125        0.012       46.356        5.996        0.017      340.871       15.192      858.613
05/21/2013  03:06:00      -35.523       -3.819       -2.791        9.027       10.495        5.163       81.486      110.148       26.655        0.075        0.011       35.728        4.230        0.014      341.043       15.482      858.600
05/21/2013  03:07:00      -37.319        2.577       -4.746       14.224        7.865        6.933      202.328       61.859       48.073        0.087        0.016       37.408        5.124        0.019      340.846       15.148      858.595
05/21/2013  03:08:00      -39.688       10.380       -1.856       13.486        9.853        7.487      181.871       97.077       56.051        0.101        0.017       41.023        6.827        0.028      340.713       14.924      858.585
05/21/2013  03:09:00      -44.956       -4.713       -3.960       15.758        8.907        7.234      248.320       79.326       52.324        0.122        0.019       45.203        7.712        0.029      340.762       15.007      858.569
05/21/2013  03:10:00      -11.822      -23.585       -1.843       16.644       28.229        8.322      277.013      796.869       69.254        0.092        0.057       26.381        5.214        0.039      340.937       15.301      858.562
05/21/2013  03:11:00      -12.576      -29.892        2.359       23.379       22.904       17.324      546.566      524.606      300.114        0.121        0.069       32.430       17.761        0.300      340.974       15.365      858.549
05/21/2013  03:12:00      -40.235      -78.041       -8.184       25.691       27.936       13.190      660.015      780.447      173.985        0.469        0.081       87.802        6.466        0.005      341.229       15.797      858.541
05/21/2013  03:13:00      -16.630      -83.422        3.500       26.845       33.727       13.131      720.631     1137.484      172.436        0.464        0.102       85.063        8.519        0.010      341.368       16.033      858.513
05/21/2013  03:14:00      -33.253      -76.659        3.433       20.551       38.731       14.452      422.363     1500.076      208.868        0.456        0.107       83.561        7.762        0.009      341.395       16.078      858.493
05/21/2013  03:15:00      -46.376      -64.663       -7.211       28.941       40.256       15.053      837.600     1620.557      226.593        0.453        0.134       79.574       12.177        0.023      341.238       15.813      858.481
05/21/2013  03:16:00      -61.683       -7.847       -1.357       41.723       15.334       13.938     1740.844      235.137      194.267        0.302        0.109       62.180       17.304        0.077      340.974       15.364      858.476
05/21/2013  03:17:00      -74.934      -94.242       -0.998       63.623       44.327       26.068     4047.944     1964.874      679.542        1.059        0.335      120.402       25.897        0.046      341.230       15.798      858.464
05/21/2013  03:18:00      -68.402      -45.836        2.450       45.426       28.270       24.139     2063.536      799.167      582.672        0.511        0.172       82.339       28.752        0.122      341.212       15.768      858.449
05/21/2013  03:19:00      -54.765      -79.882       -0.905       33.741       30.060       16.925     1138.472      903.628      286.439        0.585        0.116       96.852       16.257        0.028      341.311       15.935      858.424
05/21/2013  03:20:00      -83.693      -97.237      -10.210       19.432       25.830       15.784      377.588      667.198      249.146        0.893        0.065      128.295        8.280        0.004      341.425       16.129      858.411
05/21/2013  03:21:00      -59.339      -94.056       -4.509       25.886       33.406       19.438      670.082     1115.933      377.821        0.728        0.108      111.210       19.441        0.031      341.390       16.071      858.404
05/21/2013  03:22:00      -81.544      -45.216        2.710       50.658       31.257       23.098     2566.194      976.977      533.509        0.639        0.204       93.241       25.419        0.074      341.399       16.085      858.390
05/21/2013  03:23:00      -64.745     -124.083        0.126       36.240       51.458       14.492     1313.348     2647.959      210.007        1.188        0.209      139.959       16.467        0.014      341.536       16.317      858.384
05/21/2013  03:24:00      -96.298     -122.548        2.176       51.217       63.460       26.930     2623.153     4027.199      725.233        1.583        0.369      155.856       26.920        0.030      341.683       16.565      858.366
05/21/2013  03:25:00     -102.002     -126.869        0.702       56.573       43.797       30.702     3200.460     1918.157      942.640        1.628        0.303      162.789       27.147        0.028      341.735       16.654      858.371
05/21/2013  03:26:00     -101.303      -65.715       -1.994       41.481       47.075       20.606     1720.666     2216.102      424.612        0.947        0.218      120.751       20.293        0.028      341.473       16.211      858.367
05/21/2013  03:27:00     -119.680      -69.804       -3.463       48.843       34.791       27.121     2385.638     1210.403      735.550        1.177        0.217      138.549       26.652        0.037      341.445       16.161      858.374
05/21/2013  03:28:00     -104.371      -97.569       -5.984       49.090       52.717       28.968     2409.808     2779.035      839.156        1.324        0.301      142.874       22.331        0.024      341.451       16.171      858.369
05/21/2013  03:29:00      -83.535     -106.941        6.234       59.907       64.642       37.457     3588.834     4178.531     1403.022        1.381        0.459      135.700       38.480        0.080      341.392       16.072      858.349
05/21/2013  03:30:00     -109.846     -117.940       -8.817       78.487       50.375       37.382     6160.226     2537.598     1397.408        1.807        0.505      161.170       33.854        0.044      341.511       16.272      858.311
05/21/2013  03:31:00     -101.316      -79.746        0.975       65.523       51.650       38.164     4293.291     2667.772     1456.481        1.252        0.421      128.935       30.207        0.055      341.551       16.341      858.269
05/21/2013  03:32:00     -142.268      -83.883       -4.070       60.934       43.835       30.976     3712.925     1921.544      959.535        1.694        0.330      165.156       33.138        0.040      341.473       16.208      858.259
05/21/2013  03:33:00     -117.805      -36.992       -3.365       62.633       43.156       27.151     3922.832     1862.399      737.165        1.089        0.326      123.476       26.803        0.047      341.405       16.094      858.244
05/21/2013  03:34:00     -157.449      -27.890       -1.353       73.032       54.218       34.633     5333.716     2939.583     1199.412        1.752        0.474      159.900       39.464        0.061      341.373       16.039      858.193
05/21/2013  03:35:00     -214.784      -60.709        2.353      113.980       79.229       43.073    12991.518     6277.181     1855.300        3.547        1.056      223.199       47.567        0.045      341.562       16.358      858.175
05/21/2013  03:36:00     -216.430      -71.140        4.154      108.678       93.066       49.902    11810.887     8661.205     2490.205        3.744        1.148      227.822       53.800        0.056      341.756       16.686      858.186
05/21/2013  03:37:00     -264.521      -39.648       -5.814      118.759       76.482       53.580    14103.795     5849.479     2870.850        4.720        1.141      267.476       54.698        0.042      341.845       16.837      858.175
05/21/2013  03:38:00     -218.891      -10.193        7.649      104.696       83.783       54.792    10961.248     7019.549     3002.152        3.453        1.049      219.129       57.218        0.068      341.845       16.838      858.138
05/21/2013  03:39:00     -302.202      -78.256      -12.271      144.394       77.571       58.770    20849.654     6017.321     3453.971        6.395        1.516      312.170       64.529        0.043      341.979       17.065      858.102
05/21/2013  03:40:00     -338.266      -92.463       -4.153      112.875       97.362       57.136    12740.792     9479.434     3264.568        7.423        1.274      350.675       57.875        0.027      342.041       17.169      858.064
05/21/2013  03:41:00     -334.554      -60.434      -13.010      112.553       75.268       53.423    12668.185     5665.205     2853.966        6.846        1.059      339.969       51.702        0.023      342.057       17.198      858.040
05/21/2013  03:42:00     -224.803      -68.970        1.291      111.430       79.475       47.431    12416.752     6316.333     2249.735        3.813        1.049      235.145       48.169        0.042      341.999       17.099      858.052
05/21/2013  03:43:00     -307.761      -63.995      -18.107      115.009       84.805       53.273    13227.051     7191.898     2838.039        6.119        1.163      314.344       53.496        0.029      342.035       17.160      858.073
05/21/2013  03:44:00     -338.641      -57.706       -8.132      117.862       80.675       47.826    13891.502     6508.485     2287.310        7.038        1.134      343.523       42.865        0.016      342.094       17.258      858.088
05/21/2013  03:45:00     -226.547      -34.110        7.922      155.373      105.833       81.738    24140.656    11200.612     6681.138        4.728        2.101      229.100       84.149        0.135      342.113       17.293      858.075
05/21/2013  03:46:00     -236.080      -39.796       -2.121      107.889      109.945       63.374    11640.082    12087.999     4016.320        4.253        1.387      239.410       63.732        0.071      342.099       17.268      858.100
05/21/2013  03:47:00     -283.133     -134.050       -6.272       74.907       68.512       45.602     5611.058     4693.869     2079.534        5.528        0.619      313.263       42.191        0.018      342.135       17.329      858.129
05/21/2013  03:48:00       -8.632      -31.811       17.190       55.397       62.182       34.678     3068.866     3866.632     1202.561        0.476        0.407       32.961       31.330        0.903      341.999       17.102      858.148
05/21/2013  03:49:00       12.874     -111.511       -3.361       41.951       40.862       29.220     1759.920     1669.737      853.832        0.845        0.214      112.252       16.430        0.021      342.133       17.329      858.159
05/21/2013  03:50:00      -47.346      -46.296      -21.532       93.456       71.944       42.603     8734.055     5175.945     1815.049        1.028        0.786       66.219       27.357        0.171      342.147       17.354      858.148
05/21/2013  03:51:00       35.831       -6.042       11.515       53.362       46.078       40.033     2847.469     2123.228     1602.625        0.401        0.329       36.337       29.489        0.659      341.949       17.018      858.131
05/21/2013  03:52:00       61.941      -50.572       24.046       60.542       48.360       42.451     3665.333     2338.692     1802.117        0.739        0.390       79.963       35.147        0.193      341.217       15.776      858.108
05/21/2013  03:53:00       66.922        9.513       65.198       86.326       87.097       56.094     7452.221     7585.870     3146.583        1.350        0.909       67.595       72.566        1.152      340.845       15.147      858.116
05/21/2013  03:54:00       71.611       19.107       41.248       47.001       38.033       34.862     2209.098     1446.512     1215.389        0.603        0.244       74.116       34.479        0.216      340.732       14.957      858.138
05/21/2013  03:55:00       39.531       44.002       79.399       36.280       40.948       22.913     1316.274     1676.751      525.024        0.666        0.176       59.151       22.402        0.143      340.739       14.969      858.139
05/21/2013  03:56:00       35.546       87.502      103.782       46.649       52.949       28.348     2176.097     2803.557      803.634        1.274        0.289       94.447       32.019        0.115      340.740       14.970      858.134
05/21/2013  03:57:00       77.107       42.445       65.765       63.509       53.015       35.032     4033.347     2810.591     1227.235        1.007        0.404       88.017       36.851        0.175      340.749       14.984      858.110
05/21/2013  03:58:00       34.064      -59.854       12.670       36.315       43.988       24.457     1318.804     1934.964      598.147        0.438        0.193       68.868       19.733        0.082      340.759       15.001      858.117
05/21/2013  03:59:00       56.028      -23.555       13.644       31.753       34.629       24.523     1008.258     1199.189      601.368        0.334        0.140       60.778       25.522        0.176      340.750       14.985      858.088
05/21/2013  04:00:00       36.070       11.653       12.398       26.381       19.120       21.510      695.965      365.588      462.668        0.156        0.076       37.906        9.026        0.057      340.649       14.815      858.089
05/21/2013  04:01:00       31.677      -50.392        7.413       40.112       56.743       29.285     1608.981     3219.813      857.626        0.464        0.284       59.521       28.855        0.235      340.802       15.074      858.072
05/21/2013  04:02:00       60.268      -94.337       -2.701       60.069       41.520       27.259     3608.277     1723.913      743.067        0.931        0.304      111.945        5.507        0.002      340.874       15.195      858.049
05/21/2013  04:03:00      -33.139      -35.596        6.222       41.476       35.245       22.114     1720.298     1242.210      489.007        0.293        0.173       48.634       18.249        0.141      340.876       15.199      858.053
05/21/2013  04:04:00        2.763      -25.088       16.374       24.705       29.036       22.771      610.317      843.096      518.505        0.144        0.099       25.240       15.855        0.395      340.880       15.205      858.038
05/21/2013  04:05:00       -1.786        5.738       25.532       17.610       40.424       25.722      310.117     1634.083      661.599        0.165        0.130        6.010       19.950       11.019      340.907       15.251      858.008
05/21/2013  04:06:00      -64.792      -14.583        4.924       56.459       35.191       21.677     3187.670     1238.435      469.909        0.466        0.245       66.412       21.439        0.104      340.868       15.185      857.964
05/21/2013  04:07:00     -179.544      -62.443       -3.162       45.374       47.447       23.460     2058.838     2251.218      550.349        2.050        0.243      190.092       22.202        0.014      340.795       15.061      857.974
05/21/2013  04:08:00     -131.417      -91.586       -9.455       58.360       41.643       27.261     3405.912     1734.135      743.182        1.581        0.294      160.183       21.476        0.018      341.118       15.609      857.975
05/21/2013  04:09:00       31.236      -75.142       15.443       53.315       46.206       34.058     2842.535     2135.023     1159.920        0.650        0.307       81.375       33.739        0.172      341.233       15.804      857.948
05/21/2013  04:10:00      101.663     -126.548      -16.100       48.459       48.423       31.371     2348.270     2344.822      984.171        1.614        0.284      162.327        6.394        0.002      341.324       15.958      857.928
05/21/2013  04:11:00      -10.688      -33.930       -3.660       48.051       42.976       27.945     2308.864     1846.938      780.922        0.311        0.247       35.574       23.995        0.455      341.272       15.871      857.964
05/21/2013  04:12:00       -5.807      -27.240       -6.438       69.543       55.366       34.965     4836.235     3065.405     1222.571        0.497        0.456       27.852       29.522        1.123      341.446       16.164      857.985
05/21/2013  04:13:00      -85.373      -19.001       -5.488       45.271       43.304       25.518     2049.444     1875.238      651.144        0.613        0.229       87.461       19.053        0.047      341.122       15.617      857.981
05/21/2013  04:14:00      -81.061      -56.086      -19.446       63.892       57.157       28.625     4082.248     3266.969      819.409        0.913        0.408       98.573       12.313        0.016      341.499       16.254      857.971
05/21/2013  04:15:00     -119.819      -79.784        1.518       50.327       45.339       29.861     2532.765     2055.597      891.709        1.310        0.274      143.951       22.257        0.024      341.327       15.963      857.945
05/21/2013  04:16:00      -66.467     -196.046      -15.855       50.366       89.574       37.811     2536.764     8023.539     1429.681        2.754        0.599      207.007       33.218        0.026      341.596       16.415      857.904
05/21/2013  04:17:00      -74.732     -160.660        4.803      107.247       97.534       41.274    11502.015     9512.811     1703.522        2.706        1.136      177.191       33.253        0.035      341.871       16.881      857.880
05/21/2013  04:18:00     -241.757     -132.684        1.778      105.281       84.824       56.595    11084.128     7195.035     3203.013        4.876        1.074      275.774       43.272        0.025      341.815       16.786      857.856
05/21/2013  04:19:00     -234.436     -166.297       -8.381      107.659      124.361       59.645    11590.548    15465.635     3557.498        5.664        1.531      287.429       41.294        0.021      341.703       16.595      857.816
05/21/2013  04:20:00     -234.295      -65.587        1.088      147.153       89.037       69.349    21653.891     7927.655     4809.298        4.679        1.720      243.302       82.982        0.116      341.674       16.547      857.824
05/21/2013  04:21:00     -139.749      -65.084      -14.827       72.502       81.812       36.060     5256.520     6693.234     1300.331        1.862        0.663      154.161       28.525        0.034      341.848       16.845      857.804
05/21/2013  04:22:00     -252.380     -159.243       -5.252      125.873      104.477       73.325    15843.905    10915.395     5376.622        6.060        1.607      298.419       71.332        0.057      341.967       17.042      857.802
05/21/2013  04:23:00     -339.317      -71.583      -12.702      115.395      124.845       47.934    13316.071    15586.278     2297.634        7.580        1.560      346.786       51.745        0.022      342.049       17.183      857.803
05/21/2013  04:24:00     -256.283     -114.495      -12.348       90.580      122.583       39.115     8204.656    15026.679     1529.998        5.185        1.238      280.695       28.358        0.010      342.022       17.136      857.796
05/21/2013  04:25:00     -220.134     -182.600        3.580      133.390      115.755       65.965    17792.935    13399.263     4351.359        5.867        1.777      286.010       69.980        0.060      341.943       17.001      857.765
05/21/2013  04:26:00     -281.889     -185.695       -2.336      123.163       79.260       47.231    15169.224     6282.119     2230.740        6.881        1.184      337.556       37.916        0.013      341.879       16.895      857.742
05/21/2013  04:27:00     -197.739     -126.555        1.622      125.360      127.176       65.495    15715.160    16173.757     4289.647        4.564        1.809      234.769       62.190        0.070      341.860       16.864      857.718
05/21/2013  04:28:00     -238.929     -114.846       -6.536      143.866       85.110       50.675    20697.311     7243.657     2567.956        5.041        1.525      265.097       56.475        0.045      341.891       16.916      857.741
05/21/2013  04:29:00     -146.470      -84.111       -6.587      119.395       78.938       45.091    14255.141     6231.280     2033.230        2.554        1.126      168.903       52.595        0.097      342.066       17.212      857.739
05/21/2013  04:30:00     -245.726     -144.361       -4.317      120.480       82.957       63.088    14515.439     6881.831     3980.121        5.330        1.269      284.994       63.776        0.050      342.014       17.123      857.703
05/21/2013  04:31:00     -228.748      -65.369       -6.933       98.399      128.869       56.655     9682.365    16607.113     3209.830        4.307        1.475      237.905       47.755        0.040      341.935       16.991      857.682
05/21/2013  04:32:00     -234.070     -142.138       -6.568       99.439       75.144       49.127     9888.027     5646.553     2413.443        4.649        0.897      273.847       48.705        0.032      341.960       17.032      857.676
05/21/2013  04:33:00     -260.187      -92.563       -9.322       90.295       66.582       40.946     8153.230     4433.180     1676.603        4.530        0.713      276.162       39.653        0.021      341.977       17.061      857.703
05/21/2013  04:34:00     -161.672      -51.371       -2.459       75.974       57.856       31.317     5771.995     3347.331      980.777        1.944        0.505      169.637       31.233        0.034      341.915       16.958      857.713
05/21/2013  04:35:00      -93.534      -48.268       -0.899       58.191       58.167       26.714     3386.228     3383.432      713.623        0.928        0.374      105.254       24.234        0.053      341.856       16.857      857.710
05/21/2013  04:36:00      -19.093     -124.408        2.659       36.657       46.817       23.779     1343.743     2191.849      565.454        0.997        0.205      125.865       19.766        0.025      341.891       16.917      857.689
05/21/2013  04:37:00      -18.784     -143.973        1.956       24.357       35.636       19.280      593.248     1269.960      371.723        1.166        0.112      145.193       13.548        0.009      341.930       16.983      857.670
05/21/2013  04:38:00      -38.273      -66.376       -8.765       37.347       31.359       21.898     1394.770      983.398      479.533        0.440        0.143       76.620       11.756        0.024      341.911       16.952      857.669
05/21/2013  04:39:00      -35.873      -53.724        6.334       41.646       52.493       24.144     1734.372     2755.522      582.912        0.464        0.254       64.600       29.049        0.202      341.821       16.801      857.674
05/21/2013  04:40:00      -70.185      -60.698       -5.056       42.040       36.460       24.786     1767.328     1329.309      614.322        0.617        0.186       92.791       21.903        0.056      341.819       16.796      857.682
05/21/2013  04:41:00      -78.707      -95.512      -10.242       48.654       40.235       22.246     2367.222     1618.891      494.879        0.995        0.224      123.763       17.986        0.021      341.825       16.806      857.678
05/21/2013  04:42:00      -25.539      -56.251        1.648       28.194       25.294       19.338      794.881      639.778      373.944        0.281        0.090       61.777       12.363        0.040      341.818       16.794      857.663
05/21/2013  04:43:00      -14.683      -61.350       -2.043       37.600       31.441       24.655     1413.782      988.519      607.845        0.350        0.151       63.083       16.280        0.067      341.759       16.695      857.656
05/21/2013  04:44:00      -61.801      -69.429       -1.030       37.830       37.292       17.639     1431.107     1390.678      311.150        0.589        0.157       92.950       11.136        0.014      341.803       16.770      857.671
05/21/2013  04:45:00      -73.120     -102.863       -4.494       45.658       50.772       25.407     2084.634     2577.804      645.507        1.063        0.265      126.204       18.735        0.022      341.773       16.718      857.698
05/21/2013  04:46:00     -108.501     -124.974       -3.509       55.381       54.479       34.775     3067.000     2967.933     1209.279        1.732        0.362      165.502       29.796        0.032      341.693       16.581      857.711
05/21/2013  04:47:00      -62.605      -97.613       10.769       44.926       79.088       28.929     2018.317     6254.991      836.873        1.134        0.456      115.964       20.103        0.030      341.665       16.536      857.696
05/21/2013  04:48:00     -149.428     -115.958       -1.252       57.867       55.927       24.224     3348.586     3127.883      586.784        2.142        0.353      189.143       16.034        0.007      341.598       16.420      857.670
05/21/2013  04:49:00     -120.062     -114.944        0.392       70.555       65.123       35.606     4978.060     4241.053     1267.753        1.905        0.524      166.214       34.760        0.044      341.522       16.292      857.636
05/21/2013  04:50:00     -101.742      -95.161       -3.370       50.618       67.141       25.243     2562.131     4507.926      637.193        1.356        0.385      139.309       28.981        0.043      341.531       16.306      857.630
05/21/2013  04:51:00      -73.057      -54.401        5.178       47.836       32.489       20.185     2288.290     1055.551      407.432        0.604        0.188       91.086       21.914        0.058      341.522       16.290      857.650
05/21/2013  04:52:00     -175.048      -95.622       -2.807       73.568       66.088       36.122     5412.300     4367.642     1304.815        2.544        0.554      199.463       34.266        0.030      341.511       16.271      857.665
05/21/2013  04:53:00     -145.392     -100.347       -6.557       60.926       48.214       31.367     3711.919     2324.590      983.863        1.913        0.351      176.659       28.057        0.025      341.480       16.220      857.660
05/21/2013  04:54:00     -161.517      -26.548       -3.032       72.331       65.918       38.080     5231.814     4345.189     1450.066        1.891        0.551      163.684       43.189        0.070      341.440       16.152      857.628
05/21/2013  04:55:00     -187.656       -2.237      -13.057       48.834       45.824       25.364     2384.743     2099.840      643.328        2.026        0.256      187.670       22.480        0.014      341.389       16.065      857.575
05/21/2013  04:56:00     -182.353      -36.516       -4.849       70.513       42.853       29.762     4972.033     1836.361      885.780        2.115        0.385      185.973       34.483        0.034      341.454       16.176      857.577
05/21/2013  04:57:00     -140.035      -61.998        1.917       63.438       39.471       28.108     4024.375     1557.967      790.066        1.491        0.319      153.146       27.597        0.032      341.407       16.096      857.614
05/21/2013  04:58:00      -36.285      -43.763       17.305       60.553       41.843       33.265     3666.665     1750.803     1106.528        0.503        0.326       56.849       37.081        0.425      341.359       16.017      857.659
05/21/2013  04:59:00      -69.719      -87.490       -0.102       58.585       34.101       28.865     3432.221     1162.851      833.211        0.897        0.271      111.871       30.257        0.073      341.344       15.993      857.686
05/21/2013  05:00:00     -105.545      -58.779        2.186       53.816       45.951       33.184     2896.180     2111.502     1101.172        1.035        0.305      120.808       34.536        0.082      341.355       16.010      857.692
05/21/2013  05:01:00     -106.632      -43.949      -12.228       53.174       49.180       28.440     2827.464     2418.671      808.860        0.975        0.303      115.334       26.108        0.051      341.393       16.075      857.678
05/21/2013  05:02:00      -96.150      -64.891        0.003       35.969       35.434       20.871     1293.788     1255.564      435.585        0.822        0.149      115.999       16.890        0.021      341.379       16.052      857.678
05/21/2013  05:03:00     -119.041     -100.847       -7.952       42.710       41.054       25.837     1824.127     1685.397      667.552        1.429        0.209      156.016       21.478        0.019      341.493       16.242      857.697
05/21/2013  05:04:00      -76.416      -73.588        7.321       59.542       57.360       32.611     3545.264     3290.119     1063.496        0.960        0.395      106.088       28.897        0.074      341.475       16.212      857.711
05/21/2013  05:05:00     -170.773     -137.796       -9.075       84.581       51.877       42.854     7153.936     2691.199     1836.507        2.996        0.584      219.434       37.904        0.030      341.536       16.312      857.707
05/21/2013  05:06:00     -205.572      -87.296       -2.063       81.041       73.369       50.747     6567.622     5383.052     2575.235        3.220        0.726      223.340       48.662        0.047      341.629       16.471      857.673
05/21/2013  05:07:00     -139.078      -64.851       -5.356       59.227       70.346       31.201     3507.794     4948.590      973.503        1.650        0.471      153.454       27.450        0.032      341.589       16.403      857.633
05/21/2013  05:08:00     -116.923      -28.140       -4.081       46.204       37.870       22.592     2134.830     1434.121      510.417        0.928        0.204      120.261       19.064        0.025      341.486       16.231      857.611
05/21/2013  05:09:00     -108.218      -40.134       -3.949       26.562       23.860       13.094      705.534      569.301      171.464        0.739        0.072      115.421       13.526        0.014      341.529       16.305      857.611
05/21/2013  05:10:00      -42.119      -50.220       11.727       44.321       27.135       20.463     1964.372      736.309      418.719        0.378        0.156       65.545       19.042        0.084      341.508       16.268      857.629
05/21/2013  05:11:00      -48.213      -28.468        0.068       18.727       20.371       11.461      350.712      414.990      131.354        0.202        0.045       55.991        8.417        0.023      341.448       16.168      857.642
05/21/2013  05:12:00      -41.181      -31.390       -4.351       27.979       16.767       14.974      782.841      281.148      224.235        0.199        0.064       51.780       14.031        0.073      341.475       16.212      857.660
05/21/2013  05:13:00      -51.133      -25.260        0.570       38.720       22.903       13.127     1499.218      524.558      172.324        0.272        0.110       57.032        7.564        0.018      341.380       16.052      857.671
05/21/2013  05:14:00      -41.011      -16.425       -0.158       27.229       16.420       12.668      741.394      269.608      160.482        0.156        0.059       44.178       10.204        0.053      341.328       15.964      857.656
05/21/2013  05:15:00      -43.139       -6.930       -5.562       16.580        9.866        9.126      274.913       97.332       83.291        0.120        0.023       43.692        7.905        0.033      341.263       15.855      857.638
05/21/2013  05:16:00       -0.049       10.422        5.472       17.043        5.653        8.243      290.469       31.954       67.949        0.026        0.020       10.422       10.315        0.979      341.206       15.756      857.612
05/21/2013  05:17:00       16.916       35.142       21.745       24.793       14.478       14.851      614.709      209.614      220.560        0.152        0.052       39.001       11.128        0.081      341.220       15.783      857.601
05/21/2013  05:18:00       35.643       28.638       17.899       36.509       21.065       21.177     1332.939      443.749      448.483        0.232        0.111       45.723       23.157        0.257      341.110       15.596      857.600
05/21/2013  05:19:00       67.500       27.448       -9.183       25.038       26.018       22.342      626.913      676.914      499.182        0.360        0.090       72.868       12.305        0.029      340.951       15.327      857.588
05/21/2013  05:20:00       79.382       57.587        8.501       55.000       36.058       30.926     3024.972     1300.204      956.399        0.748        0.264       98.070       26.018        0.070      340.673       14.856      857.568
05/21/2013  05:21:00      105.793       75.590       24.102       53.394       42.077       33.421     2850.964     1770.506     1116.978        1.161        0.287      130.023       23.577        0.033      340.522       14.600      857.557
05/21/2013  05:22:00      109.697       54.577       16.577       42.729       41.029       24.117     1825.792     1683.416      581.611        0.969        0.205      122.523       18.436        0.023      340.470       14.510      857.577
05/21/2013  05:23:00      100.618       42.275       40.982       37.670       32.384       32.027     1419.027     1048.709     1025.711        0.854        0.175      109.138       16.635        0.023      340.439       14.459      857.602
05/21/2013  05:24:00       25.828       37.919       53.391       27.742       31.811       18.752      769.595     1011.914      351.644        0.354        0.107       45.879       14.783        0.104      340.452       14.480      857.625
05/21/2013  05:25:00       82.771       61.540       40.265       26.064       25.271       24.005      679.350      638.600      576.220        0.708        0.095      103.142       13.081        0.016      340.441       14.463      857.613
05/21/2013  05:26:00       66.530       51.292       10.276       20.374       22.972       19.311      415.084      527.709      372.907        0.424        0.066       84.007        5.637        0.005      340.396       14.389      857.611
05/21/2013  05:27:00       30.057       23.670        8.926       26.151       18.432       16.157      683.883      339.732      261.042        0.141        0.064       38.258       15.901        0.173      340.398       14.394      857.623
05/21/2013  05:28:00       50.016       39.155       17.757       16.653       16.123       13.131      277.318      259.958      172.420        0.253        0.035       63.519        3.210        0.003      340.377       14.355      857.654
05/21/2013  05:29:00       49.487       44.924       32.980       19.614       12.214       14.123      384.727      149.174      199.471        0.314        0.037       66.836        5.280        0.006      340.398       14.392      857.667
05/21/2013  05:30:00       71.750       72.320       41.828       26.526       22.242       16.856      703.625      494.713      284.127        0.680        0.074      101.873       14.405        0.020      340.343       14.299      857.656
05/21/2013  05:31:00      108.746       82.531       35.069       30.428       20.514       23.051      925.863      420.837      531.352        1.087        0.094      136.518       23.279        0.029      340.334       14.284      857.629
05/21/2013  05:32:00      146.775       99.226       33.130       25.311       21.817       24.243      640.662      476.002      587.744        1.710        0.085      177.169       14.929        0.007      340.364       14.332      857.608
05/21/2013  05:33:00      168.353       84.662       15.401       43.989       33.777       26.057     1935.030     1140.902      678.976        1.975        0.188      188.442       19.512        0.011      340.272       14.177      857.598
05/21/2013  05:34:00      105.480       67.874       18.550       37.172       20.293       23.533     1381.726      411.807      553.825        0.921        0.117      125.431        8.274        0.004      340.208       14.071      857.584
05/21/2013  05:35:00       25.360       42.698       -0.063       28.085       24.803       15.341      788.744      615.165      235.350        0.205        0.082       49.662       10.867        0.048      340.165       13.995      857.558
05/21/2013  05:36:00      -11.151       55.414      -11.151       14.931       21.395        8.801      222.937      457.765       77.458        0.204        0.038       56.525       10.267        0.033      340.289       14.205      857.547
05/21/2013  05:37:00      -42.518       79.329      -12.747       27.649       34.081       16.738      764.442     1161.489      280.147        0.523        0.110       90.005       16.956        0.035      340.194       14.047      857.556
05/21/2013  05:38:00      -17.169      150.033      -30.122       17.673       21.063       14.537      312.320      443.653      211.318        1.234        0.048      151.012        9.922        0.004      340.163       13.993      857.557
05/21/2013  05:39:00        1.990      191.967      -34.018       31.250       28.372       10.418      976.553      804.958      108.541        1.995        0.095      191.977        9.582        0.002      340.180       14.023      857.558
05/21/2013  05:40:00       46.386      113.162      -12.788       45.197       68.452       37.246     2042.759     4685.628     1387.249        1.162        0.406      122.300       41.291        0.114      340.131       13.941      857.555
05/21/2013  05:41:00       25.660       62.797       -6.649       40.663       36.749       25.940     1653.465     1350.484      672.888        0.416        0.184       67.838       20.115        0.088      340.170       14.006      857.570
05/21/2013  05:42:00       -4.385       55.549      -12.168       23.406       26.531       18.474      547.852      703.911      341.300        0.242        0.080       55.722       11.657        0.044      340.175       14.012      857.579
05/21/2013  05:43:00        6.496       68.500       -3.043       28.328       25.696       19.246      802.461      660.285      370.422        0.329        0.092       68.807       14.699        0.046      340.191       14.042      857.560
05/21/2013  05:44:00       69.719       68.005        8.101       24.905       20.340       20.728      620.236      413.718      429.642        0.551        0.073       97.393       15.185        0.024      340.107       13.900      857.533
05/21/2013  05:45:00       70.552       53.293        6.363       20.792       23.665       17.069      432.297      560.041      291.343        0.457        0.064       88.418        9.675        0.012      340.083       13.859      857.515
05/21/2013  05:46:00       45.169       33.959       14.681       33.102       18.097       18.114     1095.749      327.505      328.101        0.258        0.088       56.511       10.776        0.036      340.084       13.860      857.521
05/21/2013  05:47:00       28.993       39.111       -0.250       18.318       29.581       21.598      335.552      875.062      466.464        0.202        0.084       48.685        8.431        0.030      340.143       13.961      857.540
05/21/2013  05:48:00       41.230       72.933       14.494       30.035       25.660       22.823      902.090      658.421      520.895        0.465        0.104       83.781       21.247        0.064      340.293       14.213      857.554
05/21/2013  05:49:00       21.904       55.633       11.804       28.198       30.650       26.142      795.112      939.443      683.395        0.307        0.121       59.789       19.395        0.105      340.287       14.204      857.553
05/21/2013  05:50:00       23.272       45.239       -0.293       27.409       25.950       19.587      751.231      673.386      383.652        0.220        0.090       50.873       16.231        0.102      340.310       14.242      857.541
05/21/2013  05:51:00       23.451       19.361       -8.735       15.490       25.301       13.802      239.955      640.143      190.483        0.104        0.054       30.411       12.751        0.176      340.286       14.200      857.543
05/21/2013  05:52:00        4.168       -3.624        0.302       14.730        8.985        7.338      216.986       80.727       53.846        0.019        0.018        5.523        4.703        0.725      340.198       14.054      857.541
05/21/2013  05:53:00       -2.882       -4.789       -6.559       23.276       30.077       16.737      541.785      904.639      280.134        0.090        0.086        5.589        7.960        2.029      340.061       13.822      857.527
05/21/2013  05:54:00       18.418        7.199        8.680       11.801       22.997       17.993      139.253      528.853      323.755        0.073        0.050       19.775        3.755        0.036      340.141       13.957      857.518
05/21/2013  05:55:00        6.411       -2.533        3.270        8.134       11.496       12.329       66.158      132.154      151.994        0.020        0.018        6.893        5.099        0.547      340.221       14.091      857.509
05/21/2013  05:56:00       57.516       43.925       21.421       22.705       18.387       17.292      515.520      338.094      299.023        0.342        0.058       72.371        9.200        0.016      340.389       14.377      857.487
05/21/2013  05:57:00       64.855       34.312        2.361       16.810       14.314       15.345      282.574      204.888      235.480        0.306        0.036       73.372        9.294        0.016      340.427       14.439      857.474
05/21/2013  05:58:00       31.421        7.222       -0.014       22.245       26.616       13.914      494.857      708.428      193.600        0.122        0.070       32.240       10.330        0.103      340.382       14.362      857.487
05/21/2013  05:59:00      -10.394      -37.711       -6.294       23.907       20.924       14.842      571.561      437.825      220.287        0.140        0.061       39.118       14.949        0.146      340.312       14.246      857.533
05/21/2013  06:00:00      -28.060      -25.463       -4.690       20.848       10.990        9.994      434.649      120.776       99.890        0.106        0.033       37.891        8.374        0.049      340.276       14.184      857.583
05/21/2013  06:01:00      -14.831      -35.310       -4.192       16.090       18.165       10.096      258.873      329.965      101.936        0.109        0.035       38.298        6.436        0.028      340.425       14.438      857.603
05/21/2013  06:02:00       -5.509      -22.443       -5.256       18.606       13.715        9.846      346.194      188.096       96.938        0.060        0.032       23.110       10.148        0.193      340.547       14.645      857.605
05/21/2013  06:03:00      -21.793      -26.084        2.719       14.854       13.240       16.032      220.635      175.293      257.020        0.091        0.033       33.990        4.438        0.017      340.480       14.527      857.602
05/21/2013  06:04:00      -19.734      -16.500       -0.813       12.863       11.723        9.422      165.464      137.429       88.781        0.053        0.020       25.723        6.793        0.070      340.493       14.550      857.605
05/21/2013  06:05:00        9.832      -41.589       -4.648       14.915       15.583       14.367      222.465      242.840      206.423        0.126        0.034       42.735        9.989        0.055      340.399       14.394      857.632
05/21/2013  06:06:00       22.657      -16.663       -0.850       12.392       17.178       17.199      153.560      295.100      295.806        0.077        0.037       28.125       10.978        0.152      340.261       14.160      857.657
05/21/2013  06:07:00       26.431       -9.539       16.440       21.160       11.734       14.166      447.742      137.685      200.684        0.092        0.039       28.100       11.583        0.170      340.330       14.275      857.671
05/21/2013  06:08:00      -82.207      -21.024       -9.769       36.470       12.910       17.719     1330.058      166.671      313.974        0.455        0.091       84.853       21.224        0.063      340.394       14.385      857.677
05/21/2013  06:09:00     -101.328      -22.106      -11.425       23.547       17.945       12.292      554.464      322.013      151.104        0.596        0.051      103.711        9.131        0.008      340.451       14.481      857.674
05/21/2013  06:10:00      -36.138      -28.188       -5.172       20.780        9.463        7.522      431.812       89.554       56.576        0.135        0.029       45.832        6.620        0.021      340.522       14.599      857.673
05/21/2013  06:11:00       24.987      -30.280       -4.536       29.371       17.664       17.656      862.637      312.025      311.736        0.152        0.074       39.258       13.489        0.118      340.382       14.364      857.695
05/21/2013  06:12:00      -40.813      -14.893        5.915       41.418       15.788       14.301     1715.435      249.274      204.506        0.205        0.108       43.446       18.690        0.185      340.373       14.349      857.723
05/21/2013  06:13:00      -72.533      -45.213       -3.653       12.001       13.287        8.565      144.017      176.540       73.360        0.386        0.020       85.471        6.150        0.005      340.419       14.427      857.743
05/21/2013  06:14:00      -25.618      -31.886        3.155       26.114       14.225       15.019      681.950      202.354      225.571        0.140        0.055       40.902        6.203        0.023      340.475       14.518      857.759
05/21/2013  06:15:00      -10.606        2.519        8.042       16.313        9.732        8.609      266.125       94.708       74.123        0.031        0.022       10.901        6.203        0.324      340.341       14.297      857.735
05/21/2013  06:16:00       23.898       32.961        6.621       15.780       16.570       11.418      249.018      274.564      130.365        0.118        0.033       40.713        9.493        0.054      340.489       14.545      857.696
05/21/2013  06:17:00       -0.690       43.815       -0.768       13.525       10.607       12.090      182.920      112.512      146.176        0.118        0.022       43.820        9.109        0.043      340.502       14.567      857.682
05/21/2013  06:18:00      -38.607       12.562       -8.021       13.222       13.774       10.608      174.817      189.715      112.526        0.109        0.024       40.600        8.769        0.047      340.677       14.863      857.709
05/21/2013  06:19:00      -51.571      -35.209       -8.132       21.262       13.130       11.803      452.072      172.409      139.300        0.236        0.038       62.444        9.888        0.025      340.273       14.180      857.742
05/21/2013  06:20:00      -19.536      -28.281        1.790       15.149       11.802       11.512      229.482      139.289      132.535        0.084        0.025       34.373        6.375        0.034      340.281       14.195      857.722
05/21/2013  06:21:00        5.209       -5.212        2.740       20.435       15.208        7.913      417.593      231.298       62.623        0.039        0.036        7.369       12.140        2.714      340.302       14.229      857.672
05/21/2013  06:22:00        7.608       -6.117       -0.867       11.497       10.941        4.448      132.191      119.700       19.781        0.018        0.014        9.762        4.175        0.183      340.459       14.495      857.629
05/21/2013  06:23:00      -25.629      -15.190       -4.840       14.942        5.503        4.217      223.266       30.283       17.781        0.059        0.014       29.792        4.973        0.028      340.482       14.535      857.615
05/21/2013  06:24:00      -46.776      -29.726       -8.568       16.704       10.651        6.817      279.028      113.436       46.465        0.179        0.022       55.422        5.909        0.011      340.387       14.371      857.606
05/21/2013  06:25:00      -58.814      -14.589       -6.945       13.829       12.428        7.566      191.243      154.463       57.238        0.206        0.020       60.597        4.508        0.006      340.386       14.372      857.597
05/21/2013  06:26:00      -11.111        1.427        2.232       15.395       10.160       11.244      237.016      103.235      126.418        0.030        0.023       11.202        6.565        0.343      340.729       14.949      857.571
05/21/2013  06:27:00      -43.170      -16.853       -8.078       21.541       15.801        9.600      464.020      249.678       92.169        0.151        0.040       46.343        6.243        0.018      340.591       14.718      857.587
05/21/2013  06:28:00      -45.719      -25.540       -5.272       23.762       14.664       13.123      564.638      215.037      172.214        0.186        0.048       52.369       11.356        0.047      340.324       14.265      857.600
05/21/2013  06:29:00        0.053        3.274       12.341       32.302       11.942       15.973     1043.414      142.600      255.125        0.080        0.072        3.274       18.641       32.417      340.424       14.434      857.553
05/21/2013  06:30:00       41.192       33.481       12.654       33.445       32.162       13.701     1118.585     1034.394      187.705        0.266        0.117       53.083       18.311        0.119      340.468       14.509      857.489
05/21/2013  06:31:00       55.220       42.611        0.592       28.755       31.277       25.622      826.848      978.266      656.474        0.366        0.123       69.749       14.009        0.040      340.525       14.605      857.450
05/21/2013  06:32:00      -12.543       28.222      -10.952       27.340       10.470       16.122      747.479      109.612      259.912        0.110        0.056       30.884       16.220        0.276      340.406       14.404      857.449
05/21/2013  06:33:00      -50.076      -34.819       -7.098       27.769       27.892       13.875      771.140      777.964      192.523        0.276        0.087       60.991        9.610        0.025      340.505       14.571      857.480
05/21/2013  06:34:00      -26.214       39.737       -5.403       20.789       22.687       15.310      432.171      514.700      234.394        0.174        0.059       47.605       17.891        0.141      340.414       14.418      857.485
05/21/2013  06:35:00      -39.532       47.857      -13.802       16.620       17.900        9.412      276.228      320.394       88.589        0.236        0.034       62.073        7.281        0.014      340.583       14.703      857.458
05/21/2013  06:36:00      -58.402       64.489      -15.253       29.371       24.270       18.998      862.628      589.053      360.932        0.481        0.091       87.003       18.324        0.044      340.474       14.519      857.448
05/21/2013  06:37:00      -81.872        0.954       -7.708       36.221       57.695       25.629     1311.989     3328.711      656.846        0.603        0.265       81.877       27.624        0.114      340.558       14.661      857.462
05/21/2013  06:38:00      -49.920       16.664        1.038       38.393       42.870       25.966     1474.013     1837.805      674.244        0.338        0.199       52.628        9.200        0.031      340.569       14.680      857.474
05/21/2013  06:39:00      -48.444      -18.483      -11.735       20.472       20.730       19.562      419.111      429.719      382.685        0.203        0.062       51.851       12.412        0.057      340.471       14.515      857.467
05/21/2013  06:40:00      -82.858      -39.689       -6.605       26.004       19.004       14.719      676.195      361.145      216.638        0.487        0.063       91.873        5.959        0.004      340.384       14.368      857.452
05/21/2013  06:41:00     -127.457       25.479      -16.196       44.258       46.190       26.376     1958.731     2133.512      695.696        1.097        0.239      129.979       23.025        0.031      340.682       14.871      857.473
05/21/2013  06:42:00      -63.302      -10.562       -6.992       41.834       45.127       23.189     1750.108     2036.435      537.730        0.425        0.216       64.177       14.878        0.054      340.668       14.847      857.473
05/21/2013  06:43:00      -33.645       44.794       -8.491       25.003       36.252       24.010      625.136     1314.179      576.475        0.286        0.126       56.022       19.194        0.117      340.754       14.993      857.435
05/21/2013  06:44:00       16.327       68.025       11.572       48.275       31.836       22.687     2330.482     1013.511      514.681        0.444        0.193       69.957       23.021        0.108      340.851       15.157      857.394
05/21/2013  06:45:00       29.119      -16.628       -0.657       32.702       25.850       16.014     1069.399      668.238      256.451        0.156        0.100       33.533        9.926        0.088      340.377       14.355      857.377
05/21/2013  06:46:00      -27.816      -20.314       -2.855       23.957       20.799        8.160      573.930      432.587       66.589        0.113        0.054       34.444        8.224        0.057      340.487       14.542      857.380
05/21/2013  06:47:00      -57.762      -39.781       -7.217       48.344       16.372       16.683     2337.170      268.050      278.320        0.393        0.144       70.136       13.680        0.038      340.389       14.378      857.422
05/21/2013  06:48:00      -35.004      -74.608       -9.365       22.272       10.083        9.043      496.041      101.668       81.769        0.378        0.034       82.411        9.886        0.014      340.810       15.088      857.441
05/21/2013  06:49:00       13.955      -12.564       14.544       24.102       24.748       18.032      580.887      612.475      325.144        0.104        0.076       18.777       13.956        0.552      340.950       15.325      857.380
05/21/2013  06:50:00       57.492       61.350       54.106       34.400       27.414       19.097     1183.377      751.510      364.688        0.615        0.115       84.078        5.513        0.004      340.835       15.130      857.311
05/21/2013  06:51:00       -3.585      -13.308       31.133       14.633       26.489       14.988      214.118      701.647      224.636        0.115        0.057       13.783       11.021        0.639      340.798       15.067      857.301
05/21/2013  06:52:00      -64.749      -33.443        0.117       46.719       18.836       24.664     2182.709      354.809      608.293        0.423        0.157       72.876       28.498        0.153      340.958       15.338      857.311
05/21/2013  06:53:00      -31.342      -18.456        1.155       32.615       24.044       14.990     1063.738      578.095      224.695        0.160        0.093       36.372       14.831        0.166      341.070       15.527      857.312
05/21/2013  06:54:00       12.006      -44.096       -2.566       20.211       23.326       18.300      408.477      544.079      334.892        0.169        0.064       45.702        8.461        0.034      341.005       15.419      857.330
05/21/2013  06:55:00      -18.904      -28.396        8.375       31.778       23.232       19.000     1009.810      539.739      360.988        0.157        0.096       34.113        7.904        0.054      340.932       15.294      857.341
05/21/2013  06:56:00      -81.396      -10.283       -7.048       22.727       20.435       12.993      516.495      417.584      168.808        0.394        0.055       82.043       11.451        0.019      341.119       15.610      857.335
05/21/2013  06:57:00      -10.499        4.833        8.603       24.088       15.355       15.541      580.229      235.777      241.510        0.063        0.053       11.558       18.220        2.485      340.910       15.256      857.295
05/21/2013  06:58:00      -27.150       -8.176        0.179       14.817       15.535       13.737      219.529      241.324      188.697        0.073        0.032       28.355       10.975        0.150      341.164       15.687      857.293
05/21/2013  06:59:00        8.044      -34.800        2.148       21.442       35.031        9.569      459.754     1227.197       91.569        0.153        0.089       35.717       13.438        0.142      341.039       15.475      857.324
05/21/2013  07:00:00        3.543      -75.169        1.565       29.994       27.665       31.375      899.639      765.333      984.389        0.416        0.132       75.252       21.013        0.078      341.055       15.502      857.310
05/21/2013  07:01:00        5.637      -37.456       12.960       82.960       32.710       25.377     6882.313     1069.941      643.983        0.510        0.430       37.878       21.565        0.324      341.025       15.450      857.255
05/21/2013  07:02:00        7.448       27.575       43.126       26.084       29.565       22.328      680.392      874.074      498.548        0.236        0.103       28.563       18.926        0.439      340.906       15.250      857.178
05/21/2013  07:03:00      -24.134        9.719       33.805       43.937       45.094       38.951     1930.490     2033.508     1517.206        0.365        0.274       26.017       40.599        2.435      341.169       15.695      857.169
05/21/2013  07:04:00      -88.020      -28.451       -9.581       30.885       19.384       12.499      953.872      375.741      156.226        0.507        0.074       92.504       11.097        0.014      341.175       15.707      857.205
05/21/2013  07:05:00      -31.294      -31.976       12.461       30.180       25.087       17.074      910.843      629.375      291.530        0.199        0.092       44.741       16.165        0.131      341.128       15.626      857.204
05/21/2013  07:06:00      -21.226      -66.808       11.913       27.412       27.306       27.817      751.417      745.621      773.805        0.366        0.114       70.099       10.898        0.024      341.044       15.484      857.228
05/21/2013  07:07:00      -18.614      -49.411        8.164       25.877       31.040       23.457      669.633      963.496      550.230        0.252        0.109       52.801       17.786        0.113      341.023       15.448      857.229
05/21/2013  07:08:00       -4.402       17.328       39.072       14.835       31.675       20.029      220.086     1003.328      401.143        0.174        0.081       17.879       20.363        1.297      340.991       15.394      857.221
05/21/2013  07:09:00        3.736       25.804       43.352       16.983       21.942       14.895      288.413      481.464      221.854        0.178        0.050       26.073       14.828        0.323      341.102       15.581      857.219
05/21/2013  07:10:00       -6.261       30.802       66.315       23.323       24.351       20.714      543.948      592.949      429.050        0.348        0.078       31.432       14.404        0.210      341.199       15.747      857.231
05/21/2013  07:11:00       35.542       -9.463       24.825       42.823       53.262       42.655     1833.779     2836.875     1819.487        0.423        0.325       36.780       34.343        0.872      341.103       15.584      857.229
05/21/2013  07:12:00       54.896      -70.315       18.273       35.267       62.758       28.462     1243.784     3938.518      810.066        0.714        0.300       89.206       37.590        0.178      341.109       15.595      857.274
05/21/2013  07:13:00       48.171      -33.718       12.442       33.732       34.128       29.875     1137.834     1164.741      892.538        0.340        0.160       58.799       16.296        0.077      341.187       15.726      857.292
05/21/2013  07:14:00       63.090       19.799       29.600       37.105       35.934       29.025     1376.795     1291.251      842.478        0.438        0.176       66.123       27.406        0.172      341.151       15.665      857.235
05/21/2013  07:15:00      101.016       59.045       33.427       44.268       36.231       35.147     1959.614     1312.720     1235.343        0.966        0.225      117.007       19.558        0.028      341.180       15.713      857.158
05/21/2013  07:16:00       52.275       32.281       46.950       53.983       36.481       33.544     2914.112     1330.868     1125.222        0.567        0.269       61.439       31.363        0.261      341.363       16.025      857.166
05/21/2013  07:17:00       -0.545       35.965       56.168       18.922       35.317       18.738      358.048     1247.291      351.101        0.320        0.098       35.969       17.500        0.237      341.536       16.316      857.165
05/21/2013  07:18:00        5.402       -1.466       29.574       16.586       17.462       16.737      275.095      304.905      280.118        0.088        0.043        5.598       11.221        4.018      341.623       16.464      857.164
05/21/2013  07:19:00       12.695       -9.063       24.244       21.594       39.250       29.570      466.282     1540.587      874.391        0.186        0.144       15.598       29.925        3.681      341.503       16.260      857.185
05/21/2013  07:20:00       21.323       32.007       41.288       31.164       33.685       27.333      971.193     1134.651      747.105        0.302        0.143       38.460       15.301        0.158      341.533       16.311      857.155
05/21/2013  07:21:00       48.943       72.700       68.752       56.199       42.476       30.619     3158.311     1804.189      937.525        0.915        0.295       87.640       19.116        0.048      341.240       15.816      857.105
05/21/2013  07:22:00       84.961        7.706       30.197       66.388       47.851       44.968     4407.315     2289.715     2022.158        0.845        0.436       85.310       42.720        0.251      341.265       15.856      857.106
05/21/2013  07:23:00       42.254       49.199       76.308       48.794       40.384       28.118     2380.879     1630.850      790.618        0.741        0.240       64.853       28.621        0.195      341.454       16.178      857.147
05/21/2013  07:24:00       32.778       27.356       33.816       43.422       56.801       31.064     1885.502     3226.381      964.992        0.452        0.304       42.694       27.640        0.419      341.724       16.634      857.170
05/21/2013  07:25:00      163.006       74.181       25.258       79.800       56.692       41.460     6368.036     3213.997     1718.966        2.200        0.565      179.091       29.526        0.027      341.472       16.206      857.163
05/21/2013  07:26:00      153.358      102.608       31.336       47.568       46.381       48.892     2262.704     2151.213     2390.442        2.092        0.340      184.518       28.951        0.025      341.506       16.263      857.151
05/21/2013  07:27:00      161.062       97.866       21.948       52.929       52.180       37.413     2801.475     2722.755     1399.718        2.146        0.346      188.464       27.278        0.021      341.510       16.272      857.164
05/21/2013  07:28:00      101.825       40.065       32.952       59.878       49.522       47.068     3585.359     2452.406     2215.422        1.065        0.413      109.424       33.436        0.093      341.581       16.393      857.187
05/21/2013  07:29:00       70.554       49.530       61.201       59.221       40.968       37.060     3507.128     1678.409     1373.448        0.887        0.328       86.204       31.800        0.136      341.681       16.562      857.196
05/21/2013  07:30:00       64.471       81.795       89.027       56.879       44.411       42.739     3235.234     1972.319     1826.646        1.290        0.352      104.148       38.811        0.139      341.713       16.615      857.210
05/21/2013  07:31:00       84.484       79.459       40.353       81.344       45.702       57.459     6616.808     2088.713     3301.489        1.354        0.600      115.980       56.143        0.234      341.502       16.258      857.212
05/21/2013  07:32:00      123.568       73.400       25.090       78.220       56.035       49.446     6118.305     3139.898     2444.865        1.649        0.585      143.725       40.583        0.080      341.620       16.456      857.158
05/21/2013  07:33:00      211.435      103.722       43.679       76.754       69.193       52.326     5891.109     4787.643     2738.038        3.539        0.671      235.506       41.999        0.032      341.559       16.353      857.107
05/21/2013  07:34:00      109.738       53.367       28.261       91.657       71.061       42.530     8401.005     5049.733     1808.816        1.547        0.763      122.026       35.307        0.084      341.509       16.270      857.147
05/21/2013  07:35:00       63.223       40.978       37.862       55.201       29.936       33.639     3047.161      896.148     1131.571        0.609        0.254       75.342       27.309        0.131      341.542       16.326      857.187
05/21/2013  07:36:00       74.501       71.332       61.626       38.787       29.124       28.038     1504.451      848.201      786.105        0.879        0.157      103.144        8.883        0.007      341.524       16.297      857.140
05/21/2013  07:37:00       80.824       32.476       14.996       50.201       30.260       41.166     2520.113      915.670     1694.625        0.647        0.257       87.105       16.570        0.036      341.520       16.289      857.155
05/21/2013  07:38:00      -12.469        0.909       18.201       27.913       47.625       27.375      779.129     2268.112      749.374        0.214        0.190       12.502       19.495        2.431      341.577       16.386      857.245
05/21/2013  07:39:00       18.735       60.975       -4.251       54.023       25.207       21.551     2918.513      635.414      464.429        0.405        0.201       63.789        7.400        0.013      341.511       16.274      857.270
05/21/2013  07:40:00       46.974       66.878       -8.021       26.128       21.253       20.254      682.686      451.701      410.220        0.414        0.077       81.726       13.577        0.028      341.516       16.281      857.264
05/21/2013  07:41:00       74.382       65.156        1.648       33.485       30.097       34.136     1121.238      905.826     1165.291        0.649        0.160       98.884       25.246        0.065      341.462       16.191      857.197
05/21/2013  07:42:00       85.190       70.511       26.804       33.981       25.973       29.417     1154.732      674.582      865.386        0.782        0.135      110.586       18.853        0.029      341.478       16.217      857.166
05/21/2013  07:43:00       81.652       40.891       18.821       29.672       30.570       23.651      880.454      934.540      559.378        0.553        0.119       91.318       17.692        0.038      341.505       16.263      857.203
05/21/2013  07:44:00       13.547       11.271       15.354       22.723       23.104       18.048      516.342      533.778      325.736        0.096        0.069       17.622       11.675        0.439      341.512       16.278      857.232
05/21/2013  07:45:00       -4.235       16.414        6.907       15.491       14.500       12.783      239.982      210.236      163.396        0.047        0.031       16.952       10.348        0.373      341.436       16.147      857.297
05/21/2013  07:46:00        4.678       28.660       18.880       31.031       22.094       20.144      962.952      488.157      405.776        0.153        0.093       29.039       20.869        0.516      341.303       15.924      857.303
05/21/2013  07:47:00      125.922       66.877       23.829       32.431       24.484       24.899     1051.777      599.483      619.976        1.158        0.114      142.580       14.660        0.011      341.373       16.040      857.234
05/21/2013  07:48:00       85.166       73.468       49.537       51.513       39.834       35.313     2653.555     1586.733     1247.007        1.029        0.274      112.476       31.919        0.081      341.409       16.101      857.204
05/21/2013  07:49:00       22.170       -1.610       24.903       34.787       29.446       17.921     1210.137      867.051      321.176        0.176        0.120       22.229       18.528        0.695      341.523       16.294      857.231
05/21/2013  07:50:00       32.035        6.410       18.279       13.913       36.347       17.913      193.558     1321.092      320.883        0.162        0.092       32.670       19.392        0.352      341.551       16.342      857.259
05/21/2013  07:51:00       10.380       27.491       44.401       23.784       24.608       15.092      565.696      605.542      227.761        0.212        0.070       29.385       16.052        0.298      341.576       16.384      857.209
05/21/2013  07:52:00      -19.386       29.850        8.229       17.817       18.091       20.756      317.432      327.274      430.816        0.120        0.054       35.593       13.030        0.134      341.546       16.332      857.171
05/21/2013  07:53:00       -5.476       22.636        9.108       14.935       19.632       13.527      223.055      385.426      182.982        0.071        0.040       23.289        9.153        0.154      341.583       16.397      857.142
05/21/2013  07:54:00       28.885       40.216        3.332       24.471       13.127       13.730      598.827      172.323      188.510        0.171        0.048       49.514       13.213        0.071      341.500       16.253      857.099
05/21/2013  07:55:00       47.280       39.817        4.191        9.905        8.909        9.617       98.119       79.375       92.484        0.205        0.013       61.813        5.582        0.008      341.498       16.253      857.053
05/21/2013  07:56:00       12.032       54.114       -6.782       21.368        7.900        9.998      456.604       62.404       99.964        0.187        0.031       55.435       10.211        0.034      341.499       16.252      857.046
05/21/2013  07:57:00      -29.100       13.792       -0.435       16.540       21.899       15.396      273.586      479.584      237.040        0.101        0.050       32.203       14.644        0.207      341.559       16.356      857.085
05/21/2013  07:58:00      -31.347       62.334        3.467       22.069       20.771       20.745      487.034      431.414      430.352        0.311        0.067       69.772       15.963        0.052      341.610       16.441      857.067
05/21/2013  07:59:00      -10.146      -50.907       -6.573       14.573       55.473       16.988      212.371     3077.252      288.577        0.316        0.179       51.909       28.204        0.295      341.563       16.363      857.100
05/21/2013  08:00:00      -34.592     -154.436      -10.278       24.245       35.667       19.829      587.827     1272.147      393.190        1.370        0.113      158.262       17.240        0.012      341.497       16.251      857.159
05/21/2013  08:01:00      -49.503     -118.451      -11.050       19.977       29.790       15.038      399.075      887.433      226.133        0.906        0.076      128.379       10.784        0.007      341.548       16.338      857.158
05/21/2013  08:02:00     -141.595      -72.452       -9.099       44.808       22.283       15.929     2007.799      496.547      253.727        1.407        0.138      159.055       10.037        0.004      341.535       16.316      857.134
05/21/2013  08:03:00     -137.009      -68.906       -7.206       53.234       35.731       26.405     2833.826     1276.725      697.205        1.419        0.240      153.360       21.483        0.020      341.458       16.183      857.092
05/21/2013  08:04:00     -184.934      -17.273      -13.117       59.244       33.985       24.092     3509.875     1154.999      580.440        1.996        0.262      185.739       25.658        0.019      341.587       16.402      857.035
05/21/2013  08:05:00     -155.208      -24.981       -7.986       57.656       37.611       30.037     3324.161     1414.604      902.226        1.521        0.282      157.205       28.997        0.034      341.560       16.355      857.019
05/21/2013  08:06:00     -164.721      -42.982       -5.228       57.612       54.103       30.072     3319.182     2927.189      904.348        1.808        0.358      170.237       32.880        0.037      341.478       16.217      857.024
05/21/2013  08:07:00     -152.168      -81.466       -1.308       73.094       45.758       33.188     5342.681     2093.818     1101.452        1.916        0.427      172.603       34.669        0.040      341.575       16.379      857.031
05/21/2013  08:08:00      -70.639      -76.032       -0.327       65.264       35.635       27.122     4259.434     1269.869      735.628        0.852        0.313      103.782       28.985        0.078      341.632       16.480      857.042
05/21/2013  08:09:00      -99.529     -109.365       -4.308       36.538       27.296       26.584     1335.054      745.045      706.715        1.234        0.139      147.874       22.262        0.023      341.705       16.603      857.030
05/21/2013  08:10:00     -105.631     -111.075       -5.330       35.044       38.159       24.658     1228.065     1456.113      608.013        1.341        0.165      153.283       18.908        0.015      341.749       16.680      857.031
05/21/2013  08:11:00      -45.148      -65.507        3.528       42.982       33.930       30.282     1847.418     1151.267      916.991        0.513        0.196       79.558       25.278        0.101      341.825       16.808      856.995
05/21/2013  08:12:00      -75.562      -79.961       -0.157       53.483       31.476       26.016     2860.447      990.745      676.839        0.831        0.226      110.016       25.281        0.053      341.930       16.985      856.962
05/21/2013  08:13:00     -167.029      -88.647       -3.478       43.845       32.709       26.779     1922.396     1069.893      717.123        1.974        0.185      189.095       17.333        0.008      341.924       16.974      856.945
05/21/2013  08:14:00     -158.516      -99.851        2.986       64.115       43.184       30.444     4110.695     1864.847      926.817        2.100        0.345      187.343       30.259        0.026      342.003       17.107      856.944
05/21/2013  08:15:00      -98.416      -41.854       13.658       88.249       46.236       31.901     7787.898     2137.813     1017.656        1.128        0.547      106.946       45.688        0.183      342.028       17.152      856.936
05/21/2013  08:16:00      -80.358      -75.378        9.978       60.657       53.326       31.504     3679.269     2843.643      992.484        0.988        0.376      110.178       31.843        0.084      342.014       17.126      856.898
05/21/2013  08:17:00     -117.498     -112.961        0.003       64.681       65.184       38.250     4183.696     4248.935     1463.087        1.823        0.495      162.990       35.696        0.048      341.991       17.088      856.865
05/21/2013  08:18:00     -126.676     -109.045       -9.300       56.374       47.952       32.109     3178.048     2299.391     1030.962        1.726        0.325      167.146       27.416        0.027      342.111       17.291      856.811
05/21/2013  08:19:00     -111.123      -45.875       -6.634       45.965       28.103       20.582     2112.753      789.768      423.628        0.891        0.166      120.220       20.906        0.030      342.129       17.325      856.747
05/21/2013  08:20:00     -110.761      -77.570       -2.595       38.162       28.796       21.253     1456.342      829.184      451.685        1.051        0.137      135.223       18.210        0.018      342.170       17.393      856.760
05/21/2013  08:21:00     -155.676     -103.540      -10.502       37.494       34.058       24.727     1405.829     1159.969      611.400        1.912        0.159      186.964       21.950        0.014      342.273       17.566      856.789
05/21/2013  08:22:00      -94.136      -73.443        4.890       51.135       45.367       25.057     2614.839     2058.156      627.873        0.979        0.265      119.396       23.327        0.038      342.360       17.714      856.778
05/21/2013  08:23:00      -96.913      -93.197       -0.944       80.522       92.973       40.427     6483.734     8643.983     1634.327        1.742        0.838      134.454       50.609        0.142      342.583       18.094      856.744
05/21/2013  08:24:00      -76.187      -81.557       25.887       77.878       73.632       54.299     6064.987     5421.664     2948.390        1.378        0.722      111.606       39.885        0.128      342.809       18.478      856.702
05/21/2013  08:25:00      -53.927      -75.217        6.709       56.458       89.399       36.532     3187.537     7992.135     1334.564        1.056        0.626       92.552       43.788        0.224      343.001       18.803      856.666
05/21/2013  08:26:00      -18.751     -163.892       -7.748      108.086       99.367       60.942    11682.548     9873.723     3713.966        2.627        1.264      164.961       61.461        0.139      343.139       19.038      856.668
05/21/2013  08:27:00     -133.754     -154.125      -11.503      100.867       55.713       34.590    10174.222     3103.975     1196.492        2.812        0.724      204.070       31.140        0.023      343.093       18.961      856.643
05/21/2013  08:28:00      -83.074      -71.707       12.509       93.392       60.707       41.422     8722.053     3685.348     1715.798        1.316        0.706      109.741       43.296        0.156      343.121       19.009      856.637
05/21/2013  08:29:00     -125.165      -85.673       13.934      109.174       69.704       51.167    11918.980     4858.637     2618.045        2.129        0.970      151.678       52.969        0.122      343.133       19.028      856.625
05/21/2013  08:30:00       31.006     -165.973       25.112      124.835      102.433       68.529    15583.723    10492.563     4696.169        2.995        1.539      168.844       70.564        0.175      343.272       19.264      856.646
05/21/2013  08:31:00      101.643     -180.510       18.850      113.738      127.528       72.936    12936.297    16263.500     5319.716        3.889        1.726      207.160       69.371        0.112      343.374       19.437      856.625
05/21/2013  08:32:00       45.532     -143.886        8.184      100.491      143.583       88.467    10098.390    20616.024     7826.392        3.068        1.927      150.919       92.837        0.378      343.382       19.453      856.588
05/21/2013  08:33:00      -99.860     -106.182       14.726      139.103      103.892       59.274    19349.667    10793.568     3513.412        2.755        1.683      145.763       55.306        0.144      343.404       19.490      856.659
05/21/2013  08:34:00     -112.964      -95.419       26.838      103.785       63.811       51.679    10771.298     4071.814     2670.670        2.005        0.876      147.871       57.398        0.151      343.426       19.527      856.649
05/21/2013  08:35:00     -241.391     -148.600       12.697      142.815      103.175       61.569    20396.121    10645.084     3790.752        5.767        1.742      283.464       61.394        0.047      343.355       19.405      856.628
05/21/2013  08:36:00     -224.743     -145.966       -4.578      168.335      121.602       67.842    28336.660    14787.135     4602.474        5.977        2.386      267.984       85.514        0.102      343.432       19.537      856.626
05/21/2013  08:37:00     -297.519     -217.671        1.207      158.303      154.665       84.300    25059.955    23921.302     7106.556        9.598        2.804      368.644       93.448        0.064      343.389       19.462      856.679
05/21/2013  08:38:00     -326.127     -246.185       -9.648      122.804      122.472       59.461    15080.812    14999.354     3535.632       10.033        1.681      408.615       55.329        0.018      343.317       19.339      856.726
05/21/2013  08:39:00     -126.786     -113.637        8.834       88.909       86.731       53.643     7904.778     7522.342     2877.583        2.368        0.915      170.259       51.359        0.091      343.409       19.499      856.764
05/21/2013  08:40:00     -156.991     -102.568        3.433      119.195      103.141       59.922    14207.354    10638.041     3590.644        3.180        1.422      187.527       65.110        0.121      343.463       19.588      856.742
05/21/2013  08:41:00     -139.422      -51.379       11.439      109.054       93.220       48.780    11892.683     8690.005     2379.464        2.258        1.148      148.588       48.198        0.105      343.544       19.729      856.703
05/21/2013  08:42:00     -183.617      -34.574       10.679      150.584       88.186       55.058    22675.571     7776.847     3031.415        3.425        1.674      186.843       63.452        0.115      343.549       19.736      856.689
05/21/2013  08:43:00     -220.249     -110.993       -7.791      139.104      105.466       63.853    19349.926    11123.141     4077.216        4.771        1.728      246.635       64.429        0.068      343.542       19.723      856.695
05/21/2013  08:44:00     -247.218     -200.932       -1.271      174.110      135.520       90.849    30314.276    18365.585     8253.629        7.920        2.847      318.576       99.324        0.097      343.543       19.726      856.714
05/21/2013  08:45:00     -206.711     -113.316       -8.642      137.635       93.210       62.881    18943.511     8688.195     3953.990        4.361        1.579      235.733       60.991        0.067      343.496       19.644      856.722
05/21/2013  08:46:00     -305.917     -162.407      -20.165      127.538      123.095       57.895    16265.837    15152.394     3351.864        7.756        1.739      346.354       58.477        0.029      343.440       19.549      856.716
05/21/2013  08:47:00     -186.865     -131.757       11.785      115.388      110.073       57.014    13314.408    12116.120     3250.582        4.054        1.434      228.645       53.698        0.055      343.542       19.723      856.719
05/21/2013  08:48:00     -192.139     -129.690       -9.796       95.667       47.380       27.881     9152.222     2244.861      777.353        3.300        0.609      231.812       28.720        0.015      343.406       19.493      856.722
05/21/2013  08:49:00      -99.220      -75.375       10.406       74.714       61.917       37.591     5582.142     3833.681     1413.117        1.323        0.541      124.603       40.040        0.103      343.713       20.019      856.725
05/21/2013  08:50:00     -175.526      -98.397        5.927       96.976       67.762       42.621     9404.430     4591.693     1816.554        2.817        0.791      201.225       45.811        0.052      343.617       19.851      856.740
05/21/2013  08:51:00     -228.851     -198.012       -3.472      133.144       92.932       76.328    17727.453     8636.301     5825.943        6.189        1.609      302.624       71.807        0.056      343.441       19.553      856.739
05/21/2013  08:52:00      -99.256     -116.202        4.879      120.510       69.635       50.551    14522.566     4849.002     2555.422        2.265        1.096      152.822       38.698        0.064      343.544       19.729      856.699
05/21/2013  08:53:00     -214.029     -198.557       -8.035      140.656      140.669       58.184    19784.130    19787.733     3385.398        6.412        2.148      291.948       66.888        0.052      343.551       19.738      856.691
05/21/2013  08:54:00     -165.405     -177.090       -5.504      145.972      115.117       76.146    21307.844    13251.952     5798.172        4.955        2.018      242.322       68.180        0.079      343.538       19.717      856.713
05/21/2013  08:55:00     -184.510     -112.547       16.932      108.496       94.377       58.949    11771.408     8907.079     3475.038        3.557        1.208      216.127       61.629        0.081      343.551       19.739      856.722
05/21/2013  08:56:00     -170.804     -146.060       -9.593      119.477      118.450       51.114    14274.774    14030.325     2612.622        4.075        1.546      224.738       47.999        0.046      343.638       19.888      856.707
05/21/2013  08:57:00     -368.641      -40.486        3.895      170.218      107.623       77.353    28974.119    11582.761     5983.532        9.204        2.327      370.857       84.974        0.052      343.591       19.808      856.683
05/21/2013  08:58:00     -245.135      -84.342      -10.777      108.742      137.586       53.034    11824.825    18929.984     2812.630        5.044        1.678      259.239       52.379        0.041      343.564       19.760      856.687
05/21/2013  08:59:00     -269.042     -137.125      -11.364       89.090       86.843       49.384     7936.960     7541.628     2438.782        5.461        0.896      301.972       41.766        0.019      343.565       19.763      856.685
05/21/2013  09:00:00     -304.845     -204.932      -11.643      129.163      122.197       64.116    16683.193    14932.035     4110.850        8.539        1.786      367.325       66.475        0.033      343.588       19.800      856.660
05/21/2013  09:01:00     -167.527     -152.069       -4.415       96.635       70.111       46.686     9338.395     4915.563     2179.563        3.382        0.822      226.252       45.203        0.040      343.608       19.837      856.668
05/21/2013  09:02:00     -253.490     -140.741        0.447       88.577      115.579       56.366     7845.910    13358.462     3177.088        5.422        1.219      289.939       56.160        0.038      343.672       19.945      856.648
05/21/2013  09:03:00     -179.264     -129.713        3.444      100.888       98.074       52.735    10178.315     9618.592     2780.941        3.577        1.129      221.271       53.567        0.059      343.707       20.006      856.608
05/21/2013  09:04:00      -92.821      -29.338        0.015       49.631       68.112       34.892     2463.285     4639.250     1217.425        0.890        0.416       97.347       30.273        0.097      343.773       20.120      856.554
05/21/2013  09:05:00     -145.616        4.339      -12.007      100.301       87.563       32.481    10060.355     7667.326     1055.045        2.007        0.939      145.681       40.263        0.076      343.834       20.223      856.518
05/21/2013  09:06:00      -99.205     -151.377        0.273       60.820       98.001       36.174     3699.085     9604.165     1308.590        2.368        0.731      180.988       31.919        0.031      343.859       20.266      856.601
05/21/2013  09:07:00     -152.283     -173.554       -7.010      101.277      102.225       41.995    10256.959    10449.947     1763.572        3.791        1.124      230.892       41.645        0.033      343.887       20.312      856.571
05/21/2013  09:08:00     -257.701     -199.228        1.453      145.354      127.800       68.238    21127.892    16332.890     4656.401        7.410        2.106      325.733       71.381        0.048      343.889       20.317      856.547
05/21/2013  09:09:00     -379.541     -113.012       -6.599      223.557      148.611       75.761    49977.754    22085.261     5739.740       11.732        3.890      396.009       84.425        0.045      343.945       20.410      856.521
05/21/2013  09:10:00     -451.738      -96.817       -5.641      165.164      122.853       67.500    27279.303    15092.783     4556.289       13.019        2.346      461.997       79.135        0.029      343.560       19.754      856.450
05/21/2013  09:11:00     -268.891      -36.473        1.195      146.344       85.207       56.779    21416.708     7260.266     3223.866        5.276        1.595      271.353       54.361        0.040      343.670       19.942      856.417
05/21/2013  09:12:00      -35.086     -127.727        3.980      110.183       87.972       48.369    12140.399     7739.002     2339.567        1.989        1.111      132.459       54.158        0.167      343.831       20.217      856.438
05/21/2013  09:13:00      -79.960      -75.517       22.562      102.032       64.625       39.351    10410.456     4176.400     1548.470        1.437        0.807      109.984       48.797        0.197      344.098       20.675      856.450
05/21/2013  09:14:00      -35.284      -94.188       -0.871       75.375       79.086       33.549     5681.316     6254.538     1125.541        1.159        0.653      100.580       20.773        0.043      343.975       20.466      856.458
05/21/2013  09:15:00     -228.651     -130.909      -14.038       88.837       60.652       42.259     7891.964     3678.714     1785.796        4.148        0.668      263.474       37.339        0.020      343.754       20.084      856.378
05/21/2013  09:16:00      -23.784      -80.412       12.181       43.973       62.175       32.155     1933.586     3865.730     1033.961        0.701        0.342       83.856       14.632        0.030      343.923       20.376      856.340
05/21/2013  09:17:00     -134.487     -151.819       -2.782      122.783      143.901       69.759    15075.546    20707.422     4866.359        4.089        2.032      202.819       69.764        0.118      343.946       20.415      856.347
05/21/2013  09:18:00     -189.320     -161.499        1.827      164.205      116.366       69.131    26963.184    13541.013     4779.087        5.360        2.264      248.845       78.686        0.100      344.196       20.841      856.323
05/21/2013  09:19:00     -147.649      -41.933       14.595      108.219       95.909       53.350    11711.306     9198.481     2846.205        2.376        1.188      153.489       55.323        0.130      344.254       20.941      856.288
05/21/2013  09:20:00     -108.655      -83.347       11.589       87.677       91.522       40.733     7687.179     8376.337     1659.175        1.830        0.886      136.940       37.284        0.074      344.094       20.667      856.256
05/21/2013  09:21:00     -122.330     -144.414       -0.065      103.679      115.710       55.077    10749.352    13388.764     3033.515        3.149        1.359      189.262       45.426        0.058      344.083       20.648      856.262
05/21/2013  09:22:00     -284.687     -232.406       -3.005      198.712      161.222       78.326    39486.309    25992.414     6134.943       10.333        3.581      367.504       90.402        0.061      343.951       20.422      856.258
05/21/2013  09:23:00     -225.391     -174.419        2.492      131.546      132.956       63.057    17304.447    17677.420     3976.168        6.009        1.948      284.996       72.941        0.066      343.862       20.271      856.238
05/21/2013  09:24:00     -171.430      -46.353        2.345      122.330       93.838       53.371    14964.708     8805.555     2848.439        2.908        1.331      177.586       62.504        0.124      344.181       20.815      856.194
05/21/2013  09:25:00      -97.827      -19.343       12.833       94.531       67.149       41.946     8936.132     4508.982     1759.462        1.265        0.760       99.721       40.868        0.168      344.179       20.814      856.180
05/21/2013  09:26:00     -179.877     -168.013        1.947      163.041      165.189       75.753    26582.237    27287.568     5738.481        6.009        2.980      246.139       90.847        0.136      344.033       20.563      856.168
05/21/2013  09:27:00     -193.302     -139.929        8.392      165.667      102.539       65.313    27445.444    10514.342     4265.846        4.961        2.111      238.633       71.572        0.090      343.975       20.462      856.125
05/21/2013  09:28:00     -245.224      -69.706        2.990      224.010      135.129       68.308    50180.693    18259.940     4666.030        6.904        3.655      254.938       57.829        0.051      344.131       20.729      856.132
05/21/2013  09:29:00     -353.668     -226.985       -9.461      133.616      141.760       80.926    17853.365    20096.020     6549.096       11.059        2.225      420.242       69.779        0.028      343.907       20.346      856.149
05/21/2013  09:30:00     -235.037     -210.558       -3.048      171.097      139.444       77.729    29274.085    19444.688     6041.742        7.716        2.738      315.558       89.891        0.081      343.851       20.251      856.149
05/21/2013  09:31:00     -227.409     -246.889        1.469      110.688      186.920       61.694    12251.725    34939.233     3806.133        8.182        2.550      335.662       65.059        0.038      343.899       20.331      856.141
05/21/2013  09:32:00     -238.413     -192.230        7.789      148.297      116.015       59.255    21992.107    13459.445     3511.112        6.640        1.948      306.257       41.129        0.018      343.880       20.301      856.096
05/21/2013  09:33:00     -230.699     -270.644       -6.968      125.374      131.074       59.478    15718.557    17180.420     3537.659        8.147        1.822      355.626       52.501        0.022      343.779       20.127      856.041
05/21/2013  09:34:00     -312.219     -135.466       -4.474      186.897      124.810       66.790    34930.356    15577.526     4460.951        8.540        2.748      340.341       81.171        0.057      343.913       20.355      855.973
05/21/2013  09:35:00     -169.323     -154.978       -1.966      102.495       92.228       51.514    10505.172     8506.029     2653.690        3.717        1.083      229.539       49.494        0.046      343.896       20.328      855.952
05/21/2013  09:36:00     -297.965     -173.518       -8.446      128.023       95.130       61.588    16389.954     9049.648     3793.054        7.409        1.462      344.806       64.774        0.035      343.880       20.299      855.907
05/21/2013  09:37:00     -215.837      -82.551       10.456      160.752       95.124       60.622    25841.347     9048.626     3674.966        4.603        1.928      231.085       66.523        0.083      343.931       20.389      855.924
05/21/2013  09:38:00     -187.106     -187.497       -4.348      123.284      135.379       65.507    15199.049    18327.556     4291.201        5.399        1.891      264.884       53.618        0.041      343.892       20.321      855.905
05/21/2013  09:39:00     -276.843     -221.703        2.534      140.603      117.377       63.343    19769.279    13777.264     4012.366        8.167        1.878      354.675       74.947        0.045      344.022       20.543      855.903
05/21/2013  09:40:00     -194.910     -222.211       -4.183      132.961      127.836       74.064    17678.749    16342.118     5485.440        6.344        1.975      295.580       75.267        0.065      344.017       20.536      855.906
05/21/2013  09:41:00     -158.112     -233.808       -8.647      146.507      112.896       74.413    21464.401    12745.615     5537.263        5.974        1.987      282.251       64.152        0.052      343.980       20.470      855.877
05/21/2013  09:42:00     -243.672     -122.246       19.691      156.174      116.832       74.353    24390.377    13649.609     5528.337        5.913        2.178      272.618       87.397        0.103      344.131       20.731      855.864
05/21/2013  09:43:00     -276.720     -241.441        4.969      203.720      200.466       83.805    41501.753    40186.504     7023.350       11.178        4.436      367.244      106.805        0.085      343.973       20.460      855.845
05/21/2013  09:44:00     -379.310     -255.938       -2.730      162.054      128.069       78.423    26261.413    16401.763     6150.107       12.909        2.441      457.581       83.957        0.034      343.902       20.339      855.842
05/21/2013  09:45:00     -463.759     -304.540       -3.828      192.557      162.845      104.478    37078.258    26518.530    10915.706       19.116        3.726      554.813      118.695        0.046      343.864       20.272      855.814
05/21/2013  09:46:00     -436.932     -257.219       -6.996      213.743      192.677       98.541    45685.871    37124.432     9710.422       17.480        4.626      507.021      114.885        0.051      343.870       20.284      855.782
05/21/2013  09:47:00     -151.408      -76.364        7.759      132.194       98.225       63.932    17475.283     9648.110     4087.349        3.001        1.561      169.576       65.921        0.151      344.124       20.719      855.771
05/21/2013  09:48:00     -185.693      -70.371      -11.690      112.398      119.765       57.132    12633.303    14343.651     3264.101        3.490        1.512      198.579       51.167        0.066      344.106       20.687      855.769
05/21/2013  09:49:00     -154.577     -147.176        7.938      105.703       95.468       67.599    11173.163     9114.205     4569.618        3.523        1.243      213.436       62.961        0.087      344.252       20.937      855.784
05/21/2013  09:50:00     -319.474     -121.514       -4.085      167.254      124.439       66.833    27974.047    15484.980     4466.687        8.238        2.396      341.803       78.568        0.053      344.246       20.924      855.735
05/21/2013  09:51:00     -281.096     -143.168       -4.682      128.303      165.896       63.921    16461.729    27521.497     4085.950        7.379        2.403      315.455       70.134        0.049      344.050       20.591      855.665
05/21/2013  09:52:00     -284.660      -98.523       -6.546      175.491      121.910       68.243    30797.185    14861.996     4657.113        7.054        2.516      301.228       73.311        0.059      344.161       20.781      855.634
05/21/2013  09:53:00     -405.850      -61.819      -26.102      156.876      124.911       66.601    24610.149    15602.813     4435.669       10.692        2.232      410.531       74.581        0.033      344.071       20.625      855.606
05/21/2013  09:54:00     -379.809     -110.376      -15.006      164.232      122.811       64.361    26972.093    15082.664     4142.362       10.142        2.310      395.522       72.868        0.034      344.163       20.782      855.606
05/21/2013  09:55:00     -269.815     -102.127       -5.288       77.343      106.980       55.099     5981.866    11444.628     3035.936        5.186        1.023      288.496       46.748        0.026      344.315       21.043      855.612
05/21/2013  09:56:00     -165.109     -130.582       -1.078      127.030       82.520       46.404    16136.507     6809.558     2153.365        3.470        1.255      210.506       49.556        0.055      344.036       20.568      855.622
05/21/2013  09:57:00     -200.555     -224.128        0.403      157.489      185.085       65.565    24802.764    34256.531     4298.801        7.689        3.168      300.759       80.292        0.071      344.159       20.777      855.658
05/21/2013  09:58:00     -235.725     -211.733      -19.160      131.767       97.006       63.336    17362.509     9410.243     4011.451        6.577        1.539      316.855       54.534        0.030      344.245       20.924      855.653
05/21/2013  09:59:00     -179.356     -120.971       -0.136      126.901      107.111       64.553    16103.850    11472.694     4167.072        3.927        1.587      216.339       68.815        0.101      344.277       20.980      855.650
05/21/2013  10:00:00     -150.242      -89.645       -2.637      107.333       80.380       50.297    11520.418     6461.016     2529.780        2.556        1.026      174.954       56.295        0.104      344.409       21.206      855.633
05/21/2013  10:01:00     -164.000      -24.541       15.175      160.717      100.698       55.790    25830.015    10140.081     3112.551        3.340        1.954      165.826       60.052        0.131      344.440       21.259      855.624
05/21/2013  10:02:00     -225.923      -70.262       13.941      163.450       87.277       57.959    26715.812     7617.243     3359.255        4.692        1.885      236.597       66.670        0.079      344.333       21.074      855.584
05/21/2013  10:03:00     -154.828     -119.713       27.746      220.899      136.317       82.464    48796.337    18582.396     6800.233        5.661        3.709      195.712       84.886        0.188      344.497       21.355      855.578
05/21/2013  10:04:00        2.256     -294.585      -27.790      215.671      161.759       79.685    46514.091    26166.010     6349.660        8.328        3.951      294.594       79.820        0.073      344.493       21.347      855.592
05/21/2013  10:05:00      110.525     -257.943      -24.634      172.337      135.644       80.766    29700.138    18399.190     6523.104        6.698        2.731      280.625       70.833        0.064      344.323       21.057      855.531
05/21/2013  10:06:00     -219.045     -132.213       -7.188      124.381      114.148       52.906    15470.596    13029.794     2799.009        4.840        1.565      255.853       66.075        0.067      344.491       21.343      855.555
05/21/2013  10:07:00     -221.507     -238.124       -4.120      169.342      115.688       74.787    28676.723    13383.600     5593.142        7.671        2.383      325.221       81.078        0.062      344.312       21.039      855.570
05/21/2013  10:08:00     -298.524      -97.193       -0.692      160.203      139.591       78.528    25665.091    19485.592     6166.648        7.493        2.566      313.947       85.370        0.074      344.487       21.339      855.559
05/21/2013  10:09:00     -246.100     -157.898        3.088      161.278      113.883       65.222    26010.633    12969.342     4253.850        6.436        2.162      292.398       64.535        0.049      344.314       21.042      855.577
05/21/2013  10:10:00     -246.467     -267.270      -12.566      144.224      135.618       74.777    20800.519    18392.113     5591.577        8.855        2.239      363.565       71.583        0.039      344.186       20.821      855.552
05/21/2013  10:11:00     -236.959     -160.928        9.570      199.019      111.613       82.857    39608.547    12457.531     6865.344        7.052        2.947      286.439      104.099        0.132      344.437       21.252      855.583
05/21/2013  10:12:00     -342.491     -241.295       -9.299      158.840      132.134       80.803    25230.239    17459.295     6529.195       11.240        2.461      418.955       76.853        0.034      344.239       20.914      855.618
05/21/2013  10:13:00     -407.852     -229.132       -3.741      175.903      134.124       78.525    30941.894    17989.133     6166.133       13.697        2.755      467.808       83.513        0.032      344.322       21.056      855.626
05/21/2013  10:14:00     -216.506     -107.685       10.457      173.961      163.669       85.895    30262.270    26787.548     7378.011        6.149        3.221      241.807       79.079        0.107      344.672       21.655      855.673
05/21/2013  10:15:00       10.271      -56.218       17.227      117.458       68.048       54.631    13796.371     4630.588     2984.536        1.248        1.071       57.149       30.499        0.285      344.645       21.610      855.645
05/21/2013  10:16:00     -117.527     -110.692       -9.797      134.272      118.553       52.054    18029.071    14054.755     2709.587        3.047        1.740      161.448       18.373        0.013      344.155       20.773      855.593
05/21/2013  10:17:00     -281.025     -179.207        0.426      131.093      115.150       57.913    17185.411    13259.522     3353.918        7.244        1.690      333.302       64.158        0.037      344.048       20.586      855.649
05/21/2013  10:18:00     -203.038      -94.124       -4.499      125.145       80.258       50.731    15661.188     6441.407     2573.602        3.739        1.234      223.794       59.746        0.071      344.319       21.051      855.665
05/21/2013  10:19:00     -196.887      -37.714        3.937      136.234      122.359       45.257    18559.570    14971.722     2048.179        3.788        1.779      200.466       41.402        0.043      344.450       21.274      855.620
05/21/2013  10:20:00     -224.657      -97.427       25.379      180.914      137.728       86.528    32729.787    18968.924     7487.046        5.988        2.959      244.873      101.497        0.172      344.711       21.721      855.626
05/21/2013  10:21:00     -297.917      -72.148       -0.942      213.901      180.757       85.248    45753.802    32672.955     7267.249        8.981        4.285      306.529       88.124        0.083      344.538       21.425      855.578
05/21/2013  10:22:00     -476.307     -343.668      -17.288      250.062      225.963      116.004    62531.038    51059.193    13457.016       23.613        6.352      587.346      118.345        0.041      344.297       21.012      855.501
05/21/2013  10:23:00     -442.741     -271.356       -1.258      245.336      224.236      115.534    60189.997    50281.875    13348.100       19.671        6.191      519.282      120.592        0.054      344.305       21.027      855.500
05/21/2013  10:24:00     -551.798     -331.413      -19.581      230.413      155.141       83.031    53090.303    24068.754     6894.110       24.936        4.203      643.674       95.406        0.022      344.086       20.652      855.478
05/21/2013  10:25:00     -367.780     -332.328      -17.250      187.910      195.812       94.764    35310.266    38342.234     8980.170       16.430        4.132      495.685      102.866        0.043      344.329       21.066      855.451
05/21/2013  10:26:00     -311.997     -168.319        3.318      203.379      108.853       81.904    41362.868    11848.976     6708.185        9.279        2.996      354.504      108.031        0.093      344.397       21.184      855.461
05/21/2013  10:27:00     -477.883      -27.273      -43.316      170.394      120.335       65.987    29034.090    14480.484     4354.276       13.942        2.393      478.661       78.820        0.027      344.357       21.114      855.454
05/21/2013  10:28:00     -364.338     -213.521        0.982      162.221      148.429       82.284    26315.571    22031.131     6770.642       11.671        2.756      422.296       87.760        0.043      344.456       21.284      855.453
05/21/2013  10:29:00     -393.959     -255.015        9.143      211.952      156.309       90.744    44923.534    24432.399     8234.393       14.894        3.880      469.294       96.217        0.042      344.299       21.017      855.477
05/21/2013  10:30:00     -472.952     -296.392        5.612      237.497      248.000      114.307    56404.668    61503.807    13066.117       22.124        6.549      558.150      129.545        0.054      344.161       20.779      855.438
05/21/2013  10:31:00     -330.458     -353.167       -3.737      197.147      191.114      100.434    38866.765    36524.585    10087.034       15.969        4.274      483.662      101.590        0.044      344.235       20.908      855.407
05/21/2013  10:32:00     -470.576     -320.884        4.035      245.489      182.273      109.957    60264.672    33223.404    12090.465       21.498        5.279      569.568      106.899        0.035      344.238       20.911      855.385
05/21/2013  10:33:00     -433.331     -334.846      -19.854      211.947      157.549      110.743    44921.333    24821.569    12264.111       19.113        4.100      547.629      107.226        0.038      344.232       20.902      855.371
05/21/2013  10:34:00     -297.853     -138.668       -2.365      167.983      141.723       73.799    28218.414    20085.464     5446.243        8.084        2.688      328.550       83.115        0.064      344.647       21.610      855.333
05/21/2013  10:35:00     -415.752      -30.979      -17.900      203.474      193.077       99.082    41401.823    37278.733     9817.245       13.130        4.425      416.905      110.515        0.070      344.477       21.319      855.289
05/21/2013  10:36:00     -266.337     -179.641        0.578      195.130      181.805       84.254    38075.539    33052.998     7098.739        9.070        3.911      321.257       94.304        0.086      344.378       21.151      855.271
05/21/2013  10:37:00     -372.969     -169.039        0.759      209.316      146.143       78.010    43813.210    21357.649     6085.575       11.945        3.563      409.487       88.902        0.047      344.417       21.217      855.267
05/21/2013  10:38:00     -340.605     -230.697       -0.884      199.076      179.303      109.159    39631.109    32149.441    11915.642       12.645        4.185      411.379      108.244        0.069      344.219       20.879      855.283
05/21/2013  10:39:00     -334.962     -256.047       -5.111      203.177      121.765       83.310    41280.724    14826.790     6940.613       12.040        3.152      421.615      102.546        0.059      344.275       20.976      855.231
05/21/2013  10:40:00     -438.088     -219.374      -39.644      171.164      197.492       72.330    29297.046    39003.208     5231.604       15.756        3.677      489.945       68.307        0.019      344.380       21.154      855.219
05/21/2013  10:41:00     -348.220     -197.056       -7.567      218.931      124.277       80.332    47930.759    15444.854     6453.305       11.497        3.491      400.110      107.080        0.072      344.514       21.384      855.217
05/21/2013  10:42:00     -191.301     -245.364        0.686      133.264      159.257       62.409    17759.383    25362.778     3894.856        7.190        2.351      311.126       65.191        0.044      344.535       21.420      855.248
05/21/2013  10:43:00     -184.895     -150.105       -1.583       77.543       76.508       47.072     6012.847     5853.536     2215.793        3.540        0.704      238.155       27.998        0.014      344.591       21.514      855.197
05/21/2013  10:44:00     -202.893     -136.178       -8.812      115.835       90.058       50.760    13417.747     8110.381     2576.538        4.194        1.205      244.356       39.906        0.027      344.825       21.914      855.267
05/21/2013  10:45:00     -201.062     -103.101       10.664      198.842      105.871       75.861    39538.306    11208.771     5754.931        5.382        2.825      225.955       96.008        0.181      344.716       21.730      855.270
05/21/2013  10:46:00     -409.804     -188.480        3.848      239.635      215.382      103.635    57425.027    46389.216    10740.154       15.899        5.728      451.070      121.647        0.073      344.696       21.694      855.225
05/21/2013  10:47:00     -474.311     -329.824       -3.225      219.276      199.107      103.430    48081.942    39643.554    10697.809       21.607        4.921      577.715      110.721        0.037      344.292       21.005      855.315
05/21/2013  10:48:00     -577.035     -198.932      -33.395      187.665      227.840       82.429    35218.120    51910.943     6794.558       23.377        4.696      610.363       87.278        0.020      344.327       21.065      855.303
05/21/2013  10:49:00     -391.809      -93.149      -12.376      272.254      144.638       93.084    74122.069    20920.209     8664.551       13.300        5.185      402.730      114.404        0.081      344.543       21.435      855.274
05/21/2013  10:50:00     -243.038      -52.396        8.742      262.363      142.731       98.797    68834.373    20372.234     9760.858        8.041        4.948      248.622      129.062        0.269      344.821       21.909      855.307
05/21/2013  10:51:00     -477.686     -231.065      -16.760      256.800      257.458      110.350    65946.164    66284.450    12177.107       21.310        7.220      530.637      119.715        0.051      344.392       21.174      855.349
05/21/2013  10:52:00     -496.545     -295.311      -28.689      300.175      231.400      125.039    90105.037    53545.971    15634.627       24.690        7.964      577.724      142.976        0.061      344.407       21.200      855.341
05/21/2013  10:53:00     -419.411     -311.370      -19.049      248.159      166.440      115.642    61583.130    27702.247    13372.958       18.792        5.133      522.356      136.736        0.069      344.386       21.164      855.359
05/21/2013  10:54:00     -591.102     -109.180      -47.916      192.484      211.058       90.014    37050.227    44545.583     8102.552       22.664        4.485      601.100       88.496        0.022      344.150       20.762      855.244
05/21/2013  10:55:00     -515.438     -324.679       -8.580      285.953      239.198      129.250    81769.216    57215.836    16705.543       26.340        7.785      609.174      152.769        0.063      344.232       20.902      855.232
05/21/2013  10:56:00     -451.697      -98.793       -2.902      292.758      209.916      116.030    85707.124    44064.782    13463.006       17.849        7.162      462.375      140.128        0.092      344.409       21.204      855.175
05/21/2013  10:57:00     -448.164      -92.676        4.498      300.784      172.525       97.166    90471.308    29765.024     9441.208       16.954        6.484      457.646      102.378        0.050      344.549       21.443      855.147
05/21/2013  10:58:00     -524.695     -182.951      -11.515      242.721      171.944      106.922    58913.386    29564.694    11432.336       20.439        4.996      555.676      119.444        0.046      344.460       21.291      855.150
05/21/2013  10:59:00     -478.606     -365.696      -10.609      299.411      272.688      127.083    89646.670    74358.537    16150.204       27.150        9.008      602.326      129.826        0.046      344.244       20.924      855.224
05/21/2013  11:00:00     -373.886     -237.781       -1.228      165.089      180.896       86.549    27254.466    32723.394     7490.697       13.189        3.373      443.092       79.735        0.032      344.284       20.991      855.211
05/21/2013  11:01:00     -370.864     -235.945      -15.857      157.350      137.794       80.080    24759.062    18987.210     6412.842       12.180        2.508      439.557       84.162        0.037      344.308       21.031      855.160
05/21/2013  11:02:00     -480.216     -109.583      -40.526      232.508      220.293      101.650    54059.744    48528.956    10332.657       17.857        5.646      492.560      111.918        0.052      344.285       20.991      855.091
05/21/2013  11:03:00     -501.406     -307.159      -12.887      259.441      210.591      128.308    67309.624    44348.467    16462.819       23.699        6.406      588.009      113.280        0.037      344.471       21.310      855.064
05/21/2013  11:04:00     -348.193     -162.538        9.173      252.705      197.434      100.273    63859.575    38980.087    10054.664       13.029        5.645      384.261      122.733        0.102      344.428       21.235      855.011
05/21/2013  11:05:00     -437.344     -259.882       -4.514      253.492      186.849      104.344    64258.344    34912.542    10887.633       18.442        5.503      508.732      115.004        0.051      344.577       21.490      855.049
05/21/2013  11:06:00     -748.621     -211.034      -35.040      274.640      256.519      116.128    75427.176    65801.842    13485.772       38.042        7.736      777.797      123.289        0.025      344.447       21.268      855.118
05/21/2013  11:07:00     -363.382     -166.998       -6.259      270.802      201.645      100.175    73333.685    40660.721    10035.006       14.198        6.201      399.918      119.731        0.090      344.511       21.379      855.140
05/21/2013  11:08:00     -367.408     -137.057        1.901      230.232      198.446      101.845    53006.610    39380.707    10372.366       12.825        5.138      392.140      127.646        0.106      344.506       21.370      855.140
05/21/2013  11:09:00     -334.440     -277.241       -1.923      194.099      169.745       89.027    37674.335    28813.340     7925.741       13.155        3.721      434.411      101.420        0.055      344.562       21.466      855.119
05/21/2013  11:10:00     -447.985     -202.246      -23.999      304.339      183.420      107.053    92622.322    33642.839    11460.322       18.992        6.886      491.522      121.774        0.061      344.399       21.187      855.159
05/21/2013  11:11:00     -348.984     -285.741       14.838      257.487      174.527      116.027    66299.670    30459.842    13462.220       15.692        5.511      451.041      146.581        0.106      344.353       21.110      855.163
05/21/2013  11:12:00     -311.513     -245.731       -4.247      190.624      160.769       93.260    36337.396    25846.538     8697.392       11.415        3.544      396.767      108.290        0.074      344.513       21.381      855.176
05/21/2013  11:13:00     -473.038     -191.106      -25.998      335.073      264.219      121.186   112273.956    69811.702    14686.012       22.883        9.839      510.183      124.240        0.059      344.584       21.503      855.167
05/21/2013  11:14:00     -474.376     -166.817       -8.903      214.979      210.919      104.791    46215.946    44486.851    10981.120       17.729        5.084      502.852      117.308        0.054      344.441       21.258      855.084
05/21/2013  11:15:00     -436.055     -310.373      -15.520      323.300      278.926      132.264   104522.716    77799.456    17493.759       24.323        9.991      535.234      165.971        0.096      344.571       21.479      855.069
05/21/2013  11:16:00     -470.668     -347.077       -4.322      315.926      228.286      122.684    99808.932    52114.660    15051.269       25.446        8.349      584.799      134.425        0.053      344.495       21.352      855.055
05/21/2013  11:17:00     -384.571     -204.800       -3.315      261.384      193.245      104.931    68321.534    37343.502    11010.611       15.324        5.834      435.704      119.729        0.076      344.808       21.886      855.065
05/21/2013  11:18:00     -475.698      -80.779      -17.162      280.098      187.631      102.456    78454.635    35205.521    10497.236       17.861        6.208      482.508      119.918        0.062      344.701       21.704      855.127
05/21/2013  11:19:00     -507.118      -64.007      -10.811      314.266      224.681      117.357    98763.361    50481.587    13772.733       21.217        8.151      511.142      148.988        0.085      344.604       21.537      855.106
05/21/2013  11:20:00     -613.147      -53.878      -33.855      229.849      198.549       95.855    52830.461    39421.672     9188.232       24.070        5.072      615.510       94.954        0.024      344.454       21.279      855.162
05/21/2013  11:21:00     -446.192     -160.637        9.387      259.515      153.063      110.218    67348.079    23428.361    12148.048       16.393        5.146      474.227      117.222        0.061      344.605       21.537      855.199
05/21/2013  11:22:00     -434.668     -154.105      -11.392      231.062      184.331      101.442    53389.455    33977.875    10290.441       15.522        4.883      461.178      100.944        0.048      344.583       21.500      855.205
05/21/2013  11:23:00     -418.964     -186.561        1.985      258.275      205.228      114.268    66706.219    42118.585    13057.141       16.609        6.094      458.624      125.660        0.075      344.590       21.514      855.222
05/21/2013  11:24:00     -488.728      -18.618      -17.176      257.673      199.543      110.838    66395.466    39817.317    12285.151       17.897        5.925      489.082      134.366        0.075      344.673       21.655      855.300
05/21/2013  11:25:00     -404.134     -126.093      -25.642      238.897      188.576       96.890    57071.811    35560.731     9387.585       14.093        5.101      423.348      112.033        0.070      344.688       21.681      855.340
05/21/2013  11:26:00     -331.057     -204.622       -7.891      254.176      193.434      103.934    64605.427    37416.826    10802.337       13.215        5.641      389.190      117.066        0.090      344.676       21.661      855.352
05/21/2013  11:27:00     -491.623     -116.947       -9.705      233.670      295.444      118.261    54601.795    87287.233    13985.638       20.564        7.794      505.341      142.674        0.080      344.482       21.328      855.258
05/21/2013  11:28:00     -598.871     -241.823      -43.519      327.268      255.948      122.722   107104.308    65509.436    15060.570       30.331        9.384      645.852      142.440        0.049      344.560       21.462      855.251
05/21/2013  11:29:00     -459.535     -143.725      -10.053      277.225      193.128      101.088    76853.547    37298.580    10218.810       17.813        6.219      481.486      140.752        0.085      344.736       21.763      855.280
05/21/2013  11:30:00     -399.748     -301.478        8.391      261.945      202.464      122.121    68615.360    40991.789    14913.644       18.761        6.226      500.687      134.556        0.072      344.033       20.561      855.276
05/21/2013  11:31:00     -527.376     -343.593        3.876      268.094      212.321      108.520    71874.212    45080.417    11776.534       26.244        6.437      629.429      125.143        0.040      344.096       20.670      855.233
05/21/2013  11:32:00     -403.986      -94.346       -1.903      209.185      200.143       87.417    43758.502    40057.202     7641.726       13.176        4.573      414.857      102.228        0.061      344.397       21.185      855.263
05/21/2013  11:33:00     -460.245     -146.445       19.776      265.140      214.995      105.337    70299.219    46222.767    11095.806       18.061        6.381      482.982      120.418        0.062      344.346       21.097      855.260
05/21/2013  11:34:00     -444.089     -388.003       24.847      312.809      284.099      177.713    97849.268    80712.215    31581.991       27.922       10.507      589.713      209.011        0.126      344.342       21.090      855.194
05/21/2013  11:35:00     -546.540     -314.516      -23.275      287.708      255.618      129.919    82775.617    65340.615    16878.937       28.155        8.250      630.576      139.313        0.049      344.387       21.166      855.183
05/21/2013  11:36:00     -441.161     -373.656        0.962      304.326      213.159      138.298    92614.612    45436.906    19126.210       24.568        7.859      578.136      166.840        0.083      344.340       21.086      855.124
05/21/2013  11:37:00     -448.709     -234.187       -6.659      347.914      278.427      151.052   121044.239    77521.728    22816.723       23.876       11.069      506.146      184.569        0.133      344.607       21.542      855.112
05/21/2013  11:38:00     -698.352      -92.312      -29.660      314.665      221.278      127.321    99013.770    48964.131    16210.752       33.061        8.209      704.427      139.164        0.039      344.513       21.382      855.123
05/21/2013  11:39:00     -545.784     -133.598      -16.607      307.923      318.223      131.374    94816.396   101266.032    17259.201       26.463       10.667      561.897      145.168        0.067      344.435       21.249      855.198
05/21/2013  11:40:00     -447.792      -86.896      -21.749      214.070      243.077      115.675    45825.918    59086.430    13380.674       16.339        5.915      456.145      112.184        0.060      344.496       21.354      855.212
05/21/2013  11:41:00     -542.725     -110.140      -22.209      265.515      233.770      109.711    70497.978    54648.264    12036.494       22.215        6.859      553.788      130.031        0.055      344.575       21.488      855.248
05/21/2013  11:42:00     -402.321     -245.880        3.931      286.798      275.790      133.687    82252.874    76059.926    17872.148       19.922        8.809      471.508      167.377        0.126      344.582       21.499      855.221
05/21/2013  11:43:00     -422.716     -198.886       -9.461      231.119      191.538      101.265    53416.071    36686.843    10254.630       15.933        5.018      467.166      112.655        0.058      344.554       21.452      855.285
05/21/2013  11:44:00     -484.113     -103.393      -17.880      341.590      183.028      124.564   116683.890    33499.362    15516.182       20.550        8.285      495.031      167.871        0.115      344.511       21.378      855.203
05/21/2013  11:45:00     -337.025     -142.481        9.890      268.395      212.462      130.515    72035.794    45140.120    17034.243       13.407        6.711      365.906      126.212        0.119      344.638       21.596      855.179
05/21/2013  11:46:00     -649.658     -234.723      -25.136      302.608      244.816      127.837    91571.859    59934.793    16342.305       32.278        8.392      690.761      145.087        0.044      344.493       21.349      855.158
05/21/2013  11:47:00     -431.534     -249.595      -11.884      288.422      204.439      111.230    83187.178    41795.476    12372.172       19.298        6.868      498.517      134.388        0.073      344.500       21.360      855.183
05/21/2013  11:48:00     -548.959      -34.856      -30.654      264.332      165.719      111.712    69871.483    27462.642    12479.655       20.664        5.491      550.064      121.540        0.049      344.518       21.390      855.165
05/21/2013  11:49:00     -522.030     -309.838        2.389      336.219      286.994      136.438   113043.108    82365.604    18615.222       29.123       10.701      607.054      177.614        0.086      344.658       21.631      855.101
05/21/2013  11:50:00     -480.535     -144.725       -9.460      268.238      203.613      113.378    71951.512    41458.283    12854.460       18.908        6.313      501.856      128.187        0.065      344.591       21.515      855.089
05/21/2013  11:51:00     -457.088      -52.329       11.788      288.103      218.538      119.756    83003.600    47758.762    14341.426       17.843        7.255      460.074      144.764        0.099      344.654       21.623      855.060
05/21/2013  11:52:00     -661.768     -328.261      -35.282      327.453      265.817      143.389   107225.354    70658.833    20560.445       37.265        9.922      738.710      168.051        0.052      344.417       21.218      855.106
05/21/2013  11:53:00     -670.611     -260.209       -3.857      301.659      259.433      117.448    90998.071    67305.734    13794.020       34.474        8.605      719.325      139.075        0.037      344.235       20.906      855.132
05/21/2013  11:54:00     -381.483     -201.145       -8.995      228.180      223.358       88.143    52066.294    49888.919     7769.243       14.787        5.486      431.264       93.531        0.047      344.475       21.316      855.053
05/21/2013  11:55:00     -524.055     -237.820       -3.103      289.815      306.377      135.231    83992.728    93866.895    18287.389       26.363        9.807      575.493      151.158        0.069      344.631       21.583      854.986
05/21/2013  11:56:00     -439.833     -181.941      -20.256      299.525      219.253      142.017    89715.257    48071.895    20168.769       19.243        7.898      475.979      150.151        0.100      344.674       21.656      855.007
05/21/2013  11:57:00     -356.608     -117.880        9.216      257.120      220.580      127.942    66110.596    48655.484    16369.275       13.612        6.557      375.586      138.266        0.136      344.575       21.488      855.046
05/21/2013  11:58:00     -324.167     -179.346      -13.489      201.873      186.448      100.927    40752.597    34762.959    10186.274       11.155        4.285      370.472      101.515        0.075      344.575       21.486      855.039
05/21/2013  11:59:00     -401.826     -247.973       -2.845      254.618      209.829      103.020    64830.289    44028.372    10613.175       17.119        5.974      472.181      111.000        0.055      344.682       21.672      855.059
05/21/2013  12:00:00     -456.587     -368.361      -31.016      197.445      207.487       92.491    38984.636    43051.033     8554.585       21.784        4.530      586.653       63.184        0.012      344.248       20.928      855.015
05/21/2013  12:01:00     -436.344     -239.013      -16.507      320.090      229.604      113.859   102457.745    52717.791    12963.794       20.793        8.407      497.517      132.247        0.071      344.719       21.734      854.979
05/21/2013  12:02:00     -371.377     -196.909       -9.673      227.182      218.191      113.805    51611.790    47607.435    12951.688       14.446        5.609      420.350      135.067        0.103      344.822       21.910      855.038
05/21/2013  12:03:00     -386.380     -271.487       16.193      295.288      193.853      131.370    87195.130    37579.022    17258.103       18.262        7.102      472.223      140.031        0.088      344.721       21.738      854.981
05/21/2013  12:04:00     -559.437     -232.146       -1.074      297.629      220.094      137.358    88583.213    48441.476    18867.316       26.135        7.795      605.691      157.682        0.068      344.662       21.637      855.030
05/21/2013  12:05:00     -284.023     -333.833       -5.733      195.538      177.857       92.460    38234.933    31633.271     8548.765       13.527        3.921      438.307       93.581        0.046      344.690       21.684      854.959
05/21/2013  12:06:00     -432.462     -300.503       -3.035      297.568      236.880      112.114    88546.863    56112.208    12569.560       21.725        7.861      526.617      121.963        0.054      344.562       21.466      854.928
05/21/2013  12:07:00     -362.267     -108.030       -3.268      251.408      230.394      115.569    63206.051    53081.617    13356.162       13.625        6.482      378.031      117.289        0.096      344.702       21.705      854.897
05/21/2013  12:08:00     -536.240     -169.453      -23.801      261.539      252.847      123.923    68402.389    63931.407    15356.910       23.223        7.385      562.377      138.942        0.061      344.553       21.450      854.891
05/21/2013  12:09:00     -414.107     -292.513       -5.896      281.206      202.560      112.816    79076.897    41030.430    12727.563       19.493        6.642      507.000      146.413        0.083      344.427       21.234      854.886
05/21/2013  12:10:00     -271.308     -169.637       24.661      203.327      139.994       94.671    41341.930    19598.402     8962.563        8.643        3.495      319.976      113.550        0.126      344.611       21.551      854.832
05/21/2013  12:11:00     -406.547     -282.707      -23.855      273.086      173.938      102.431    74576.051    30254.327    10492.012       18.052        5.766      495.181      109.713        0.049      344.636       21.591      854.804
05/21/2013  12:12:00     -415.182     -127.843        5.754      251.932      189.881      108.639    63469.621    36054.704    11802.487       15.002        5.566      434.419      125.683        0.084      344.967       22.159      854.824
05/21/2013  12:13:00     -503.329     -230.120       -4.291      301.882      244.315      108.484    91132.719    59689.772    11768.683       23.442        8.130      553.440      141.669        0.066      344.899       22.043      854.811
05/21/2013  12:14:00     -616.498     -380.893      -10.172      361.029      276.609      147.210   130342.113    76512.533    21670.737       37.684       11.426      724.671      180.470        0.062      344.503       21.365      854.815
05/21/2013  12:15:00     -622.110     -142.095      -23.508      422.684      227.148      139.187   178661.750    51596.272    19373.111       32.865       12.482      638.131      151.117        0.056      344.741       21.771      854.780
05/21/2013  12:16:00     -364.407     -108.024       25.815      320.571      222.239      127.155   102765.726    49390.395    16168.358       15.669        8.416      380.081      153.239        0.163      344.715       21.728      854.877
05/21/2013  12:17:00     -509.152     -175.724      -17.778      301.259      197.896       84.622    90756.788    39162.849     7160.818       21.373        6.854      538.623       90.753        0.028      344.634       21.590      854.906
05/21/2013  12:18:00     -647.621     -232.143       -4.700      313.097      227.285      102.522    98029.825    51658.387    10510.667       31.673        8.010      687.971      120.425        0.031      344.508       21.373      854.882
05/21/2013  12:19:00     -527.706     -335.865      -12.374      255.905      235.984      127.965    65487.377    55688.429    16375.017       26.446        6.878      625.522      143.522        0.053      344.476       21.318      854.909
05/21/2013  12:20:00     -419.243     -210.687       10.734      304.166      241.161      129.492    92517.145    58158.644    16768.281       19.382        8.372      469.206      158.087        0.114      344.693       21.689      854.862
05/21/2013  12:21:00     -799.452     -250.896      -18.576      378.035      222.319      130.694   142910.402    49425.553    17081.002       45.587       10.471      837.898      155.656        0.035      344.697       21.695      854.758
05/21/2013  12:22:00     -433.621     -177.362       12.339      332.288      258.407      127.081   110415.041    66774.279    16149.645       20.645        9.667      468.491      153.260        0.107      344.954       22.138      854.845
05/21/2013  12:23:00     -524.336      -81.733      -17.550      288.133      188.642      116.566    83020.754    35585.707    13587.706       20.703        6.610      530.668      137.810        0.067      344.659       21.633      854.943
05/21/2013  12:24:00     -518.553      -65.883      -14.372      251.772      224.785      107.076    63388.895    50528.367    11465.242       19.939        6.269      522.721      112.668        0.046      344.569       21.478      854.906
05/21/2013  12:25:00     -648.357     -112.242      -25.062      402.297      258.101      101.443   161842.659    66615.965    10290.686       33.612       11.937      658.001      132.428        0.041      344.741       21.772      854.847
05/21/2013  12:26:00     -675.880     -361.306      -30.318      277.263      299.288      130.077    76875.040    89573.493    16920.153       38.578        9.168      766.391      144.264        0.035      344.631       21.583      854.829
05/21/2013  12:27:00     -676.789     -410.759      -24.116      363.903      274.043      152.108   132425.301    75099.480    23136.975       42.896       11.533      791.686      185.764        0.055      344.466       21.300      854.930
05/21/2013  12:28:00     -483.918     -245.813       -1.350      329.189      200.643      107.655   108365.304    40257.413    11589.701       22.737        8.011      542.771      129.279        0.057      344.382       21.158      854.960
05/21/2013  12:29:00     -565.875     -335.112      -12.614      346.553      244.775      119.880   120099.195    59914.719    14371.143       31.349        9.719      657.658      136.469        0.043      344.628       21.580      854.997
05/21/2013  12:30:00     -429.733     -122.567       30.226      290.443      234.370      107.180    84356.942    54929.180    11487.472       17.566        7.539      446.870      131.705        0.087      344.762       21.809      854.988
05/21/2013  12:31:00     -413.382     -171.368       -9.841      259.605      238.385      110.021    67394.981    56827.601    12104.539       16.831        6.816      447.495      106.937        0.057      344.657       21.627      854.961
05/21/2013  12:32:00     -460.463     -219.338       -9.336      216.710      265.882      119.352    46963.415    70693.032    14244.823       19.604        6.595      510.035      128.515        0.063      344.691       21.686      855.105
05/21/2013  12:33:00     -681.810     -171.439      -29.615      330.111      241.106      111.823   108973.478    58132.242    12504.430       33.733        8.981      703.034      119.281        0.029      344.558       21.458      855.062
05/21/2013  12:34:00     -491.902     -491.771        1.090      395.177      295.768      151.037   156165.122    87478.488    22812.213       37.508       13.323      695.562      177.130        0.065      344.465       21.300      855.068
05/21/2013  12:35:00     -565.622     -243.580      -10.058      398.376      285.920      151.497   158703.795    81750.252    22951.216       32.133       13.170      615.840      183.452        0.089      344.309       21.034      855.090
05/21/2013  12:36:00     -624.812     -135.745      -40.254      342.679      216.308      139.006   117428.731    46789.261    19322.760       29.695        9.177      639.388      167.815        0.069      344.559       21.461      855.100
05/21/2013  12:37:00     -557.739     -357.803      -15.180      276.942      232.753      120.154    76696.725    54173.922    14436.927       29.229        7.265      662.643      140.878        0.045      344.523       21.399      855.143
05/21/2013  12:38:00     -541.188     -195.085      -33.239      240.721      207.425      105.011    57946.363    43025.126    11027.226       22.200        5.600      575.276      122.577        0.045      344.513       21.382      855.115
05/21/2013  12:39:00     -245.834      -56.016       21.297      207.070      146.870       97.862    42878.091    21570.689     9577.025        6.901        3.701      252.136      111.085        0.194      344.905       22.053      855.138
05/21/2013  12:40:00     -846.451     -422.973      -24.549      386.124      352.182      171.038   149091.916   124031.911    29254.012       59.912       15.119      946.248      176.704        0.035      344.418       21.219      855.101
05/21/2013  12:41:00     -528.774     -227.213       -5.262      363.387      248.385      128.514   132049.917    61695.226    16515.808       27.071       10.513      575.523      126.327        0.048      344.424       21.230      855.103
05/21/2013  12:42:00     -562.433     -182.566      -16.312      246.581      189.589      100.744    60802.191    35944.152    10149.257       22.839        5.345      591.321      105.116        0.032      344.645       21.607      855.080
05/21/2013  12:43:00     -522.831     -203.619       -1.815      429.478      273.673      154.966   184451.185    74897.088    24014.454       29.903       14.168      561.081      205.602        0.134      344.673       21.657      855.044
05/21/2013  12:44:00     -775.833     -456.231      -37.931      320.259      281.146      136.445   102565.513    79042.845    18617.286       50.582       10.011      900.035      153.377        0.029      344.407       21.200      855.079
05/21/2013  12:45:00     -726.456     -432.845       -9.454      398.170      315.990      141.783   158539.195    99849.835    20102.323       49.678       13.925      845.632      150.062        0.031      344.258       20.947      855.081
05/21/2013  12:46:00     -645.418     -343.569      -13.549      392.237      326.605      154.414   153850.147   106671.100    23843.633       40.952       14.218      731.166      182.904        0.063      344.458       21.288      855.077
05/21/2013  12:47:00     -521.376     -379.637      -14.752      383.331      316.743      160.857   146942.537   100326.301    25874.936       34.460       13.657      644.947      197.418        0.094      344.511       21.377      855.025
05/21/2013  12:48:00     -618.455     -345.459      -15.331      326.445      327.791      132.923   106566.489   107447.102    17668.610       36.683       11.584      708.399      158.957        0.050      344.433       21.244      855.003
05/21/2013  12:49:00     -464.515     -194.082        7.470      250.705      221.729      109.393    62853.037    49163.626    11966.755       18.871        6.199      503.430      117.698        0.055      344.637       21.593      855.026
05/21/2013  12:50:00     -601.070     -249.509      -33.849      268.826      250.418      127.282    72267.528    62709.356    16200.729       28.790        7.559      650.800      127.872        0.039      344.767       21.815      855.048
05/21/2013  12:51:00     -641.699     -343.551       -7.833      363.477      256.480      134.234   132115.193    65782.142    18018.684       37.285       10.796      727.876      157.286        0.047      344.633       21.585      855.044
05/21/2013  12:52:00     -588.709     -246.257       -0.460      328.746      282.584      138.251   108073.680    79853.595    19113.440       30.709       10.352      638.138      164.575        0.067      344.675       21.659      855.081
05/21/2013  12:53:00     -502.360     -276.182      -18.751      254.925      262.963      113.806    64986.945    69149.499    12951.869       23.801        7.354      573.273      109.204        0.036      344.564       21.471      855.045
05/21/2013  12:54:00     -521.006     -457.542      -17.252      306.881      268.862      127.940    94175.954    72286.893    16368.529       33.192        9.142      693.392      134.594        0.038      344.614       21.554      855.085
05/21/2013  12:55:00     -781.522     -420.744      -19.747      304.676      298.763      151.200    92827.411    89259.190    22861.537       49.653       10.247      887.583      168.958        0.036      344.466       21.300      855.151
05/21/2013  12:56:00     -931.521     -654.346      -29.427      407.838      342.338      173.613   166332.163   117195.154    30141.408       80.515       15.683     1138.377      170.633        0.022      344.083       20.647      855.050
05/21/2013  12:57:00     -546.221     -411.089      -16.131      345.447      251.205      142.123   119333.908    63104.140    20198.980       33.508       10.132      683.631      162.951        0.057      344.447       21.268      855.042
05/21/2013  12:58:00     -583.099     -252.242      -26.622      285.276      237.407      122.521    81382.233    56362.272    15011.389       27.852        7.638      635.319      132.491        0.043      344.503       21.364      855.042
05/21/2013  12:59:00     -473.030     -211.130      -16.474      336.514      296.892      126.889   113241.885    88144.819    16100.795       24.300       10.874      518.009      151.239        0.085      344.543       21.433      855.002
05/21/2013  13:00:00     -634.299     -379.936      -16.469      302.852      261.894      130.213    91719.321    68588.250    16955.310       36.207        8.863      739.383      145.640        0.039      344.522       21.395      855.033
05/21/2013  13:01:00     -378.134     -190.995       -8.562      266.142      206.884      103.111    70831.503    42800.954    10631.954       15.188        6.213      423.633      132.864        0.098      344.596       21.523      855.015
05/21/2013  13:02:00     -358.987     -267.995       15.517      263.331      259.604      125.748    69343.257    67394.463    15812.650       17.671        7.628      447.988      143.118        0.102      344.754       21.795      854.976
05/21/2013  13:03:00     -847.943     -585.629      -26.243      354.539      275.105      145.203   125698.186    75682.625    21083.837       64.252       11.123     1030.519      151.685        0.022      344.326       21.063      854.976
05/21/2013  13:04:00     -508.710     -279.652       13.610      438.901      228.634      147.748   192633.789    52273.613    21829.557       30.190       13.337      580.510      192.142        0.110      344.346       21.095      854.992
05/21/2013  13:05:00     -496.315     -349.840      -14.745      283.261      238.234      117.426    80236.827    56755.604    13788.833       25.983        7.539      607.220      127.922        0.044      344.309       21.035      854.970
05/21/2013  13:06:00     -520.950     -312.146      -13.430      281.650      234.744      103.495    79326.651    55104.867    10711.184       25.704        7.257      607.309      117.482        0.037      344.537       21.423      854.933
05/21/2013  13:07:00     -504.971     -288.776      -12.940      260.921      218.078      106.469    68079.763    47558.189    11335.642       23.274        6.349      581.710      123.500        0.045      344.558       21.459      854.964
05/21/2013  13:08:00     -635.436     -469.624        0.330      275.862      285.546      134.358    76099.718    81536.592    18052.174       39.997        8.784      790.143      145.215        0.034      344.461       21.292      854.946
05/21/2013  13:09:00     -861.137     -382.356      -28.773      459.491      366.541      161.436   211131.780   134352.152    26061.690       62.999       18.577      942.206      205.018        0.047      344.339       21.084      854.936
05/21/2013  13:10:00     -742.700     -537.387      -25.663      409.126      285.112      147.254   167384.117    81288.648    21683.795       55.565       13.518      916.727      176.903        0.037      344.174       20.801      854.932
05/21/2013  13:11:00     -639.485     -549.967       -7.768      357.943      275.759      151.822   128123.259    76042.900    23050.013       46.929       11.361      843.448      175.489        0.043      344.356       21.114      854.886
05/21/2013  13:12:00     -556.780     -389.968      -18.216      325.415      358.196      146.550   105894.764   128304.580    21477.042       35.899       12.784      679.764      193.922        0.081      344.415       21.214      854.949
05/21/2013  13:13:00     -709.838     -463.029      -28.663      298.277      247.302      127.753    88969.289    61158.466    16320.833       44.273        8.322      847.506      139.368        0.027      344.588       21.510      854.919
05/21/2013  13:14:00     -464.759     -273.939      -11.467      303.484      218.145      144.320    92102.237    47587.332    20828.275       22.581        8.026      539.485      174.991        0.105      344.621       21.567      854.983
05/21/2013  13:15:00     -593.851     -320.823       -0.001      319.484      257.772      143.994   102069.905    66446.363    20734.364       32.238        9.463      674.971      172.965        0.066      344.441       21.258      854.954
05/21/2013  13:16:00     -677.503     -494.822      -16.467      346.343      308.831      150.624   119953.794    95376.675    22687.604       47.103       11.901      838.963      171.673        0.042      344.385       21.163      854.891
05/21/2013  13:17:00     -743.410     -501.779      -34.826      373.540      268.460      163.168   139532.132    72070.950    26623.922       52.189       11.911      896.906      181.211        0.041      344.300       21.016      854.931
05/21/2013  13:18:00     -634.839     -379.084      -18.272      324.561      269.451      147.149   105339.763    72603.795    21652.918       37.329        9.980      739.409      170.569        0.053      344.279       20.982      854.888
05/21/2013  13:19:00     -397.180     -284.794       -8.460      280.893      224.882      112.563    78900.759    50571.852    12670.501       19.051        7.107      488.732      135.962        0.077      344.638       21.596      854.959
05/21/2013  13:20:00     -442.501     -259.764      -17.063      277.698      156.697       99.804    77116.311    24553.994     9960.879       18.758        5.582      513.112      112.679        0.048      344.672       21.654      854.928
05/21/2013  13:21:00     -740.707     -439.288      -20.192      360.339      314.811      150.808   129844.161    99105.885    22742.944       49.681       12.585      861.174      174.871        0.041      344.402       21.193      854.937
05/21/2013  13:22:00     -710.236     -511.268       -0.014      431.263      269.976      143.591   185987.351    72887.298    20618.420       52.261       13.975      875.117      183.557        0.044      344.219       20.880      854.940
05/21/2013  13:23:00     -634.102     -422.421       -5.297      298.692      274.660      117.831    89216.949    75437.858    13884.176       37.951        8.927      761.922      138.143        0.033      344.239       20.913      854.931
05/21/2013  13:24:00     -684.214     -484.708      -19.383      319.296      246.073      134.960   101950.069    60551.830    18214.155       44.205        9.036      838.505      130.097        0.024      344.212       20.869      854.939
05/21/2013  13:25:00     -672.307     -401.129      -26.458      374.280      305.893      150.751   140085.403    93570.497    22726.002       43.494       12.819      782.880      173.090        0.049      344.274       20.974      854.930
05/21/2013  13:26:00     -417.340     -252.102       20.810      332.189      257.279      135.426   110349.225    66192.417    18340.290       21.648        9.744      487.574      166.882        0.117      344.476       21.319      854.956
05/21/2013  13:27:00     -641.283     -368.591      -14.623      333.256      275.573      131.021   111059.505    75940.560    17166.391       37.570       10.208      739.665      148.689        0.040      344.156       20.771      854.892
05/21/2013  13:28:00     -511.061     -295.463       -6.000      275.549      221.749      118.076    75927.508    49172.814    13941.865       24.375        6.952      590.323      131.919        0.050      344.396       21.181      854.874
05/21/2013  13:29:00     -769.704     -485.957      -23.416      444.999      345.047      162.919   198024.173   119057.724    26542.446       58.631       17.181      910.274      196.884        0.047      344.094       20.666      854.840
05/21/2013  13:30:00     -533.175     -346.734       -4.514      362.800      251.546      148.578   131624.071    63275.345    22075.403       31.070       10.849      636.003      180.987        0.081      344.252       20.936      854.784
05/21/2013  13:31:00     -463.482     -348.258        7.262      336.470      275.384      139.594   113212.115    75836.116    19486.540       27.230       10.427      579.740      175.468        0.092      344.484       21.332      854.848
05/21/2013  13:32:00     -477.730     -401.766      -13.368      327.756      293.425      141.925   107423.679    86098.514    20142.659       30.170       10.683      624.213      172.284        0.076      344.295       21.008      854.853
05/21/2013  13:33:00     -478.325     -317.564       20.590      349.787      209.488      133.715   122350.796    43885.191    17879.746       25.705        9.206      574.144      149.780        0.068      344.398       21.184      854.854
05/21/2013  13:34:00     -639.050     -513.996      -13.662      361.517      289.815      146.157   130694.581    83992.575    21361.801       45.436       11.802      820.108      159.995        0.038      344.219       20.879      854.828
05/21/2013  13:35:00     -623.642     -482.928        3.852      397.112      295.390      175.524   157698.258    87255.461    30808.833       44.891       13.788      788.764      193.775        0.060      344.116       20.703      854.806
05/21/2013  13:36:00     -630.982     -507.459       15.999      437.295      323.044      178.494   191226.720   104357.650    31860.075       49.161       16.372      809.724      202.187        0.062      344.142       20.748      854.754
05/21/2013  13:37:00     -746.770     -466.231       -5.594      353.946      294.822      149.590   125277.722    86919.755    22377.099       50.477       11.729      880.362      178.755        0.041      344.090       20.660      854.814
05/21/2013  13:38:00     -810.495     -538.966      -14.069      474.269      354.208      177.754   224930.984   125463.581    31596.358       66.471       19.100      973.338      227.111        0.054      343.993       20.494      854.833
05/21/2013  13:39:00     -826.278     -469.643      -24.926      391.308      301.918      160.278   153121.570    91154.421    25689.071       58.689       13.498      950.421      192.530        0.041      344.093       20.664      854.781
05/21/2013  13:40:00     -679.234     -475.353      -21.084      352.173      340.169      169.667   124025.548   115715.137    28786.801       47.809       13.426      829.047      209.823        0.064      344.005       20.513      854.724
05/21/2013  13:41:00     -800.788     -460.213      -34.163      361.799      345.245      145.838   130898.250   119194.373    21268.750       56.274       13.568      923.611      172.822        0.035      343.987       20.483      854.745
05/21/2013  13:42:00     -564.881     -252.276        3.761      382.536      274.734      158.112   146333.756    75478.929    24999.247       31.473       12.341      618.655      203.604        0.108      344.045       20.582      854.767
05/21/2013  13:43:00     -632.037     -322.760      -16.096      314.939      351.499      137.000    99186.741   123551.800    18768.897       37.266       12.075      709.679      153.531        0.047      344.104       20.681      854.871
05/21/2013  13:44:00     -634.887     -403.659       -5.776      318.408      263.463      138.654   101383.479    69413.014    19224.979       37.800        9.501      752.344      158.698        0.044      344.124       20.718      854.835
05/21/2013  13:45:00     -810.104     -573.662      -15.649      391.122      332.210      172.596   152976.131   110363.453    29789.273       63.930       14.656      992.651      222.842        0.050      343.920       20.369      854.809
05/21/2013  13:46:00     -725.133     -348.528      -17.024      291.607      247.020      143.795    85034.881    61018.647    20677.118       40.712        8.337      804.543      145.964        0.033      343.931       20.388      854.781
05/21/2013  13:47:00     -563.278     -426.120        1.065      366.472      239.782      156.261   134301.524    57495.597    24417.487       35.749       10.811      706.301      176.236        0.062      344.064       20.614      854.768
05/21/2013  13:48:00     -699.482     -476.738      -41.187      419.269      366.832      159.985   175786.175   134565.772    25595.304       52.703       16.797      846.495      195.522        0.053      344.169       20.794      854.778
05/21/2013  13:49:00     -799.959     -579.706      -30.416      364.474      277.065      163.055   132841.054    76765.181    26586.810       60.651       11.810      987.924      200.665        0.041      343.989       20.488      854.714
05/21/2013  13:50:00     -796.137     -477.798      -21.141      381.355      362.669      174.576   145431.635   131528.687    30476.934       58.494       15.372      928.507      194.763        0.044      344.085       20.650      854.659
05/21/2013  13:51:00    -1009.767     -180.818      -56.722      384.721      366.090      162.096   148010.420   134021.705    26275.209       68.186       15.415     1025.829      180.688        0.031      344.102       20.679      854.674
05/21/2013  13:52:00     -597.387     -352.182       -9.179      311.738      229.085      142.921    97180.832    52479.776    20426.503       32.550        8.504      693.472      167.313        0.058      344.238       20.912      854.721
05/21/2013  13:53:00     -655.550     -428.223       -4.489      439.409      331.628      148.039   193080.160   109977.386    21915.601       46.899       16.249      783.020      182.574        0.054      344.329       21.067      854.736
05/21/2013  13:54:00     -717.975     -342.324        2.979      447.292      335.300      176.765   200070.194   112426.406    31245.957       48.814       17.187      795.408      226.506        0.081      344.024       20.546      854.770
05/21/2013  13:55:00     -826.409     -493.405      -25.813      467.982      383.726      197.169   219007.312   147245.408    38875.462       66.601       20.256      962.497      247.378        0.066      343.971       20.456      854.723
05/21/2013  13:56:00     -747.373     -479.632       23.040      443.957      363.070      179.997   197097.953   131820.121    32398.844       57.516       18.066      888.039      213.519        0.058      343.917       20.362      854.725
05/21/2013  13:57:00     -768.747     -415.374       -4.622      419.822      310.662      163.508   176250.268    96511.129    26734.886       53.145       14.975      873.789      192.746        0.049      344.018       20.536      854.724
05/21/2013  13:58:00     -556.983     -327.731        4.170      326.710      240.386      121.541   106739.641    57785.444    14772.212       29.844        8.965      646.249      145.005        0.050      343.835       20.224      854.726
05/21/2013  13:59:00     -481.129     -363.200      -14.199      307.983      230.795      122.231    94853.313    53266.176    14940.373       26.330        8.153      602.826      144.545        0.057      344.086       20.652      854.814
05/21/2013  14:00:00     -688.699     -537.202      -17.967      399.531      324.564      161.351   159625.172   105341.911    26034.135       52.705       14.550      873.437      203.483        0.054      344.009       20.520      854.797
05/21/2013  14:01:00     -661.201     -313.160      -33.015      370.074      310.983      146.699   136954.547    96710.286    21520.634       39.571       12.759      731.612      167.069        0.052      344.126       20.721      854.676
05/21/2013  14:02:00     -593.076     -386.480       -4.909      277.883      279.848      121.652    77219.061    78314.634    14799.250       33.570        8.517      707.889      107.637        0.023      344.291       21.002      854.620
05/21/2013  14:03:00     -846.051     -399.980      -29.395      399.444      295.427      151.597   159555.159    87277.244    22981.556       57.318       13.491      935.835      168.666        0.032      344.187       20.824      854.661
05/21/2013  14:04:00     -624.896     -423.744      -11.840      338.955      334.484      134.803   114890.534   111879.282    18171.958       40.752       12.247      755.019      142.841        0.036      344.119       20.708      854.713
05/21/2013  14:05:00     -708.162     -425.550      -27.837      391.125      313.693      154.659   152979.012    98403.281    23919.339       47.927       13.765      826.188      168.655        0.042      344.182       20.816      854.722
05/21/2013  14:06:00     -773.034     -385.059      -20.550      368.131      287.290      139.973   135520.722    82535.467    19592.519       49.191       11.882      863.627      150.001        0.030      344.020       20.537      854.728
05/21/2013  14:07:00     -401.482     -270.794        1.847      340.678      331.527      138.733   116061.165   109910.143    19246.846       23.982       12.261      484.270      169.560        0.123      344.279       20.983      854.748
05/21/2013  14:08:00     -458.644     -222.941        7.320      340.028      271.427      128.008   115618.874    73672.455    16386.170       23.285       10.284      509.957      171.708        0.113      344.457       21.287      854.698
05/21/2013  14:09:00     -804.350     -291.995      -28.273      369.974      260.072      145.509   136881.089    67637.430    21173.011       47.932       11.285      855.710      149.914        0.031      344.144       20.751      854.691
05/21/2013  14:10:00     -620.893     -249.487      -16.374      409.503      292.184      123.149   167692.926    85371.326    15165.658       35.807       13.411      669.143      141.393        0.045      344.234       20.905      854.737
05/21/2013  14:11:00     -732.602     -445.209      -28.080      334.467      347.872      146.930   111868.025   121015.100    21588.357       49.504       12.724      857.273      167.507        0.038      344.105       20.685      854.676
05/21/2013  14:12:00     -710.737     -335.081       -6.142      386.014      286.376      187.952   149007.063    82011.067    35326.029       44.185       13.317      785.764      199.069        0.064      344.214       20.871      854.642
05/21/2013  14:13:00     -501.101     -346.513       10.389      368.490      292.225      158.801   135785.056    85395.442    25217.705       30.879       12.320      609.240      187.347        0.095      344.260       20.949      854.717
05/21/2013  14:14:00     -585.033     -188.782      -12.308      309.318      283.401      145.039    95677.450    80316.186    21036.353       28.750        9.851      614.738      157.089        0.065      344.145       20.752      854.560
05/21/2013  14:15:00     -744.452     -446.464       -1.585      482.494      404.948      191.226   232800.614   163982.802    36567.276       59.336       21.668      868.066      235.218        0.073      344.092       20.663      854.520
05/21/2013  14:16:00     -817.340     -291.586      -28.179      385.671      351.146      153.797   148742.416   123303.337    23653.499       52.472       14.785      867.794      157.519        0.033      344.097       20.671      854.593
05/21/2013  14:17:00     -513.690     -389.538       12.466      339.654      271.169      158.423   115364.579    73532.380    25097.702       31.484       10.700      644.684      167.245        0.067      344.046       20.584      854.619
05/21/2013  14:18:00     -657.290     -305.560       -4.946      335.430      267.698      129.684   112512.955    71661.991    16817.872       36.317       10.050      724.843      150.219        0.043      344.147       20.758      854.606
05/21/2013  14:19:00     -634.542     -313.072       19.378      422.830      303.184      170.221   178784.923    91920.752    28975.044       40.029       14.984      707.572      205.051        0.084      344.143       20.748      854.567
05/21/2013  14:20:00    -1050.542     -579.832      -82.668      424.175      351.954      166.478   179924.290   123871.523    27714.812       88.903       16.576     1199.935      199.836        0.028      343.937       20.399      854.546
05/21/2013  14:21:00     -708.623     -306.871      -13.934      356.923      280.950      155.291   127394.383    78933.110    24115.206       41.343       11.522      772.216      180.662        0.055      344.114       20.699      854.531
05/21/2013  14:22:00     -905.743     -420.015      -33.153      511.798      384.694      175.872   261936.806   147989.542    30930.908       71.928       22.043      998.390      219.758        0.048      344.175       20.802      854.531
05/21/2013  14:23:00     -827.573     -434.834      -19.134      424.953      282.350      176.631   180584.974    79721.634    31198.535       58.285       14.575      934.857      217.129        0.054      344.084       20.649      854.639
05/21/2013  14:24:00     -505.687     -363.004        8.039      460.179      352.143      187.554   211764.668   124005.008    35176.682       37.918       18.547      622.488      225.395        0.131      344.092       20.663      854.524
05/21/2013  14:25:00     -735.122     -276.840      -33.834      451.078      319.221      166.455   203471.359   101901.749    27707.359       47.557       16.654      785.522      199.005        0.064      344.116       20.703      854.505
05/21/2013  14:26:00     -890.923     -530.856      -50.711      391.727      370.670      154.088   153449.780   137396.133    23742.991       69.629       15.729     1037.089      165.155        0.025      344.113       20.699      854.555
05/21/2013  14:27:00     -857.442     -328.948      -41.929      509.910      386.376      186.549   260008.552   149286.749    34800.591       64.454       22.205      918.375      226.190        0.061      344.050       20.590      854.572
05/21/2013  14:28:00     -626.138     -292.231       -5.191      428.469      284.653      142.073   183586.003    81027.442    20184.852       38.108       14.240      690.976      177.234        0.066      344.232       20.901      854.614
05/21/2013  14:29:00     -728.278     -430.773      -11.785      312.657      268.878      164.163    97754.362    72295.378    26949.466       45.651        9.850      846.140      171.152        0.041      344.122       20.714      854.607
05/21/2013  14:30:00     -716.601     -268.464      -11.822      357.769      335.770      148.980   127998.324   112741.658    22194.940       42.428       13.147      765.238      157.832        0.043      344.066       20.618      854.605
05/21/2013  14:31:00     -933.969     -299.777      -20.498      374.056      281.485      133.624   139917.744    79233.937    17855.310       59.975       11.850      980.900      150.884        0.024      344.149       20.759      854.542
05/21/2013  14:32:00     -773.623     -441.135      -26.947      467.403      341.264      181.486   218465.310   116461.178    32937.250       58.077       18.393      890.558      217.939        0.060      344.093       20.663      854.476
05/21/2013  14:33:00     -460.985     -258.307        4.052      276.839      234.286      139.080    76639.939    54890.072    19343.186       21.503        7.544      528.422      147.505        0.078      344.409       21.203      854.604
05/21/2013  14:34:00     -724.172     -319.310      -28.290      435.488      330.127      166.377   189649.373   108983.735    27681.222       47.668       16.316      791.444      199.752        0.064      344.354       21.110      854.688
05/21/2013  14:35:00     -616.948     -305.941        1.263      451.453      388.377      172.293   203809.946   150836.908    29684.827       42.920       19.217      688.640      192.783        0.078      344.079       20.640      854.626
05/21/2013  14:36:00     -653.367     -292.913      -14.134      371.698      291.672      175.478   138159.259    85072.675    30792.615       38.340       12.701      716.022      176.695        0.061      344.155       20.769      854.548
05/21/2013  14:37:00     -761.834     -367.275      -43.061      409.911      332.665      158.286   168026.629   110665.884    25054.372       51.038       15.187      845.744      203.408        0.058      344.125       20.719      854.454
05/21/2013  14:38:00     -701.699     -270.212      -26.366      300.795      269.196      138.148    90477.339    72466.458    19084.753       37.402        9.101      751.929      147.351        0.038      344.285       20.992      854.554
05/21/2013  14:39:00     -606.682     -350.685        6.789      435.381      344.759      182.560   189556.321   118858.703    33328.129       41.635       17.087      700.745      212.950        0.092      344.141       20.746      854.656
05/21/2013  14:40:00     -483.145     -331.847       -4.905      339.278      278.368      136.836   115109.241    77488.764    18723.967       27.741       10.566      586.133      164.176        0.078      344.158       20.775      854.744
05/21/2013  14:41:00     -786.063     -416.070       -8.420      368.216      223.838      136.691   135583.184    50103.602    18684.376       49.768       10.219      889.387      159.563        0.032      344.072       20.628      854.676
05/21/2013  14:42:00     -799.495     -356.685      -50.523      386.183      330.042      149.318   149137.528   108927.570    22295.734       52.461       14.018      875.452      179.675        0.042      344.158       20.775      854.657
05/21/2013  14:43:00     -729.482     -542.277      -24.249      410.505      383.944      162.131   168514.539   147412.772    26286.374       58.443       17.111      908.960      194.848        0.046      343.994       20.496      854.568
05/21/2013  14:44:00     -744.649     -438.145      -18.189      406.380      307.373      154.391   165144.621    94477.984    23836.445       51.507       14.173      863.987      209.201        0.059      344.182       20.815      854.613
05/21/2013  14:45:00     -815.667     -506.293      -26.325      415.423      349.027      151.003   172576.476   121819.649    22801.825       61.970       15.860      960.024      182.225        0.036      344.071       20.626      854.613
05/21/2013  14:46:00     -514.373     -187.554       15.498      366.686      290.309      163.033   134458.809    84279.129    26579.645       27.261       12.266      547.500      172.288        0.099      344.161       20.781      854.646
05/21/2013  14:47:00     -535.696     -318.056      -13.994      328.393      274.079      145.437   107841.860    75119.342    21151.794       29.618       10.206      623.000      173.675        0.078      344.161       20.780      854.665
05/21/2013  14:48:00     -569.418     -150.205       -7.384      354.686      290.201      138.440   125802.078    84216.827    19165.638       28.797       11.459      588.896      164.557        0.078      344.252       20.934      854.665
05/21/2013  14:49:00     -395.451     -162.167      -22.583      270.730      204.727      117.770    73294.481    41912.976    13869.687       15.611        6.454      427.411      115.588        0.073      344.442       21.260      854.689
05/21/2013  14:50:00     -610.489     -233.899      -37.194      367.602      249.667      135.114   135131.472    62333.732    18255.759       32.221       10.786      653.762      149.716        0.052      344.353       21.108      854.723
05/21/2013  14:51:00     -620.155     -285.964      -20.427      345.714      251.102      129.611   119517.886    63051.994    16798.891       33.304        9.968      682.911      151.496        0.049      344.236       20.909      854.740
05/21/2013  14:52:00     -639.991     -378.724      -29.738      337.701      316.840      125.673   114042.155   100387.582    15793.739       39.202       11.511      743.654      140.544        0.036      344.237       20.910      854.730
05/21/2013  14:53:00     -732.003     -483.119      -28.906      414.758      258.075      146.439   172024.515    66602.950    21444.517       51.502       13.004      877.059      169.312        0.037      344.261       20.952      854.767
05/21/2013  14:54:00     -713.812     -387.747       -5.966      391.352      322.940      161.381   153156.589   104290.558    26043.891       47.164       14.175      812.328      197.235        0.059      344.156       20.771      854.707
05/21/2013  14:55:00     -796.846     -349.355      -29.874      395.646      286.416      159.845   156535.670    82033.923    25550.561       51.096       13.206      870.064      180.749        0.043      344.288       20.996      854.669
05/21/2013  14:56:00     -493.872      -85.403       -8.254      291.259      195.444      127.343    84831.939    38198.412    16216.173       19.523        6.962      501.201      154.924        0.096      344.315       21.044      854.709
05/21/2013  14:57:00     -462.367     -234.832       -6.303      294.303      253.513      121.277    86614.375    64268.792    14708.130       21.725        8.280      518.584       91.570        0.031      344.346       21.095      854.688
05/21/2013  14:58:00     -612.069     -338.933       -3.129      298.347      317.129      135.246    89010.781   100570.788    18291.595       34.865       10.394      699.646      148.181        0.045      344.335       21.077      854.694
05/21/2013  14:59:00     -450.783     -311.879      -29.476      207.296      198.556      100.946    42971.558    39424.441    10190.184       19.695        4.629      548.155       92.181        0.028      344.414       21.211      854.642
05/21/2013  15:00:00     -434.733     -203.752       13.713      356.466      262.453      159.475   127068.148    68881.512    25432.382       22.599       11.069      480.112      193.295        0.162      344.362       21.124      854.629
05/21/2013  15:01:00     -721.413     -174.026       -0.927      393.076      373.100      163.920   154508.889   139203.555    26869.889       43.559       16.029      742.107      210.866        0.081      344.275       20.974      854.613
05/21/2013  15:02:00     -709.509     -250.004      -27.251      303.978      351.928      141.966    92402.863   123853.488    20154.266       40.148       11.821      752.267      164.409        0.048      344.108       20.690      854.700
05/21/2013  15:03:00     -530.571     -436.751      -13.471      274.266      275.945      126.535    75222.053    76145.820    16011.028       31.987        8.369      687.210      135.258        0.039      344.146       20.754      854.710
05/21/2013  15:04:00     -503.786     -374.879       -3.476      332.288      264.765      160.497   110415.130    70100.263    25759.182       30.027       10.314      627.960      171.565        0.075      344.219       20.879      854.710
05/21/2013  15:05:00     -476.270     -263.898        8.463      361.459      337.169      158.887   130652.388   113683.219    25245.184       28.301       13.479      544.495      202.861        0.139      344.247       20.928      854.589
05/21/2013  15:06:00     -545.581     -433.465      -16.092      369.643      269.199      146.161   136635.932    72468.227    21362.971       35.809       11.523      696.814      151.519        0.047      344.118       20.708      854.514
05/21/2013  15:07:00     -484.159     -343.512        7.136      335.427      232.711      136.644   112511.579    54154.231    18671.679       26.886        9.267      593.642      167.893        0.080      344.284       20.989      854.446
05/21/2013  15:08:00     -492.406     -258.924      -11.865      299.474      212.722      108.218    89684.399    45250.487    11711.193       22.812        7.332      556.332      136.252        0.060      344.533       21.416      854.534
05/21/2013  15:09:00     -767.531     -594.486      -12.958      435.043      341.192      185.561   189262.530   116412.141    34432.802       64.133       17.005      970.833      217.396        0.050      344.052       20.593      854.574
05/21/2013  15:10:00     -591.709     -230.002      -19.025      364.364      278.352      155.856   132761.446    77479.751    24291.192       31.891       11.727      634.839      182.415        0.083      344.164       20.787      854.631
05/21/2013  15:11:00     -548.850     -433.719      -12.489      345.329      279.643      139.997   119252.189    78200.110    19599.249       35.323       10.853      699.535      176.015        0.063      344.228       20.895      854.672
05/21/2013  15:12:00     -844.204     -373.739      -21.917      480.756      225.065      124.658   231126.461    50654.313    15539.613       57.502       14.866      923.235      163.907        0.032      344.062       20.612      854.659
05/21/2013  15:13:00     -594.509     -347.682       16.258      400.968      329.453      151.644   160775.603   108539.307    22995.765       38.339       14.616      688.711      203.713        0.087      343.895       20.324      854.631
05/21/2013  15:14:00     -489.389     -257.140      -19.103      326.350      323.974      137.863   106504.292   104959.221    19006.230       26.818       11.523      552.832      157.029        0.081      344.126       20.720      854.523
05/21/2013  15:15:00     -396.585     -235.884        3.995      250.080      243.093      115.998    62539.967    59094.301    13455.556       17.399        6.754      461.434      130.942        0.081      344.318       21.047      854.551
05/21/2013  15:16:00     -538.575     -237.717       18.470      419.402      252.307      153.829   175897.734    63658.900    23663.393       30.501       13.161      588.704      199.266        0.115      344.221       20.884      854.534
05/21/2013  15:17:00     -420.871     -100.929       18.691      292.074      222.409      127.326    85307.353    49465.732    16211.792       16.930        7.549      432.803      129.335        0.089      344.295       21.009      854.508
05/21/2013  15:18:00     -514.971     -206.224      -19.433      337.124      283.599      131.113   113652.927    80428.584    17190.548       25.964       10.564      554.729      163.222        0.087      344.174       20.804      854.557
05/21/2013  15:19:00     -357.747     -233.428        7.969      315.864      264.436      130.251    99769.836    69926.282    16965.260       18.456        9.333      427.167      136.540        0.102      344.172       20.799      854.564
05/21/2013  15:20:00     -787.119     -390.888        2.305      443.804      298.849      170.167   196961.847    89310.991    28956.715       54.373       15.761      878.834      211.084        0.058      343.933       20.391      854.535
05/21/2013  15:21:00     -631.472     -426.951       -4.517      371.589      320.663      162.016   138078.684   102825.043    26249.224       42.405       13.358      762.262      190.919        0.063      344.072       20.627      854.605
05/21/2013  15:22:00     -705.384     -286.034      -18.047      367.006      323.266      140.175   134693.630   104501.154    19649.077       41.922       12.942      761.172      162.183        0.045      344.111       20.694      854.610
05/21/2013  15:23:00     -744.104     -418.962      -30.388      295.191      273.559      136.950    87137.774    74834.659    18755.352       45.540        9.036      853.944      146.846        0.030      344.083       20.646      854.642
05/21/2013  15:24:00     -604.648     -388.700      -17.629      332.295      307.602      150.485   110420.087    94619.138    22645.742       37.229       11.384      718.809      175.969        0.060      343.939       20.399      854.580
05/21/2013  15:25:00     -611.902     -349.632      -24.138      317.179      319.339      118.315   100602.440   101977.654    13998.550       35.687       10.829      704.746      135.043        0.037      344.077       20.637      854.547
05/21/2013  15:26:00     -648.122     -222.302      -22.180      297.997      196.729      131.274    88802.239    38702.403    17232.976       30.733        7.237      685.186      156.360        0.052      344.055       20.599      854.634
05/21/2013  15:27:00     -561.079     -368.226      -14.378      316.495      286.721      146.884   100169.251    82209.019    21574.824       32.724       10.198      671.119      169.250        0.064      343.997       20.498      854.639
05/21/2013  15:28:00     -463.151     -271.566       -4.727      298.757      248.984      131.727    89255.903    61992.868    17351.877       22.841        8.430      536.896      158.144        0.087      344.090       20.659      854.657
05/21/2013  15:29:00     -378.213     -350.447        8.664      300.380      257.964      120.381    90228.004    66545.555    14491.538       21.856        8.563      515.615      134.413        0.068      344.084       20.650      854.667
05/21/2013  15:30:00     -731.836     -506.134      -20.193      368.086      307.432      134.831   135487.447    94514.449    18179.330       52.012       12.409      889.806      172.698        0.038      343.908       20.348      854.639
05/21/2013  15:31:00     -664.988     -370.078      -28.592      371.121      332.557      154.889   137730.914   110594.115    23990.508       42.609       13.616      761.030      185.526        0.059      343.915       20.360      854.656
05/21/2013  15:32:00     -695.988     -418.760      -27.733      369.326      280.022      151.259   136401.621    78412.289    22879.297       44.906       11.885      812.255      185.276        0.052      343.951       20.421      854.606
05/21/2013  15:33:00     -662.076     -426.141      -21.212      330.984      272.525      144.581   109550.648    74270.074    20903.716       41.252       10.236      787.363      149.567        0.036      343.955       20.429      854.616
05/21/2013  15:34:00     -432.215     -286.931       -0.143      318.539      282.661      149.108   101467.340    79897.254    22233.247       23.633       10.180      518.786      163.409        0.099      344.074       20.631      854.708
05/21/2013  15:35:00     -683.370     -333.567      -27.795      324.109      278.557      141.551   105046.916    77593.762    20036.566       39.081       10.134      760.435      144.594        0.036      344.001       20.506      854.755
05/21/2013  15:36:00     -757.850     -423.939      -32.212      378.178      298.308      158.239   143018.647    88987.645    25039.595       50.602       12.852      868.367      195.923        0.051      343.959       20.436      854.720
05/21/2013  15:37:00     -513.432     -279.109       -9.666      312.277      236.146      118.716    97516.945    55764.909    14093.604       25.446        8.369      584.392      123.752        0.045      344.023       20.544      854.737
05/21/2013  15:38:00     -827.011     -113.446      -14.525      340.839      225.465      131.407   116171.443    50834.425    17267.732       44.061        9.214      834.756      154.058        0.034      344.105       20.686      854.662
05/21/2013  15:39:00     -613.894     -228.460      -27.311      294.019      270.502      114.601    86447.432    73171.153    13133.291       30.124        8.638      655.027      130.752        0.040      344.068       20.622      854.675
05/21/2013  15:40:00     -526.136     -207.629        3.751      292.139      219.505      126.608    85345.324    48182.377    16029.480       23.472        7.478      565.622      142.112        0.063      343.981       20.474      854.605
05/21/2013  15:41:00     -496.585     -285.694       -8.034      357.812      275.826      152.104   128029.516    76080.072    23135.581       27.772       11.362      572.903      176.334        0.095      344.137       20.739      854.568
05/21/2013  15:42:00     -627.076      -91.442      -21.239      295.011      224.347      130.352    87031.655    50331.501    16991.601       27.816        7.718      633.708      146.545        0.053      344.259       20.947      854.639
05/21/2013  15:43:00     -575.807     -142.632       -8.199      306.681      213.426      117.739    94053.309    45550.504    13862.527       25.268        7.673      593.209      135.098        0.052      344.239       20.914      854.725
05/21/2013  15:44:00     -514.914     -204.052      -22.655      234.387      165.195      108.673    54937.431    27289.491    11809.871       20.064        4.702      553.871      110.899        0.040      344.070       20.624      854.700
05/21/2013  15:45:00     -679.376     -402.972       -8.665      388.177      306.872      156.260   150681.060    94170.455    24417.169       44.659       13.463      789.897      179.409        0.052      343.946       20.412      854.500
05/21/2013  15:46:00     -517.738     -393.829      -34.092      401.258      337.737      182.469   161008.266   114065.963    33294.855       36.628       15.418      650.503      216.917        0.111      344.165       20.786      854.532
05/21/2013  15:47:00     -467.952       -5.249      -28.543      247.687      207.466       95.677    61348.830    43042.281     9154.062       16.666        5.677      467.982      107.706        0.053      344.387       21.165      854.703
05/21/2013  15:48:00     -642.662     -269.153      -22.645      339.227      252.511      125.324   115075.027    63761.753    15706.207       34.022        9.727      696.748      152.428        0.048      344.351       21.104      854.745
05/21/2013  15:49:00     -463.570     -189.551       -0.039      232.602      212.716      100.389    54103.693    45248.128    10077.921       18.011        5.471      500.826      106.401        0.045      344.421       21.225      854.787
05/21/2013  15:50:00     -462.728     -309.615        2.964      273.810      172.418      113.988    74972.018    29727.902    12993.182       21.382        5.885      556.757      105.221        0.036      344.226       20.891      854.785
05/21/2013  15:51:00     -519.626     -143.487      -32.661      241.778      190.149      104.011    58456.724    36156.734    10818.322       19.853        5.272      539.073      102.603        0.036      344.421       21.224      854.738
05/21/2013  15:52:00     -514.747     -231.126      -15.632      318.042      232.320      135.577   101150.869    53972.701    18381.232       24.603        8.675      564.255      166.228        0.087      344.330       21.069      854.779
05/21/2013  15:53:00     -323.114     -157.286       15.676      240.934      162.073      111.012    58049.119    26267.530    12323.693       11.299        4.832      359.363      134.679        0.140      344.268       20.964      854.784
05/21/2013  15:54:00     -659.801     -165.203      -32.849      248.183      198.358      106.502    61594.977    39345.732    11342.645       28.797        5.614      680.169      110.312        0.026      344.076       20.635      854.755
05/21/2013  15:55:00     -598.107     -275.256      -38.435      259.303      207.695      118.836    67237.824    43137.202    14121.878       27.971        6.225      658.405      126.679        0.037      344.158       20.776      854.666
05/21/2013  15:56:00     -826.929     -279.501      -36.542      434.884      270.259      141.314   189124.134    73039.711    19969.784       52.264       14.107      872.888      175.686        0.041      344.213       20.871      854.725
05/21/2013  15:57:00     -589.125     -240.551       -3.635      307.468      244.709      123.397    94536.452    59882.586    15226.783       28.726        8.482      636.344      134.716        0.045      344.171       20.798      854.782
05/21/2013  15:58:00     -547.712     -264.979      -21.678      298.269      222.210      132.325    88964.124    49377.326    17509.864       26.323        7.793      608.443      136.366        0.050      343.905       20.342      854.701
05/21/2013  15:59:00     -419.387     -173.422       -0.624      280.844      235.713      112.560    78873.602    55560.779    12669.767       17.650        7.355      453.829      127.281        0.079      344.207       20.859      854.667
05/21/2013  16:00:00     -560.852     -277.148      -38.077      332.031      286.710      135.406   110244.262    82202.827    18334.805       30.176       10.539      625.593      133.643        0.046      343.955       20.429      854.662
05/21/2013  16:01:00     -553.668     -239.223        5.130      349.512      265.152      153.816   122158.530    70305.369    23659.345       28.992       10.806      603.139      161.915        0.072      343.798       20.162      854.628
05/21/2013  16:02:00     -487.240     -262.118      -29.617      271.766      238.651      114.820    73856.778    56954.248    13183.631       22.546        7.200      553.271      117.709        0.045      343.923       20.374      854.536
05/21/2013  16:03:00     -574.569      -27.226      -28.326      266.985      215.499      112.406    71280.817    46439.895    12635.171       23.099        6.518      575.214      119.017        0.043      344.198       20.843      854.566
05/21/2013  16:04:00     -537.373       -0.455      -16.585      305.591      203.004      105.572    93386.050    41210.452    11145.402       21.736        7.287      537.373      139.669        0.068      344.220       20.880      854.537
05/21/2013  16:05:00     -528.498     -383.619      -41.423      402.485      248.136      145.359   161993.867    61571.359    21129.293       33.639       12.235      653.049      167.948        0.066      344.044       20.581      854.510
05/21/2013  16:06:00     -504.929     -171.169      -36.667      222.318      199.580      106.059    49425.241    39832.176    11248.488       19.303        5.025      533.153      108.957        0.042      344.124       20.718      854.529
05/21/2013  16:07:00     -559.488     -234.277      -11.975      294.490      197.300      106.820    86724.572    38927.473    11410.529       25.253        6.853      606.558       95.632        0.025      344.045       20.581      854.529
05/21/2013  16:08:00     -319.024      -62.868       12.146      223.786      240.560      118.588    50080.257    57869.125    14063.213       11.392        6.101      325.159      122.497        0.142      344.262       20.953      854.390
05/21/2013  16:09:00     -476.543      -69.141      -21.384      274.120      226.848      108.047    75141.874    51459.919    11674.141       18.527        6.914      481.533      121.969        0.064      344.219       20.880      854.366
05/21/2013  16:10:00     -367.560     -123.545       -8.797      271.435      202.446      111.990    73676.974    40984.376    12541.702       13.880        6.360      387.768      134.292        0.120      344.328       21.066      854.343
05/21/2013  16:11:00     -392.213     -181.725        8.360      308.331      242.322      152.411    95068.094    58720.193    23229.010       18.193        8.851      432.267      153.625        0.126      344.431       21.242      854.188
05/21/2013  16:12:00     -606.293     -220.412      -37.585      322.251      290.490      122.430   103845.409    84384.646    14989.123       31.036       10.161      645.114      131.212        0.041      344.222       20.884      854.211
05/21/2013  16:13:00     -621.505     -230.606       -0.783      368.244      237.351      134.783   135603.817    56335.492    18166.542       32.473       10.505      662.909      175.702        0.070      344.135       20.736      854.301
05/21/2013  16:14:00     -698.706     -219.574       -0.403      321.286      283.720      133.926   103224.940    80497.129    17936.048       36.899       10.083      732.395      157.530        0.046      344.091       20.661      854.367
05/21/2013  16:15:00     -455.444     -268.810       -9.347      335.585      348.200      157.778   112617.268   121243.018    24893.912       26.921       12.938      528.855      181.808        0.118      344.243       20.920      854.525
05/21/2013  16:16:00     -382.241     -236.907       -7.983      355.087      323.480      154.766   126086.706   104639.393    23952.482       22.844       12.734      449.703      196.978        0.192      344.193       20.836      854.378
05/21/2013  16:17:00     -531.951     -194.776      -12.177      353.713      276.791      123.188   125112.907    76613.116    15175.395       26.893       10.845      566.489      146.290        0.067      344.014       20.529      854.500
05/21/2013  16:18:00     -489.613     -127.213      -32.496      291.774      191.491      118.055    85132.223    36668.959    13936.968       19.632        6.787      505.870      126.622        0.063      344.108       20.690      854.542
05/21/2013  16:19:00     -402.069     -133.385        5.522      276.598      193.623      125.347    76506.516    37489.994    15711.870       15.457        6.485      423.617      131.590        0.096      344.079       20.640      854.526
05/21/2013  16:20:00     -337.594     -198.265       -6.894      223.269      167.289       99.729    49848.890    27985.477     9945.905       12.054        4.389      391.508      104.973        0.072      344.188       20.826      854.513
05/21/2013  16:21:00     -644.063     -153.853      -34.702      356.306      227.135      111.941   126954.304    51590.169    12530.698       31.534        9.554      662.185      121.269        0.034      344.142       20.747      854.451
05/21/2013  16:22:00     -876.389     -131.413      -42.860      346.814      236.523      124.296   120280.084    55943.141    15449.441       48.938        9.584      886.187      161.236        0.033      344.050       20.590      854.459
05/21/2013  16:23:00     -711.007     -125.452      -37.484      336.628      199.694      118.566   113318.217    39877.796    14057.809       34.493        8.363      721.990      133.026        0.034      343.953       20.424      854.492
05/21/2013  16:24:00     -622.836     -198.391      -11.856      272.282      221.730      118.850    74137.308    49164.076    14125.404       28.240        6.871      653.669      138.772        0.045      343.956       20.429      854.480
05/21/2013  16:25:00     -397.040     -107.137        6.420      358.076      220.711      112.922   128218.381    48713.308    12751.475       17.938        9.484      411.241      145.826        0.126      344.139       20.743      854.447
05/21/2013  16:26:00     -305.252       -6.062      -16.964      205.415      184.760       89.524    42195.175    34136.343     8014.565        8.891        4.217      305.312       89.610        0.086      344.253       20.937      854.369
05/21/2013  16:27:00     -337.612     -255.479        5.466      273.515      234.852      132.951    74810.564    55155.242    17675.996       16.343        7.382      423.381      148.291        0.123      344.162       20.781      854.280
05/21/2013  16:28:00     -894.187     -140.087      -42.532      410.112      244.736      148.986   168191.809    59895.638    22196.690       53.559       12.514      905.094      192.232        0.045      344.013       20.527      854.392
05/21/2013  16:29:00     -515.542     -159.344        4.230      399.743      290.811      143.005   159794.469    84570.942    20450.396       27.795       13.241      539.605      176.554        0.107      343.924       20.375      854.567
05/21/2013  16:30:00     -352.704      -53.680      -17.299      240.083      144.364       95.939    57639.712    20840.993     9204.326       10.762        4.384      356.766       88.978        0.062      344.172       20.799      854.570
05/21/2013  16:31:00     -592.406     -154.232      -25.693      216.558      257.227      100.830    46897.355    66165.832    10166.592       24.929        6.161      612.153      112.505        0.034      344.058       20.603      854.496
05/21/2013  16:32:00     -573.416      -34.046      -20.284      325.071      166.936      107.993   105671.158    27867.764    11662.523       23.776        7.260      574.426      132.670        0.053      344.136       20.740      854.517
05/21/2013  16:33:00     -746.915     -176.553      -31.531      427.919      244.828      137.518   183114.901    59940.908    18911.314       42.595       13.098      767.498      170.492        0.049      343.952       20.426      854.445
05/21/2013  16:34:00     -665.187     -150.489      -11.902      365.478      282.789      134.708   133574.279    79969.644    18146.256       34.843       11.585      681.998      169.282        0.062      343.984       20.478      854.501
05/21/2013  16:35:00     -554.500     -116.172      -17.583      333.895      175.568      101.063   111486.050    30823.967    10213.717       23.687        7.626      566.538      114.314        0.041      344.085       20.650      854.530
05/21/2013  16:36:00     -566.958      -67.564      -10.045      331.620      254.710      121.349   109972.084    64877.298    14725.459       25.780        9.479      570.970      118.028        0.043      344.043       20.579      854.476
05/21/2013  16:37:00     -617.872     -276.279       -6.695      301.467      270.377      135.734    90882.332    73103.452    18423.806       32.024        9.120      676.827      135.365        0.040      343.961       20.437      854.515
05/21/2013  16:38:00     -464.738     -211.912       16.994      331.206      302.992      158.363   109697.248    91804.301    25078.693       24.383       11.329      510.772      182.028        0.127      343.921       20.371      854.546
05/21/2013  16:39:00     -576.538      -73.413      -26.211      352.104      233.416      124.830   123977.146    54482.816    15582.484       26.622        9.702      581.193      155.238        0.071      343.896       20.328      854.570
05/21/2013  16:40:00     -602.002     -286.531      -24.218      358.937      317.453      149.011   128835.487   100776.534    22204.282       34.840       12.591      666.713      172.141        0.067      343.881       20.301      854.548
05/21/2013  16:41:00     -837.102     -176.633      -18.465      381.558      281.847      150.016   145586.675    79437.797    22504.906       48.985       12.376      855.535      180.306        0.044      343.773       20.116      854.578
05/21/2013  16:42:00     -788.124     -267.535      -32.348      340.127      319.355      149.579   115686.299   101987.850    22373.838       46.686       12.002      832.295      151.150        0.033      343.787       20.142      854.529
05/21/2013  16:43:00     -787.261     -202.264      -32.972      463.427      296.714      134.527   214764.381    88038.999    18097.393       49.127       16.045      812.828      161.290        0.039      343.798       20.161      854.530
05/21/2013  16:44:00     -533.062     -232.152       -2.318      273.519      247.576      105.869    74812.787    61294.046    11208.183       24.265        7.366      581.421      113.685        0.038      343.893       20.321      854.588
05/21/2013  16:45:00     -471.241      -21.839      -10.894      320.671      204.709      123.315   102829.795    41905.892    15206.544       19.127        7.997      471.747      150.699        0.102      343.776       20.123      854.635
05/21/2013  16:46:00     -482.427     -179.597      -20.426      348.052      228.299      159.565   121140.040    52120.588    25461.018       23.202        9.936      514.773      174.703        0.115      343.912       20.355      854.551
05/21/2013  16:47:00     -294.276     -161.905       25.937      308.552      200.035      122.802    95204.398    40014.176    15080.407       13.186        7.515      335.875      144.437        0.185      344.089       20.657      854.615
05/21/2013  16:48:00     -247.285      -67.351       38.786      277.607      161.745      104.867    77065.649    26161.409    10997.131        9.068        5.711      256.293      110.655        0.186      344.265       20.959      854.769
05/21/2013  16:49:00     -525.805     -164.745      -17.921      341.714      228.366      117.791   116768.496    52151.054    13874.637       24.333        9.140      551.010      147.898        0.072      343.918       20.365      854.744
05/21/2013  16:50:00     -597.999     -116.665      -23.380      296.799      249.386      126.332    88089.745    62193.208    15959.864       26.897        8.312      609.273      138.051        0.051      343.754       20.086      854.679
05/21/2013  16:51:00     -547.221     -115.653      -44.867      268.354      177.154       89.707    72013.619    31383.501     8047.261       21.312        5.572      559.308      108.773        0.038      343.788       20.143      854.599
05/21/2013  16:52:00     -377.337     -143.615        1.433      219.416      180.069      100.768    48143.200    32424.958    10154.094       12.685        4.536      403.743      117.848        0.085      343.958       20.434      854.583
05/21/2013  16:53:00     -439.290      -25.859      -13.677      233.812      211.957       85.367    54668.018    44925.856     7287.572       15.033        5.344      440.050      104.298        0.056      344.050       20.590      854.532
05/21/2013  16:54:00     -394.590     -229.557       -8.888      224.037      183.408       98.872    50192.700    33638.552     9775.609       15.102        4.680      456.506      110.505        0.059      344.043       20.578      854.514
05/21/2013  16:55:00     -507.865     -186.118       26.027      399.212      231.408      148.118   159370.079    53549.786    21938.949       26.400       11.743      540.894      192.474        0.127      344.008       20.519      854.436
05/21/2013  16:56:00     -694.865     -123.524       -5.162      372.103      245.533      134.893   138460.649    60286.648    18196.109       35.749       10.847      705.759      170.401        0.058      343.778       20.127      854.495
05/21/2013  16:57:00     -783.622     -176.905      -33.737      329.547      237.378      127.377   108601.308    56348.551    16225.003       41.380        9.059      803.342      160.602        0.040      343.692       19.978      854.536
05/21/2013  16:58:00     -701.529     -186.189      -14.115      327.610      249.833      124.520   107328.560    62416.701    15505.123       35.609        9.263      725.817      137.431        0.036      343.653       19.913      854.548
05/21/2013  16:59:00     -280.358      -83.791        7.866      158.513      148.082       83.568    25126.219    21928.379     6983.568        6.985        2.702      292.612       72.599        0.062      344.040       20.573      854.551
05/21/2013  17:00:00     -164.035     -186.960       29.001      179.488      184.919       99.746    32215.826    34195.193     9949.259        6.952        3.818      248.720      111.201        0.200      343.862       20.270      854.521
05/21/2013  17:01:00     -505.804      -57.264      -14.706      243.495      174.688      105.129    59289.763    30515.926    11052.130       18.007        5.043      509.035      111.910        0.048      343.879       20.298      854.510
05/21/2013  17:02:00     -942.443     -152.134      -59.988      305.521      254.272      126.807    93343.230    64654.068    16079.922       54.447        8.704      954.643      133.717        0.020      343.661       19.927      854.483
05/21/2013  17:03:00     -600.592     -240.584       -9.451      362.599      184.636      105.808   131477.767    34090.567    11195.404       29.769        8.838      646.986      145.936        0.051      343.854       20.255      854.568
05/21/2013  17:04:00     -685.701     -198.566      -15.438      353.131      276.996      152.368   124701.436    76726.788    23215.926       36.720       11.232      713.872      169.588        0.056      343.639       19.889      854.543
05/21/2013  17:05:00     -780.133     -103.275      -50.126      323.165      290.578      118.541   104435.549    84435.793    14052.013       41.231       10.146      786.939      132.661        0.028      343.608       19.835      854.547
05/21/2013  17:06:00     -512.567     -217.233       -6.037      308.625      273.826      128.083    95249.179    74980.827    16405.259       24.826        9.332      556.701      158.695        0.081      343.670       19.940      854.540
05/21/2013  17:07:00     -366.307     -166.306       -5.335      267.772      257.874      109.849    71701.984    66499.031    12066.872       15.604        7.513      402.291      120.692        0.090      343.817       20.194      854.594
05/21/2013  17:08:00     -590.967      -55.126      -20.670      386.674      199.273      131.407   149516.404    39709.858    17267.694       27.956       10.325      593.533      178.325        0.090      343.690       19.976      854.569
05/21/2013  17:09:00     -789.962      -60.294      -29.703      279.862      212.649      113.855    78322.991    45219.777    12962.903       38.250        6.825      792.260      115.647        0.021      343.554       19.745      854.524
05/21/2013  17:10:00     -591.800     -177.801      -18.797      283.360      296.307      124.013    80293.141    87797.991    15379.191       28.279        9.174      617.932      141.545        0.052      343.613       19.845      854.493
05/21/2013  17:11:00     -764.188     -246.737      -19.587      396.853      241.143      128.027   157491.998    58149.892    16390.850       43.859       11.602      803.033      161.835        0.041      343.515       19.679      854.432
05/21/2013  17:12:00     -554.348     -130.302      -17.785      367.209      216.919      114.183   134842.720    47053.931    13037.696       25.973        9.747      569.456      140.813        0.061      343.742       20.065      854.451
05/21/2013  17:13:00     -456.727     -201.574      -10.720      249.045      290.675      118.105    62023.631    84492.152    13948.777       20.487        8.023      499.230      103.683        0.043      343.697       19.988      854.482
05/21/2013  17:14:00     -593.983      -52.056      -22.810      285.788      171.587      118.889    81674.517    29442.085    14134.708       24.062        6.263      596.260      132.277        0.049      343.647       19.901      854.461
05/21/2013  17:15:00     -312.627     -206.689      -17.250      163.703      151.671       92.544    26798.685    23004.151     8564.469        9.955        2.918      374.774       86.394        0.053      343.792       20.149      854.491
05/21/2013  17:16:00     -390.449     -120.948      -15.991      260.067      165.007      101.815    67635.030    27227.326    10366.350       13.626        5.261      408.753      118.262        0.084      343.756       20.087      854.446
05/21/2013  17:17:00     -571.604     -149.224      -27.245      199.093      230.593      100.657    39637.974    53173.074    10131.820       22.632        5.147      590.761       96.735        0.027      343.733       20.048      854.387
05/21/2013  17:18:00     -483.595      -63.313        6.176      314.699      255.319      130.977    99035.464    65187.960    17154.994       20.961        9.069      487.722      136.519        0.078      343.783       20.134      854.329
05/21/2013  17:19:00     -405.778      -88.494      -14.166      261.602      169.181       99.552    68435.591    28622.353     9910.698       13.981        5.348      415.316      110.093        0.070      343.785       20.139      854.293
05/21/2013  17:20:00     -522.402     -141.611      -14.722      335.471      243.387      118.370   112541.023    59237.473    14011.343       23.944        9.289      541.256      130.151        0.058      343.771       20.114      854.264
05/21/2013  17:21:00     -698.029     -160.618      -26.859      324.177      238.748      133.008   105090.616    57000.657    17691.077       34.674        8.989      716.270      132.652        0.034      343.753       20.083      854.274
05/21/2013  17:22:00     -523.876     -240.973        7.398      301.973      260.386      140.507    91187.817    67801.075    19742.327       25.561        8.937      576.641      162.261        0.079      343.666       19.935      854.427
05/21/2013  17:23:00     -568.283     -331.950      -24.676      333.701      253.599      153.794   111356.290    64312.430    23652.457       31.649        9.966      658.131      186.764        0.081      343.499       19.650      854.458
05/21/2013  17:24:00     -417.821     -210.757      -32.130      215.202      191.013       91.446    46311.870    36485.864     8362.394       15.557        4.558      467.967       71.650        0.023      343.586       19.798      854.458
05/21/2013  17:25:00     -337.405     -114.689       -8.323      210.620      171.751       94.804    44360.611    29498.420     8987.816       10.494        4.142      356.364       80.947        0.052      343.750       20.077      854.442
05/21/2013  17:26:00     -703.891     -164.465      -37.505      234.056      208.428      110.000    54782.032    43442.075    12099.933       31.710        5.516      722.849       97.437        0.018      343.436       19.543      854.396
05/21/2013  17:27:00     -665.470      -67.766      -39.529      304.018      212.453      124.508    92427.074    45136.142    15502.309       30.100        7.653      668.912      151.615        0.051      343.497       19.646      854.318
05/21/2013  17:28:00     -384.982     -185.645       -9.785      238.696      234.494      126.569    56975.853    54987.371    16019.594       15.535        6.399      427.405      115.655        0.073      343.488       19.633      854.357
05/21/2013  17:29:00     -513.142     -122.976      -34.773      272.685      191.323      105.379    74356.868    36604.378    11104.836       20.083        6.103      527.672      120.611        0.052      343.542       19.724      854.363
05/21/2013  17:30:00     -475.086      -33.954      -28.817      273.136      176.586      114.252    74603.072    31182.583    13053.624       17.324        5.942      476.298      124.832        0.069      343.476       19.612      854.307
05/21/2013  17:31:00     -566.227      -84.561      -12.521      329.115      257.097      137.527   108316.970    66099.121    18913.608       26.059        9.666      572.507      159.127        0.077      343.600       19.823      854.271
05/21/2013  17:32:00     -532.257     -280.257      -20.261      420.500      269.403      140.259   176819.960    72578.013    19672.534       31.561       13.454      601.533      197.090        0.107      343.501       19.655      854.357
05/21/2013  17:33:00     -572.578     -118.046      -12.633      305.984      224.645      134.356    93626.334    50465.199    18051.527       25.201        8.107      584.620      146.191        0.063      343.473       19.606      854.370
05/21/2013  17:34:00     -479.761     -187.995      -13.387      312.460      303.735      141.610    97631.504    92255.126    20053.406       23.777       10.497      515.280      164.784        0.102      343.507       19.665      854.389
05/21/2013  17:35:00     -344.888     -164.262       10.231      289.707      247.047      115.006    83930.379    61032.177    13226.405       15.208        7.909      382.008      145.275        0.145      343.446       19.559      854.374
05/21/2013  17:36:00     -596.616     -134.554      -23.203      312.061      213.673      107.723    97382.329    45656.102    11604.173       26.459        7.732      611.601      101.719        0.028      343.452       19.570      854.422
05/21/2013  17:37:00     -497.085     -178.665        9.130      262.104      198.637      116.575    68698.367    39456.755    13589.663       20.040        6.087      528.218      131.962        0.062      343.468       19.597      854.412
05/21/2013  17:38:00     -456.497     -211.051        0.281      239.148      243.738      118.191    57191.694    59407.971    13969.096       19.172        6.528      502.923      117.287        0.054      343.432       19.537      854.383
05/21/2013  17:39:00     -520.333     -130.046       -6.409      295.230      207.052      108.754    87160.624    42870.427    11827.355       21.475        7.093      536.338      119.366        0.050      343.439       19.548      854.371
05/21/2013  17:40:00     -516.003     -283.016      -27.043      327.361      244.571      135.399   107165.017    59815.083    18332.763       26.616        9.266      588.521      170.715        0.084      343.304       19.318      854.326
05/21/2013  17:41:00     -669.109     -129.930      -24.943      311.448      206.361      119.315    96999.621    42584.969    14236.003       30.948        7.691      681.607      135.538        0.040      343.379       19.447      854.341
05/21/2013  17:42:00     -659.102     -143.304      -27.051      278.918      228.926      122.578    77795.311    52407.125    15025.387       30.043        7.261      674.501      129.406        0.037      343.187       19.119      854.306
05/21/2013  17:43:00     -455.181        5.336       -7.455      239.530      188.190      106.727    57374.474    35415.409    11390.640       15.571        5.209      455.212      111.698        0.060      343.383       19.453      854.344
05/21/2013  17:44:00     -355.459      -32.550        7.161      228.060      158.333       93.392    52011.170    25069.223     8722.156       10.661        4.290      356.946      107.455        0.091      343.514       19.676      854.362
05/21/2013  17:45:00     -358.051     -282.956        4.923      251.583      213.280      115.637    63293.877    45488.565    13371.870       16.520        6.108      456.360      139.502        0.093      343.271       19.262      854.317
05/21/2013  17:46:00     -492.228     -132.221      -32.332      204.827      212.150       90.355    41954.111    45007.521     8164.096       17.795        4.756      509.678       87.468        0.029      343.320       19.344      854.324
05/21/2013  17:47:00     -626.599      -19.414      -26.422      335.287      243.324      111.355   112417.210    59206.555    12399.965       28.882        9.201      626.899      140.590        0.050      343.384       19.454      854.298
05/21/2013  17:48:00     -495.371     -143.680       -0.618      201.501      199.820      110.612    40602.534    39928.035    12234.949       17.938        4.638      515.787      109.455        0.045      343.357       19.409      854.305
05/21/2013  17:49:00     -486.481     -103.908      -18.092      297.897      279.801      121.475    88742.455    78288.671    14756.077       21.475        9.089      497.454      140.187        0.079      343.423       19.521      854.260
05/21/2013  17:50:00     -544.808      -32.186      -21.715      320.649      226.842      115.146   102815.469    51457.206    13258.704       23.289        8.377      545.758      134.929        0.061      343.459       19.582      854.273
05/21/2013  17:51:00     -333.504     -143.990       -1.564      234.931      137.730       84.535    55192.373    18969.665     7146.114       10.662        4.065      363.260       98.207        0.073      343.590       19.805      854.335
05/21/2013  17:52:00     -603.366     -147.359      -30.728      235.514      205.941      108.947    55466.763    42411.535    11869.461       24.821        5.487      621.100      116.666        0.035      343.347       19.391      854.334
05/21/2013  17:53:00     -633.983      -40.534      -17.096      365.191      241.467      136.393   133364.545    58306.134    18603.080       30.703       10.514      635.278      156.987        0.061      343.313       19.333      854.343
05/21/2013  17:54:00     -427.630     -101.972       -2.775      252.515      219.672      117.000    63763.927    48255.817    13689.063       15.947        6.285      439.620      119.567        0.074      343.350       19.396      854.376
05/21/2013  17:55:00     -477.793     -148.105      -17.712      314.739      253.080      124.660    99060.714    64049.643    15540.029       21.456        8.933      500.222      149.171        0.089      343.242       19.214      854.406
05/21/2013  17:56:00     -613.542     -194.236      -35.412      297.637      248.542      119.544    88588.005    61773.015    14290.800       29.000        8.233      643.554      136.635        0.045      343.147       19.050      854.366
05/21/2013  17:57:00     -810.303     -268.154      -35.638      426.026      264.015      141.202   181497.926    69704.070    19937.866       50.040       13.557      853.520      178.626        0.044      343.031       18.853      854.314
05/21/2013  17:58:00     -475.558     -221.832      -10.420      353.544      198.243      124.652   124993.280    39300.336    15538.166       22.762        8.992      524.752      135.167        0.066      343.092       18.957      854.336
05/21/2013  17:59:00     -314.142      -69.927       10.234      230.332      161.138      110.364    53052.962    25965.430    12180.221        9.742        4.560      321.831      131.159        0.166      343.240       19.208      854.350
05/21/2013  18:00:00     -563.184     -144.430      -27.419      277.723      191.884      112.616    77129.955    36819.468    12682.378       23.268        6.332      581.409      121.823        0.044      343.239       19.206      854.378
05/21/2013  18:01:00     -521.896     -225.056      -15.120      334.471      210.600      120.497   111870.906    44352.255    14519.581       24.696        8.537      568.354      156.525        0.076      343.145       19.046      854.434
05/21/2013  18:02:00     -321.209     -291.900       -2.868      266.136      215.717      141.492    70828.379    46533.643    20019.855       16.286        6.869      434.029      151.146        0.121      343.127       19.016      854.464
05/21/2013  18:03:00     -470.717     -135.987      -24.613      231.992      217.447      106.776    53820.124    47283.302    11401.094       17.657        5.625      489.966       94.391        0.037      343.073       18.925      854.472
05/21/2013  18:04:00     -489.114     -214.636      -21.813      244.847      252.250      113.324    59950.169    63629.864    12842.434       21.107        6.821      534.136      113.434        0.045      343.087       18.949      854.444
05/21/2013  18:05:00     -427.797     -252.763        2.283      244.157      222.711      104.748    59612.572    49600.202    10972.098       18.352        6.009      496.890      122.028        0.060      343.042       18.871      854.406
05/21/2013  18:06:00     -400.776     -151.122      -16.574      270.760      188.013       92.863    73311.137    35348.847     8623.586       15.048        5.864      428.321      116.145        0.074      343.126       19.015      854.411
05/21/2013  18:07:00     -599.331     -174.394      -12.426      320.107      268.537      123.874   102468.519    72112.248    15344.706       28.981        9.496      624.189      144.875        0.054      343.077       18.929      854.344
05/21/2013  18:08:00     -678.057     -139.177      -41.514      307.880      267.427      119.736    94789.903    71517.381    14336.817       33.071        9.032      692.193      135.552        0.038      343.033       18.855      854.397
05/21/2013  18:09:00     -374.073     -177.826       -9.165      374.985      182.409      133.555   140614.028    33272.864    17836.852       18.164        9.586      414.189      176.970        0.183      343.103       18.975      854.388
05/21/2013  18:10:00     -461.310     -202.736      -11.045      280.876      229.006      128.286    78891.406    52443.700    16457.373       20.088        7.390      503.894      150.460        0.089      343.008       18.814      854.383
05/21/2013  18:11:00     -352.051     -156.001      -10.101      268.581      182.343      103.372    72135.928    33248.861    10685.712       13.220        5.804      385.067      126.367        0.108      343.136       19.032      854.429
05/21/2013  18:12:00     -579.181     -374.256      -18.818      272.992      202.121      114.497    74524.777    40852.961    13109.638       30.215        6.424      689.578      105.932        0.024      342.920       18.664      854.382
05/21/2013  18:13:00     -555.107      -78.177      -20.636      375.689      230.801      117.233   141142.272    53269.145    13743.680       26.138       10.408      560.585      113.377        0.041      342.985       18.774      854.375
05/21/2013  18:14:00     -524.669     -121.600      -26.377      232.987      239.529      103.935    54283.123    57374.128    10802.405       20.658        6.123      538.576      117.398        0.048      343.000       18.800      854.398
05/21/2013  18:15:00     -680.685     -194.737      -31.251      319.407      258.530      137.901   102021.107    66837.661    19016.757       34.502        9.394      707.994      155.606        0.048      342.911       18.650      854.371
05/21/2013  18:16:00     -758.783     -210.223      -10.037      296.456      234.516      117.629    87885.936    54997.784    13836.660       38.835        7.836      787.367      130.661        0.028      342.810       18.476      854.332
05/21/2013  18:17:00     -501.154      -60.809      -17.351      254.877      264.200      109.860    64962.384    69801.783    12069.265       20.096        7.342      504.830      102.278        0.041      342.905       18.638      854.347
05/21/2013  18:18:00     -321.976     -184.593       18.902      295.017      188.247      121.815    87035.024    35437.065    14838.962       13.768        6.866      371.137      144.088        0.151      342.987       18.778      854.367
05/21/2013  18:19:00     -551.623     -134.237      -10.672      350.252      220.166      130.017   122676.746    48473.221    16904.523       25.520        9.403      567.721      165.365        0.085      342.922       18.668      854.366
05/21/2013  18:20:00     -674.384     -184.734      -40.038      321.547      187.881      127.031   103392.642    35299.192    16136.832       32.264        7.741      699.228      159.295        0.052      342.780       18.425      854.351
05/21/2013  18:21:00     -327.011     -113.843       15.498      216.445      149.728       85.281    46848.388    22418.605     7272.874        9.832        3.827      346.261       97.339        0.079      342.922       18.668      854.350
05/21/2013  18:22:00     -274.727     -184.610        1.101      187.947      185.957       93.692    35323.963    34579.907     8778.098        9.410        3.934      330.992       97.505        0.087      342.985       18.773      854.363
05/21/2013  18:23:00     -439.418     -155.059       20.479      301.763      178.346       96.900    91060.672    31807.331     9389.609       17.488        6.613      465.974      131.064        0.079      342.950       18.717      854.369
05/21/2013  18:24:00     -565.880     -250.108      -16.216      342.851      304.565      146.557   117546.936    92760.088    21479.066       30.736       11.589      618.687      181.794        0.086      342.802       18.463      854.309
05/21/2013  18:25:00     -294.757     -175.248        6.960      248.656      170.422      104.720    61829.688    29043.535    10966.321       10.972        5.092      342.919      120.827        0.124      342.926       18.675      854.348
05/21/2013  18:26:00     -448.535     -155.770      -13.123      263.709      170.758       91.576    69542.269    29158.224     8386.113       16.633        5.354      474.814      113.930        0.058      342.886       18.607      854.357
05/21/2013  18:27:00     -472.112      -40.704       -2.919      298.157      224.151      113.413    88897.516    50243.536    12862.421       18.825        7.600      473.863      136.285        0.083      342.922       18.668      854.323
05/21/2013  18:28:00     -743.210     -210.796      -42.894      332.270      275.946      125.329   110403.230    76146.110    15707.308       40.040       10.113      772.526      154.175        0.040      342.742       18.362      854.294
05/21/2013  18:29:00     -476.911     -141.884      -16.825      253.420      258.215      117.463    64221.653    66675.063    13797.601       19.625        7.235      497.569      133.719        0.072      342.892       18.616      854.291
05/21/2013  18:30:00     -540.980     -225.875      -20.111      303.923      225.178       98.730    92369.191    50705.256     9747.597       24.842        7.641      586.242      122.582        0.044      342.778       18.421      854.284
05/21/2013  18:31:00     -251.467     -209.004       14.762      209.013      188.125      106.587    43686.392    35390.900    11360.726        9.877        4.522      326.984      107.284        0.108      342.857       18.558      854.285
05/21/2013  18:32:00     -693.267     -217.987       -1.370      397.384      269.570      134.093   157914.157    72667.727    17981.011       38.830       12.428      726.730      146.387        0.041      342.723       18.330      854.251
05/21/2013  18:33:00     -570.160     -284.554      -21.087      305.829      247.922      126.673    93531.676    61465.430    16046.006       28.874        8.552      637.224      103.644        0.026      342.670       18.239      854.226
05/21/2013  18:34:00     -488.330     -261.256      -32.569      322.105      213.363      135.368   103751.618    45523.800    18324.440       23.766        8.380      553.824      159.216        0.083      342.729       18.340      854.277
05/21/2013  18:35:00     -499.671     -249.976      -24.093      222.384      188.925       93.834    49454.512    35692.507     8804.860       20.333        4.698      558.712      102.201        0.033      342.758       18.389      854.276
05/21/2013  18:36:00     -640.548     -246.332      -44.777      338.901      294.450      142.299   114853.996    86700.803    20249.081       34.735       11.090      686.281      158.882        0.054      342.676       18.250      854.253
05/21/2013  18:37:00     -544.895     -185.210      -14.934      245.227      258.647      128.140    60136.126    66898.410    16419.793       23.742        7.173      575.511      115.646        0.040      342.650       18.206      854.268
05/21/2013  18:38:00     -484.986     -230.516      -15.105      259.180      231.119      127.113    67174.161    53415.849    16157.618       21.263        6.837      536.982      135.372        0.064      342.652       18.207      854.255
05/21/2013  18:39:00     -479.651     -139.520        9.151      362.206      229.579      136.092   131193.016    52706.466    18521.064       22.598       10.121      499.531      164.903        0.109      342.616       18.147      854.258
05/21/2013  18:40:00     -239.174     -208.891        9.987      242.650      245.875      124.258    58879.061    60454.403    15440.172       11.783        6.739      317.553      147.286        0.215      342.635       18.180      854.241
05/21/2013  18:41:00     -361.506     -309.559       -4.707      326.119      267.204      125.145   106353.508    71397.872    15661.205       20.993        9.671      475.934      157.609        0.110      342.608       18.135      854.284
05/21/2013  18:42:00     -474.361     -218.999       -7.034      341.245      261.572      137.361   116448.256    68420.005    18868.025       23.834       10.187      522.474      169.561        0.105      342.541       18.021      854.260
05/21/2013  18:43:00     -735.933     -309.043      -22.773      345.573      242.574      120.230   119420.601    58842.191    14455.223       41.513        9.636      798.188      124.491        0.024      342.481       17.918      854.257
05/21/2013  18:44:00     -484.942     -345.167       -8.336      278.782      256.326      117.367    77719.148    65702.827    13775.112       25.576        7.860      595.239      140.042        0.055      342.467       17.895      854.297
05/21/2013  18:45:00     -241.432     -178.280        9.179      167.168      157.519      102.061    27945.005    24812.255    10416.467        7.665        3.159      300.122       99.513        0.110      342.502       17.953      854.322
05/21/2013  18:46:00     -327.798      -70.117      -13.830      189.137      174.047       86.346    35772.923    30292.393     7455.565        9.303        3.676      335.214       89.081        0.071      342.482       17.920      854.322
05/21/2013  18:47:00     -478.031     -194.414      -23.175      211.741      207.032       91.414    44834.075    42862.110     8356.555       18.143        4.803      516.052       95.678        0.034      342.490       17.934      854.314
05/21/2013  18:48:00     -497.238     -115.680      -16.041      284.222      201.814      122.078    80782.339    40728.917    14902.927       19.862        6.821      510.517      137.571        0.073      342.407       17.793      854.282
05/21/2013  18:49:00     -619.413      -99.576      -27.120      278.845      201.265      115.058    77754.329    40507.463    13238.393       26.288        6.575      627.366      118.424        0.036      342.360       17.711      854.296
05/21/2013  18:50:00     -320.587     -113.642        8.501      276.586      216.581      132.122    76499.798    46907.323    17456.332       12.828        7.043      340.133      154.063        0.205      342.428       17.827      854.369
05/21/2013  18:51:00     -520.075      -88.104      -31.308      244.672      259.562      107.195    59864.411    67372.475    11490.870       20.895        6.936      527.485      113.524        0.046      342.330       17.661      854.370
05/21/2013  18:52:00     -516.334     -189.265      -23.542      199.011      216.842      106.308    39605.564    47020.278    11301.341       20.043        4.896      549.929      105.421        0.037      342.334       17.668      854.409
05/21/2013  18:53:00     -368.388      -84.671      -12.156      283.749      208.367       91.497    80513.739    43416.763     8371.611       13.764        6.615      377.993      106.108        0.079      342.314       17.634      854.395
05/21/2013  18:54:00     -312.617     -229.593       -4.463      235.181      210.139       91.346    55310.006    44158.506     8344.111       12.912        5.391      387.869      106.218        0.075      342.317       17.640      854.409
05/21/2013  18:55:00     -206.594     -126.123       15.877      242.320      142.298       90.511    58719.144    20248.828     8192.228        7.298        4.358      242.050      113.645        0.220      342.337       17.672      854.404
05/21/2013  18:56:00     -332.077     -175.819       13.040      161.768      136.541       67.224    26168.845    18643.557     4519.045        9.533        2.467      375.749       72.118        0.037      342.325       17.653      854.422
05/21/2013  18:57:00     -272.987     -145.778      -12.112      184.131      164.700       71.134    33904.387    27125.933     5060.076        8.099        3.305      309.472       89.115        0.083      342.374       17.736      854.429
05/21/2013  18:58:00     -626.630     -174.430      -30.925      235.761      175.002       86.008    55583.401    30625.758     7397.383       25.881        4.680      650.454      102.403        0.025      342.250       17.525      854.397
05/21/2013  18:59:00     -282.149     -151.281       21.676      241.872      154.465      100.916    58502.005    23859.590    10184.017        9.774        4.627      320.147      118.346        0.137      342.281       17.578      854.453
05/21/2013  19:00:00     -551.032     -309.211      -19.504      287.812      221.437      113.064    82835.888    49034.379    12783.488       27.211        7.233      631.861      117.073        0.034      342.169       17.387      854.419
05/21/2013  19:01:00     -380.246     -178.264      -13.064      186.085      118.486       83.864    34627.482    14038.967     7033.157       11.611        2.785      419.958       96.957        0.053      342.215       17.467      854.449
05/21/2013  19:02:00     -235.625     -103.947       -3.476      140.946      119.235       64.246    19865.653    14217.081     4127.549        5.227        1.911      257.535       69.970        0.074      342.247       17.520      854.476
05/21/2013  19:03:00     -212.989     -166.800       12.965      170.263      168.475       85.929    28989.624    28383.838     7383.844        6.904        3.238      270.530       84.073        0.097      342.243       17.515      854.477
05/21/2013  19:04:00     -377.850     -253.917       -6.170      257.743      140.482       92.431    66431.311    19735.195     8543.487       15.098        4.735      455.241      109.022        0.057      342.214       17.464      854.531
05/21/2013  19:05:00     -338.071     -160.224       -9.060      306.550      175.009      128.970    93972.732    30628.289    16633.322       14.061        7.062      374.118      157.920        0.178      342.163       17.376      854.458
05/21/2013  19:06:00     -509.326      -31.894      -30.890      248.169      165.976      100.743    61587.796    27548.006    10149.069       18.031        4.964      510.324      114.426        0.050      342.152       17.358      854.520
05/21/2013  19:07:00     -310.938     -156.370       -7.753      233.706      152.977      106.004    54618.691    23402.038    11236.876       10.521        4.463      348.043      122.331        0.124      342.178       17.403      854.552
05/21/2013  19:08:00     -410.406     -183.777       -4.238      281.340      161.326      129.138    79152.022    26026.014    16676.600       16.201        6.093      449.675      138.001        0.094      342.115       17.294      854.526
05/21/2013  19:09:00     -374.606     -133.129      -20.618      261.648      148.298      101.502    68459.441    21992.255    10302.700       12.960        5.038      397.559      119.228        0.090      342.109       17.286      854.571
05/21/2013  19:10:00     -457.500      -48.090       -2.877      317.265      211.734      122.063   100657.365    44831.384    14899.257       18.597        8.019      460.020      143.779        0.098      342.128       17.317      854.504
05/21/2013  19:11:00     -371.822      -86.718      -13.329      253.190      141.831       93.878    64104.971    20116.117     8813.115       11.947        4.652      381.800      113.413        0.088      342.145       17.348      854.531
05/21/2013  19:12:00     -383.994      -90.925        6.868      327.573      181.992       90.180   107304.331    33120.983     8132.442       15.213        7.428      394.612      111.998        0.081      342.166       17.384      854.577
05/21/2013  19:13:00     -462.348      -77.998      -20.022      198.771      162.397       98.370    39509.802    26372.925     9676.690       14.789        3.778      468.881       90.999        0.038      342.058       17.199      854.616
05/21/2013  19:14:00     -377.946     -169.981      -24.855      212.366      187.427       88.686    45099.167    35128.696     7865.165       13.021        4.405      414.411       94.326        0.052      342.073       17.223      854.608
05/21/2013  19:15:00     -458.970     -148.341      -29.178      187.719      184.996      107.012    35238.558    34223.364    11451.561       15.720        4.046      482.347       99.370        0.042      342.037       17.164      854.606
05/21/2013  19:16:00     -548.802      -76.917      -10.981      307.918      232.791      128.351    94813.211    54191.422    16473.852       23.632        8.274      554.166      148.051        0.071      342.026       17.145      854.635
05/21/2013  19:17:00     -286.307     -177.502       38.929      349.424      247.967      148.700   122097.217    61487.873    22111.634       16.030       10.285      336.866      194.994        0.335      342.026       17.144      854.579
05/21/2013  19:18:00     -561.942     -184.353       -5.216      366.361      255.765      137.973   134220.722    65415.944    19036.556       28.419       10.934      591.409      169.622        0.082      341.980       17.064      854.609
05/21/2013  19:19:00     -539.287     -147.628       -7.778      329.680      235.392      126.662   108688.605    55409.182    16043.364       24.638        9.007      559.129      150.528        0.072      341.998       17.097      854.628
05/21/2013  19:20:00     -388.200     -262.516       15.771      312.580      257.558      134.097    97706.557    66335.884    17981.925       20.091        9.101      468.630      163.867        0.122      341.992       17.087      854.641
05/21/2013  19:21:00     -300.752     -217.456       19.785      261.043      210.409      124.714    68143.210    44272.130    15553.568       13.302        6.398      371.132      133.881        0.130      341.997       17.094      854.671
05/21/2013  19:22:00     -508.042     -279.672      -16.955      269.554      170.035      110.731    72659.244    28911.990    12261.327       22.520        5.692      579.933      136.739        0.056      341.954       17.022      854.673
05/21/2013  19:23:00     -472.946     -206.004      -40.522      205.553      195.631       99.206    42251.980    38271.627     9841.813       17.904        4.518      515.864      115.804        0.050      341.955       17.024      854.693
05/21/2013  19:24:00     -412.758     -179.935      -28.612      171.129      154.874       72.066    29285.043    23985.830     5193.580       13.100        2.923      450.273       76.071        0.029      341.947       17.010      854.692
05/21/2013  19:25:00     -229.061     -189.371       23.379      223.034      178.642      105.338    49744.183    31912.936    11096.036        9.080        4.638      297.204      120.317        0.164      341.948       17.012      854.716
05/21/2013  19:26:00     -263.175      -26.391        1.769      170.868      148.185       78.468    29195.865    21958.757     6157.211        6.362        2.866      264.495       84.714        0.103      342.007       17.110      854.730
05/21/2013  19:27:00     -487.523     -199.802      -33.412      272.651      235.019      108.506    74338.636    55233.787    11773.474       21.000        7.067      526.877      118.311        0.050      341.925       16.974      854.728
05/21/2013  19:28:00     -512.798     -205.475       -6.387      273.338      245.623      116.870    74713.435    60330.641    13658.547       22.693        7.435      552.433      119.568        0.047      341.844       16.837      854.710
05/21/2013  19:29:00     -481.441     -175.525      -14.673      219.390      191.372      101.409    48131.884    36623.297    10283.862       17.890        4.752      512.439      104.069        0.041      341.856       16.855      854.731
05/21/2013  19:30:00     -414.797     -309.767      -18.564      266.592      240.645      103.435    71071.281    57909.866    10698.774       20.399        6.984      517.699       99.568        0.037      341.838       16.824      854.716
05/21/2013  19:31:00     -473.347     -291.525        3.689      312.449      194.744      105.379    97624.332    37925.057    11104.792       22.783        7.333      555.918      132.773        0.057      341.828       16.807      854.693
05/21/2013  19:32:00     -652.503     -318.440      -37.486      270.524      203.736      109.269    73183.269    41508.195    11939.799       32.757        6.332      726.061      110.899        0.023      341.814       16.785      854.735
05/21/2013  19:33:00     -425.466     -160.358      -33.560      257.492      161.608      107.047    66302.235    26117.050    11459.031       15.585        5.194      454.683      127.041        0.078      341.827       16.807      854.719
05/21/2013  19:34:00     -267.820     -244.313       19.329      242.607      207.689      122.683    58858.124    43134.847    15051.119       12.439        5.852      362.514      139.160        0.147      341.761       16.694      854.702
05/21/2013  19:35:00     -289.268     -231.956      -16.985      182.223      168.348       97.658    33205.155    28341.172     9537.044       10.441        3.554      370.783       97.586        0.069      341.752       16.679      854.693
05/21/2013  19:36:00     -269.760     -226.960        0.807      191.959      162.868      104.413    36848.371    26525.960    10902.123        9.926        3.714      352.536      101.582        0.083      341.751       16.678      854.665
05/21/2013  19:37:00     -353.759     -219.553       -7.990      197.071      192.529       87.613    38836.913    37067.231     7676.037       12.848        4.179      416.352       92.693        0.050      341.766       16.703      854.683
05/21/2013  19:38:00     -374.387     -248.837       -2.160      291.285      188.908      124.166    84846.949    35686.344    15417.263       16.899        6.798      449.539      141.068        0.098      341.707       16.603      854.652
05/21/2013  19:39:00     -408.895     -208.667        0.123      296.564      266.308      129.995    87950.176    70919.749    16898.618       19.322        8.788      459.061      169.888        0.137      341.704       16.598      854.650
05/21/2013  19:40:00     -406.684      -98.134      -14.188      202.365      157.081       91.042    40951.680    24674.295     8288.729       12.455        3.696      418.357       83.747        0.040      341.739       16.658      854.680
05/21/2013  19:41:00     -450.478     -227.651      -16.681      255.497      182.431      105.036    65278.547    33280.909    11032.602       18.229        5.480      504.733      121.221        0.058      341.673       16.547      854.686
05/21/2013  19:42:00     -632.958     -302.229        3.863      357.094      292.155      141.332   127515.927    85354.737    19974.691       36.237       11.642      701.412      172.253        0.060      341.603       16.428      854.658
05/21/2013  19:43:00     -523.171     -211.331      -18.065      272.280      290.097      120.740    74136.638    84156.127    14578.096       24.575        8.644      564.242      102.834        0.033      341.608       16.436      854.648
05/21/2013  19:44:00     -341.375     -175.700        7.045      298.475      149.657      106.920    89087.497    22397.280    11431.795       13.516        6.146      383.937      123.645        0.104      341.600       16.423      854.650
05/21/2013  19:45:00     -643.409     -153.052      -15.876      400.807      243.724      148.704   160646.327    59401.483    22112.995       33.986       12.108      661.363      192.587        0.085      341.533       16.309      854.604
05/21/2013  19:46:00     -548.476      -65.925      -24.166      258.061      210.951      118.851    66595.336    44500.154    14125.500       21.546        6.261      552.423      137.582        0.062      341.535       16.312      854.610
05/21/2013  19:47:00     -450.967     -142.888      -34.963      181.425      179.331       88.360    32915.169    32159.488     7807.429       14.893        3.644      473.062       92.704        0.038      341.543       16.325      854.640
05/21/2013  19:48:00     -368.609      -50.711       16.025      235.678      166.878       97.412    55543.999    27848.378     9489.093       11.577        4.644      372.081      109.014        0.086      341.509       16.269      854.636
05/21/2013  19:49:00     -312.962     -204.983       -8.392      282.406      215.876      105.180    79752.894    46602.414    11062.912       13.870        6.871      374.117      143.286        0.147      341.505       16.261      854.620
05/21/2013  19:50:00     -342.556     -255.744      -18.802      207.546      167.893      101.001    43075.514    28188.048    10201.140       13.227        4.073      427.492      114.003        0.071      341.477       16.212      854.643
05/21/2013  19:51:00     -383.176     -256.586        4.975      277.549      202.821      110.918    77033.706    41136.506    12302.731       17.155        6.524      461.151      132.726        0.083      341.458       16.179      854.612
05/21/2013  19:52:00     -386.996     -121.603       -9.294      193.636      206.969      101.060    37494.880    42836.264    10213.033       12.757        4.527      405.652      100.632        0.062      341.448       16.164      854.616
05/21/2013  19:53:00     -535.581     -334.873      -27.306      353.888      180.885      103.957   125236.504    32719.440    10807.078       28.421        8.438      631.654      133.198        0.044      341.429       16.132      854.598
05/21/2013  19:54:00     -541.996     -335.266       -7.872      256.517      242.309      122.456    65800.737    58713.447    14995.435       27.284        6.975      637.310      127.466        0.040      341.380       16.049      854.584
05/21/2013  19:55:00     -391.532     -246.871       -7.823      163.281      137.444       79.299    26660.559    18890.886     6288.382       13.306        2.592      462.863       70.514        0.023      341.425       16.125      854.607
05/21/2013  19:56:00     -494.946     -193.270      -15.693      198.648      209.980       93.070    39461.221    44091.658     8661.937       18.737        4.611      531.343      113.977        0.046      341.380       16.047      854.593
05/21/2013  19:57:00     -376.633     -221.729       -4.703      175.879      162.024       87.202    30933.512    26251.833     7604.243       12.790        3.239      437.054       98.118        0.050      341.359       16.015      854.621
05/21/2013  19:58:00     -262.524     -173.978       -6.162      172.549      192.120       92.843    29773.028    36910.257     8619.822        8.725        3.765      314.939       93.564        0.088      341.369       16.030      854.604
05/21/2013  19:59:00     -268.040     -117.884       -6.913      178.158      120.761       88.956    31740.354    14583.140     7913.143        7.000        2.712      292.817       98.254        0.113      341.345       15.991      854.603
05/21/2013  20:00:00     -562.171     -254.065      -31.319      218.848      240.553      107.816    47894.554    57865.599    11624.328       24.945        5.869      616.916      117.315        0.036      341.320       15.947      854.644
05/21/2013  20:01:00     -409.841     -253.497        3.589      282.782      234.090      131.649    79965.892    54798.065    17331.475       19.214        7.605      481.903      149.025        0.096      341.293       15.903      854.664
05/21/2013  20:02:00     -494.816     -109.659      -22.657      285.738      191.935      109.155    81646.348    36839.177    11914.877       19.386        6.520      506.821      133.734        0.070      341.302       15.918      854.696
05/21/2013  20:03:00     -400.676     -227.919       -0.470      272.623      246.919      124.393    74323.295    60969.010    15473.565       18.160        7.538      460.965      154.054        0.112      341.267       15.859      854.726
05/21/2013  20:04:00     -462.979     -268.936       -2.101      212.934      221.124      119.729    45340.801    48895.850    14335.031       19.760        5.429      535.421      114.475        0.046      341.243       15.818      854.721
05/21/2013  20:05:00     -344.927     -155.220       -8.436      176.077      153.263       75.684    31003.098    23489.635     5728.042       10.167        3.011      378.243       88.321        0.055      341.257       15.842      854.750
05/21/2013  20:06:00     -308.068      -91.913      -10.864      137.947      131.753       68.063    19029.473    17358.801     4632.511        7.224        2.051      321.487       70.313        0.048      341.264       15.852      854.739
05/21/2013  20:07:00     -402.463     -126.838      -14.963      235.587      128.679       90.931    55501.289    16558.157     8268.438       12.929        4.016      421.977      107.982        0.065      341.209       15.759      854.760
05/21/2013  20:08:00     -332.864     -165.281      -10.252      163.560      146.058       75.650    26751.906    21333.052     5722.954        9.600        2.690      371.639       73.430        0.039      341.208       15.758      854.756
05/21/2013  20:09:00     -454.173     -264.314      -19.270      261.010      199.844       99.026    68126.061    39937.740     9806.217       19.716        5.894      525.485      120.794        0.053      341.172       15.696      854.746
05/21/2013  20:10:00     -627.667     -128.362      -16.863      239.851      204.375      106.456    57528.519    41769.216    11332.977       26.066        5.532      640.658      110.694        0.030      341.154       15.666      854.762
05/21/2013  20:11:00     -511.543     -236.182      -22.513      223.963      215.805      119.767    50159.495    46571.644    14344.020       21.450        5.554      563.434      123.825        0.048      341.175       15.701      854.801
05/21/2013  20:12:00     -364.106     -111.072      -17.929      153.716      129.906       76.953    23628.524    16875.495     5921.695        9.582        2.321      380.671       81.833        0.046      341.174       15.700      854.810
05/21/2013  20:13:00     -696.443     -180.442      -38.796      321.743      228.380      129.717   103518.399    52157.541    16826.381       34.576        8.625      719.439      147.129        0.042      341.131       15.628      854.772
05/21/2013  20:14:00     -441.685     -301.241      -23.128      204.085      193.919       99.339    41650.510    37604.420     9868.156       18.773        4.456      534.632       80.879        0.023      341.148       15.655      854.781
05/21/2013  20:15:00     -357.920     -143.057      -30.438      158.647      119.901       69.601    25168.956    14376.163     4844.367        9.693        2.219      385.450       66.526        0.030      341.145       15.650      854.823
05/21/2013  20:16:00     -349.170      -79.540       -1.125      175.257      147.797       79.671    30715.190    21844.093     6347.489        9.357        2.945      358.115       83.771        0.055      341.090       15.560      854.849
05/21/2013  20:17:00     -305.511     -148.267       -6.065      129.639      132.322       71.552    16806.165    17509.029     5119.632        7.739        1.972      339.588       76.599        0.051      341.079       15.539      854.877
05/21/2013  20:18:00     -371.454      -96.731       -5.125      245.930      149.416      101.755    60481.585    22325.261    10354.037       12.024        4.658      383.842      126.015        0.108      341.079       15.540      854.865
05/21/2013  20:19:00     -512.809     -111.006      -15.647      213.484      159.170       84.904    45575.205    25335.034     7208.753       17.681        3.906      524.686       92.924        0.031      341.079       15.541      854.882
05/21/2013  20:20:00     -500.685      -66.195       -1.181      235.975      184.503       99.269    55684.394    34041.407     9854.303       17.730        4.979      505.042      106.013        0.044      341.056       15.501      854.900
05/21/2013  20:21:00     -339.125     -312.588       -2.026      242.790      188.217      125.704    58947.109    35425.747    15801.432       16.142        5.509      461.212      132.937        0.083      341.061       15.509      854.897
05/21/2013  20:22:00     -370.211     -195.613        5.650      204.644      198.954       81.799    41879.280    39582.776     6691.071       13.173        4.408      418.713      103.084        0.061      341.065       15.516      854.919
05/21/2013  20:23:00     -334.232     -159.481      -11.726      207.834      159.334       87.892    43195.042    25387.279     7724.950       10.678        3.815      370.331       88.399        0.057      341.006       15.417      854.902
05/21/2013  20:24:00     -477.888      -87.159       -5.789      204.866      140.337       92.749    41970.158    19694.571     8602.373       15.312        3.513      485.771       96.066        0.039      340.966       15.348      854.875
05/21/2013  20:25:00     -247.994      -60.199       -1.714      154.361      121.258       67.755    23827.469    14703.578     4590.713        5.412        2.156      255.196       58.443        0.052      340.964       15.344      854.888
05/21/2013  20:26:00     -369.030      -87.031       -4.690      219.910      143.698       94.654    48360.536    20649.038     8959.353       11.086        3.898      379.154      111.599        0.087      340.948       15.317      854.874
05/21/2013  20:27:00     -482.937      -69.746       -7.466      170.108      162.560       88.488    28936.632    26425.702     7830.141       15.066        3.160      487.947       84.219        0.030      340.922       15.272      854.866
05/21/2013  20:28:00     -547.334     -253.827      -29.167      280.737      201.473      102.486    78813.480    40591.213    10503.429       24.735        6.495      603.326      122.012        0.041      340.934       15.294      854.840
05/21/2013  20:29:00     -451.873     -199.407      -32.026      212.290      174.262       96.298    45067.177    30367.077     9273.358       16.483        4.235      493.915      104.706        0.045      340.945       15.312      854.826
05/21/2013  20:30:00     -392.146      -75.043      -11.641      251.728      173.258       93.566    63366.838    30018.309     8754.566       13.082        5.107      399.261      113.648        0.081      340.921       15.272      854.837
05/21/2013  20:31:00     -769.588     -189.617      -40.589      352.523      259.175      112.880   124272.165    67171.880    12741.855       41.698       10.209      792.603      144.604        0.033      340.866       15.179      854.812
05/21/2013  20:32:00     -614.633     -220.564       -9.365      293.902      254.954      127.619    86378.364    65001.745    16286.554       29.705        8.383      653.010      153.228        0.055      340.874       15.191      854.774
05/21/2013  20:33:00     -378.263     -254.088       15.341      278.475      211.113      138.318    77548.458    44568.624    19131.981       17.453        7.062      455.679      158.910        0.122      340.877       15.197      854.820
05/21/2013  20:34:00     -380.217     -134.875      -25.875      236.195      201.438      107.872    55788.266    40577.440    11636.474       13.569        5.400      403.430      117.330        0.085      340.895       15.228      854.910
05/21/2013  20:35:00     -316.418     -181.586        9.167      152.918      174.162       79.566    23384.031    30332.491     6330.731        9.660        3.002      364.820       76.154        0.044      340.861       15.170      854.948
05/21/2013  20:36:00     -501.099     -108.240       -2.742      217.414      160.923       78.675    47268.849    25896.060     6189.682       17.107        3.968      512.656       77.949        0.023      340.826       15.112      854.897
05/21/2013  20:37:00     -431.903     -173.695      -10.955      253.487      239.655      105.658    64255.660    57434.461    11163.708       17.481        6.643      465.522      119.410        0.066      340.804       15.076      854.880
05/21/2013  20:38:00     -409.326     -198.204        1.554      307.796      224.955      121.741    94738.221    50604.559    14820.932       18.347        8.008      454.788      154.828        0.116      340.799       15.067      854.871
05/21/2013  20:39:00     -445.972     -105.586       10.122      289.273      250.008      134.776    83679.032    62503.822    18164.676       18.721        8.217      458.301      157.085        0.117      340.795       15.060      854.926
05/21/2013  20:40:00     -213.083     -126.090       32.812      245.006      210.779      127.801    60028.176    44427.746    16333.003        9.156        6.039      247.594      121.069        0.239      340.788       15.047      855.007
05/21/2013  20:41:00     -321.325     -260.209       -1.803      225.635      183.191      126.193    50910.965    33558.858    15924.742       13.566        5.020      413.471      138.124        0.112      340.779       15.033      854.998
05/21/2013  20:42:00     -597.473      -81.357      -22.258      302.271      176.598      110.393    91367.993    31186.728    12186.654       24.939        6.737      602.987      126.473        0.044      340.750       14.982      854.995
05/21/2013  20:43:00     -501.932     -177.352      -10.583      212.703      200.445       91.542    45242.663    40178.042     8379.959       18.863        4.690      532.344       98.085        0.034      340.756       14.994      855.015
05/21/2013  20:44:00     -438.565      -31.353      -26.585      164.432      116.154       93.108    27037.948    13491.693     8669.088       12.160        2.460      439.684       95.208        0.047      340.723       14.937      855.000
05/21/2013  20:45:00     -431.214      -52.380      -15.177      201.340      163.488       96.513    40537.982    26728.195     9314.671       13.273        3.829      434.384      102.361        0.056      340.702       14.903      854.977
05/21/2013  20:46:00     -639.265     -156.195      -13.782      274.762      184.145       88.848    75494.226    33909.389     7894.014       27.525        5.865      658.070      106.411        0.026      340.638       14.793      854.942
05/21/2013  20:47:00     -459.626      -77.240       -6.164      216.964      188.727       85.039    47073.355    35617.770     7231.587       15.357        4.496      466.071       88.347        0.036      340.650       14.813      855.020
05/21/2013  20:48:00     -319.680     -127.866      -18.469      171.067      167.896       93.916    29263.970    28188.946     8820.277        9.257        3.314      344.304       74.162        0.046      340.664       14.837      855.047
05/21/2013  20:49:00     -292.258      -72.470       -3.410      229.545      152.952       99.553    52690.911    23394.392     9910.756        8.832        4.300      301.109      106.907        0.126      340.627       14.775      855.040
05/21/2013  20:50:00     -508.628     -134.643      -33.022      228.022      167.539       90.211    51994.027    28069.475     8137.958       18.304        4.410      526.148      114.877        0.048      340.577       14.689      854.999
05/21/2013  20:51:00     -313.418     -178.488        1.128      206.985      170.607       93.684    42842.706    29106.647     8776.610       10.539        4.036      360.678      103.724        0.083      340.589       14.711      854.956
05/21/2013  20:52:00     -672.876     -133.461      -30.291      305.571      218.091      127.738    93373.720    47563.684    16316.984       31.434        7.863      685.984      152.846        0.050      340.567       14.671      854.898
05/21/2013  20:53:00     -578.607     -155.937      -17.208      273.097      179.101      103.616    74581.975    32077.259    10736.177       23.837        5.870      599.251      130.674        0.048      340.590       14.712      855.027
05/21/2013  20:54:00     -555.049     -241.169       -8.500      201.624      207.417      113.217    40652.085    43021.772    12818.141       23.138        4.825      605.179      114.748        0.036      340.606       14.739      855.072
05/21/2013  20:55:00     -264.504     -152.302       -4.989      168.806      125.500       89.397    28495.536    15750.238     7991.830        7.270        2.612      305.218       93.274        0.093      340.607       14.740      855.067
05/21/2013  20:56:00     -288.708      -81.256       -2.436      168.922      110.003       64.809    28534.622    12100.566     4200.244        6.739        2.242      299.924       77.414        0.067      340.557       14.657      854.993
05/21/2013  20:57:00     -577.787     -167.383      -23.809      262.326      191.474      113.752    68814.795    36662.200    12939.439       24.039        5.921      601.543      135.169        0.050      340.578       14.691      855.045
05/21/2013  20:58:00     -401.731     -140.314        9.434      229.690      170.890      104.064    52757.499    29203.394    10829.291       13.696        4.640      425.530      110.817        0.068      340.568       14.674      855.065
05/21/2013  20:59:00     -495.654     -208.766      -23.462      292.281      220.219      122.721    85428.414    48496.456    15060.474       21.937        7.449      537.826      141.832        0.070      340.581       14.698      855.100
05/21/2013  21:00:00     -430.200     -175.749      -17.273      213.596      151.185       98.569    45623.066    22856.887     9715.834       14.721        3.910      464.715      113.541        0.060      340.567       14.673      855.149
05/21/2013  21:01:00     -420.700     -154.963      -13.282      166.894      142.481       83.998    27853.699    20300.852     7055.604       12.818        2.761      448.333       77.580        0.030      340.560       14.660      855.096
05/21/2013  21:02:00     -408.374     -113.559      -11.443      237.849      200.318       95.450    56572.045    40127.218     9110.783       14.278        5.291      423.869      111.627        0.069      340.498       14.556      855.129
05/21/2013  21:03:00     -223.386      -43.693       -7.987      175.236      124.413       72.023    30707.569    15478.574     5187.344        5.161        2.569      227.619       79.869        0.123      340.517       14.590      855.088
05/21/2013  21:04:00     -333.774      -82.537       12.568      186.026      181.585       90.154    34605.561    32973.035     8127.660        9.703        3.785      343.828       98.834        0.083      340.476       14.520      855.095
05/21/2013  21:05:00     -397.972      -20.107       -7.167      198.112      213.011      111.193    39248.209    45373.580    12363.991       12.789        4.849      398.480      100.841        0.064      340.475       14.517      855.134
05/21/2013  21:06:00     -479.752     -155.860      -25.370      307.313      223.628      118.052    94441.498    50009.286    13936.258       20.671        7.919      504.434      141.368        0.079      340.498       14.556      855.119
05/21/2013  21:07:00     -614.213      -51.654      -47.430      221.663      226.687       92.244    49134.469    51386.780     8509.022       24.558        5.452      616.381       83.592        0.018      340.479       14.524      855.089
05/21/2013  21:08:00     -647.008      -98.169      -37.101      257.315      252.607      117.411    66210.809    63810.338    13785.372       28.669        7.190      654.413       95.983        0.022      340.442       14.461      855.003
05/21/2013  21:09:00     -441.966     -241.087       -8.765      254.372      227.593      123.733    64704.886    51798.635    15309.878       19.265        6.591      503.445      135.771        0.073      340.459       14.490      855.088
05/21/2013  21:10:00     -369.926     -167.573        4.874      296.655      211.455      125.887    88004.244    44713.276    15847.478       15.673        7.428      406.111      137.157        0.114      340.445       14.466      855.108
05/21/2013  21:11:00     -395.990      -39.452       -1.507      244.719      186.402      120.567    59887.317    34745.655    14536.351       13.375        5.458      397.951      131.270        0.109      340.414       14.414      855.057
05/21/2013  21:12:00     -327.021     -180.982       10.814      287.784      206.368      111.827    82819.650    42587.779    12505.250       13.883        6.896      373.761      136.013        0.132      340.420       14.425      855.101
05/21/2013  21:13:00     -564.958     -127.011      -10.248      334.310      201.699      120.879   111763.204    40682.478    14611.729       25.120        8.353      579.059      152.037        0.069      340.399       14.389      855.113
05/21/2013  21:14:00     -495.382     -130.890      -24.025      248.427      159.638      103.248    61715.767    25484.255    10660.106       18.047        4.893      512.382       98.699        0.037      340.394       14.382      855.160
05/21/2013  21:15:00     -276.603      -40.919      -19.983      156.931       99.096       64.881    24627.284     9819.993     4209.551        5.861        1.933      279.613       70.687        0.064      340.399       14.390      855.170
05/21/2013  21:16:00     -272.055     -197.277       21.222      239.945      200.278      125.466    57573.784    40111.197    15741.783       11.338        5.671      336.054      128.556        0.146      340.383       14.362      855.140
05/21/2013  21:17:00     -478.675      -88.978        0.711      290.211      194.699      114.266    84222.357    37907.572    13056.640       18.609        6.759      486.874      132.128        0.074      340.365       14.332      855.165
05/21/2013  21:18:00     -404.749      -53.977       -6.761      226.140      130.502       82.074    51139.250    17030.838     6736.085       12.083        3.745      408.333       94.605        0.054      340.337       14.284      855.157
05/21/2013  21:19:00     -653.178     -103.870      -48.800      264.590      184.824      106.955    70007.643    34159.728    11439.417       27.769        5.780      661.385      129.927        0.039      340.296       14.216      855.096
05/21/2013  21:20:00     -387.345     -143.238       -0.418      217.550      216.552      109.989    47327.879    46894.561    12097.621       13.842        5.316      412.981      117.256        0.081      340.286       14.199      855.089
05/21/2013  21:21:00     -581.691     -232.836      -21.565      298.132      180.830      108.578    88882.608    32699.577    11789.232       26.318        6.669      626.560      122.711        0.038      340.300       14.223      855.101
05/21/2013  21:22:00     -229.651     -161.160        3.880      187.785      188.652      100.196    35263.100    35589.723    10039.157        7.979        4.045      280.557      105.372        0.141      340.292       14.207      855.089
05/21/2013  21:23:00     -339.896     -120.537        8.528      205.634      153.401      113.557    42285.396    23532.016    12895.087       10.441        3.936      360.636      124.112        0.118      340.256       14.146      855.040
05/21/2013  21:24:00     -543.716     -103.706      -30.820      228.834      178.444       99.468    52364.917    31842.155     9893.800       20.070        4.705      553.518      119.346        0.046      340.238       14.117      854.995
05/21/2013  21:25:00     -532.461      -42.036      -14.923      274.608      173.069      114.421    75409.341    29952.835    13092.279       20.195        5.923      534.117      137.292        0.066      340.229       14.101      854.971
05/21/2013  21:26:00     -508.044     -110.229      -23.932      185.380      170.255       90.114    34365.788    28986.912     8120.503       17.114        3.574      519.865       94.398        0.033      340.206       14.061      854.979
05/21/2013  21:27:00     -538.129     -110.550      -15.547      238.462      164.616      115.305    56864.355    27098.450    13295.281       19.963        4.863      549.367      117.913        0.046      340.189       14.034      854.925
05/21/2013  21:28:00     -394.615       -8.272      -16.170      232.337      174.762       95.880    53980.665    30541.741     9192.923       12.486        4.686      394.702      111.130        0.079      340.162       13.987      854.893
05/21/2013  21:29:00     -716.631     -116.661      -36.292      230.942      189.339      102.839    53334.357    35849.237    10575.869       31.410        4.988      726.064      113.350        0.024      340.159       13.982      854.909
05/21/2013  21:30:00     -679.040     -153.046      -38.153      243.475      196.017       95.779    59279.991    38422.719     9173.532       29.640        5.344      696.074      105.318        0.023      340.159       13.984      854.943
05/21/2013  21:31:00     -504.652      -86.456      -22.528      245.957      212.749       95.431    60494.738    45262.182     9107.084       18.874        5.743      512.004      102.502        0.040      340.133       13.940      854.949
05/21/2013  21:32:00     -743.995      -13.148      -52.085      201.300      193.362       95.364    40521.670    37389.045     9094.349       32.169        4.350      744.111      106.711        0.021      340.109       13.898      854.870
05/21/2013  21:33:00     -456.915      -95.734      -40.630      280.304      220.217      112.502    78570.330    48495.592    12656.593       17.963        6.986      466.836      119.433        0.065      340.115       13.910      854.810
05/21/2013  21:34:00     -670.900       -9.357      -61.456      262.384      193.762      102.014    68845.230    37543.890    10406.779       28.536        5.840      670.965      113.985        0.029      340.101       13.887      854.833
05/21/2013  21:35:00     -475.428     -106.951      -13.455      274.301      209.149      106.849    75240.934    43743.119    11416.696       18.400        6.520      487.309      131.736        0.073      340.100       13.885      854.889
05/21/2013  21:36:00     -597.864     -169.125      -25.984      208.704      168.875       95.628    43557.208    28518.906     9144.710       23.395        4.061      621.325       91.628        0.022      340.085       13.860      854.896
05/21/2013  21:37:00     -566.957      -68.143      -30.933      250.153      177.767      101.148    62576.412    31601.025    10230.961       21.570        5.220      571.037      110.605        0.038      340.080       13.851      854.918
05/21/2013  21:38:00     -311.586      -85.212       -2.846      255.969      147.680      100.319    65520.035    21809.311    10063.861       10.085        4.870      323.028      122.029        0.143      340.093       13.876      854.914
05/21/2013  21:39:00     -502.294      -71.479      -20.943      351.330      184.166      110.443   123432.814    33917.280    12197.637       21.366        8.477      507.355      148.767        0.086      340.067       13.828      854.908
05/21/2013  21:40:00     -561.003      -83.066      -33.077      305.751      222.599      111.923    93483.838    49550.291    12526.816       23.911        7.778      567.120      133.281        0.055      340.059       13.814      854.920
05/21/2013  21:41:00     -700.268     -155.868      -23.166      299.149      207.207      121.794    89489.917    42934.708    14833.693       33.120        7.363      717.405      137.269        0.037      340.058       13.812      854.869
05/21/2013  21:42:00     -527.327      -50.093      -32.189      238.810      174.309      113.201    57030.389    30383.769    12814.371       19.090        5.011      529.701      124.844        0.056      340.038       13.780      854.970
05/21/2013  21:43:00     -556.605      -80.244      -19.117      255.202      175.351       92.701    65128.272    30748.023     8593.563       21.052        5.223      562.359      112.831        0.040      340.023       13.753      854.948
05/21/2013  21:44:00     -444.460     -167.993      -14.870      288.971      203.368      115.657    83504.393    41358.562    13376.531       18.209        6.912      475.149      127.758        0.072      340.014       13.739      854.957
05/21/2013  21:45:00     -390.181     -166.949        1.342      284.169      195.644      110.179    80751.928    38276.766    12139.506       15.561        6.558      424.397      127.323        0.090      339.995       13.706      855.026
05/21/2013  21:46:00     -371.821      -83.048       -1.153      212.264      185.392       97.821    45055.889    34370.032     9568.890       11.705        4.450      380.983      102.368        0.072      339.994       13.706      855.048
05/21/2013  21:47:00     -357.938        5.924      -14.044      219.513      146.539       80.418    48185.904    21473.681     6467.051       10.222        3.806      357.987       87.904        0.060      339.972       13.668      855.056
05/21/2013  21:48:00     -383.397      -71.989      -15.867      136.521      159.810       81.458    18638.058    25539.304     6635.336       10.161        2.541      390.097       79.657        0.042      339.975       13.672      855.091
05/21/2013  21:49:00     -353.409     -108.281       -5.147      234.042      197.526       88.154    54775.874    39016.541     7771.208       11.909        5.078      369.625       99.663        0.073      339.944       13.622      855.004
05/21/2013  21:50:00     -506.160     -169.245      -10.564      257.138      164.137       94.050    66120.117    26940.996     8845.404       19.341        5.095      533.706      105.527        0.039      339.924       13.588      855.012
05/21/2013  21:51:00     -603.469      -97.870      -18.855      297.850      196.950      121.099    88714.547    38789.132    14665.018       25.811        7.108      611.353      144.054        0.056      339.923       13.584      855.071
05/21/2013  21:52:00     -495.223      -77.339      -36.357      219.198      142.833       80.852    48047.650    20401.193     6537.001       16.375        3.749      501.226       86.896        0.030      339.919       13.579      855.090
05/21/2013  21:53:00     -514.339      -47.621      -37.502      176.457      112.277       73.987    31137.197    12606.090     5474.122       15.871        2.461      516.539       68.309        0.017      339.924       13.587      855.082
05/21/2013  21:54:00     -489.215      -52.726      -31.794      184.374      172.717       98.354    33993.755    29831.214     9673.498       15.830        3.675      492.048       83.021        0.028      339.898       13.543      855.022
05/21/2013  21:55:00     -395.124      -80.595      -25.076      170.240      148.721       69.000    28981.658    22118.012     4760.931       10.954        2.793      403.260       65.352        0.026      339.897       13.539      854.968
05/21/2013  21:56:00     -564.673      -60.766      -17.830      245.918      194.462       98.660    60475.547    37815.367     9733.759       21.542        5.401      567.934      101.859        0.032      339.853       13.466      855.016
05/21/2013  21:57:00     -365.266      -63.277      -18.054      250.012      143.676       80.091    62506.123    20642.872     6414.648       11.364        4.478      370.706      104.393        0.079      339.855       13.472      855.034
05/21/2013  21:58:00     -464.459     -109.648      -27.253      174.618      146.438       79.488    30491.312    21444.122     6318.383       14.336        2.913      477.226       83.798        0.031      339.863       13.484      855.084
05/21/2013  21:59:00     -479.167      -79.554      -17.456      239.897      159.519      102.003    57550.509    25446.451    10404.578       16.480        4.670      485.726      113.453        0.055      339.857       13.474      855.058
05/21/2013  22:00:00     -357.318      -82.290       -7.961      182.284      133.887       84.805    33227.326    17925.723     7191.858        9.642        2.917      366.671       78.946        0.046      339.889       13.528      855.044
05/21/2013  22:01:00     -282.655      -35.834       -6.166      169.858      141.271       70.729    28851.897    19957.450     5002.651        6.750        2.691      284.917       70.086        0.061      339.897       13.541      855.084
05/21/2013  22:02:00     -301.066      -78.003      -11.993      172.769      160.921       73.856    29849.230    25895.512     5454.770        7.902        3.060      311.007       75.121        0.058      339.877       13.507      855.088
05/21/2013  22:03:00     -326.727     -114.674       -6.363      268.854      167.387       96.761    72282.283    28018.283     9362.717       11.478        5.483      346.267      104.021        0.090      339.876       13.507      855.050
05/21/2013  22:04:00     -550.000     -155.908      -12.986      227.850      185.036       93.948    51915.503    34238.505     8826.287       21.096        4.749      571.670       95.447        0.028      339.863       13.483      855.026
05/21/2013  22:05:00     -540.912      -98.762      -14.082      268.272      204.029      103.283    71969.730    41627.808    10667.457       21.338        6.213      549.854      119.578        0.047      339.844       13.452      855.035
05/21/2013  22:06:00     -424.493       -9.589      -14.757      238.102      139.958       74.153    56692.377    19588.326     5498.660       13.112        4.089      424.601       86.120        0.041      339.834       13.435      855.069
05/21/2013  22:07:00     -485.334      -31.584      -13.103      249.511      145.454       75.150    62255.769    21156.823     5647.562       16.287        4.453      486.361       90.797        0.035      339.888       13.524      855.107
05/21/2013  22:08:00     -298.792        4.749        3.727      214.435      140.933      103.189    45982.275    19862.105    10647.932        8.289        3.825      298.830      101.964        0.116      339.852       13.465      855.158
05/21/2013  22:09:00     -489.429     -110.167      -20.485      225.511      157.338       88.848    50855.376    24755.122     7893.970       16.778        4.175      501.674      102.663        0.042      339.878       13.510      855.191
05/21/2013  22:10:00     -360.056     -157.096       -5.596      245.955      223.116       92.447    60493.846    49780.972     8546.454       13.656        5.941      392.835      125.862        0.103      339.830       13.430      855.178
05/21/2013  22:11:00     -365.971     -195.546       18.212      290.777      179.436      101.347    84551.150    32197.155    10271.122       14.974        6.351      414.937      120.622        0.085      339.840       13.447      855.195
05/21/2013  22:12:00     -207.067     -187.484       -6.289      152.638      114.180       76.976    23298.275    13037.177     5925.321        6.015        2.113      279.333       88.649        0.101      339.864       13.485      855.201
05/21/2013  22:13:00     -281.968     -186.567        0.335      169.208      144.327       82.870    28631.262    20830.391     6867.461        8.531        2.816      338.103       95.476        0.080      339.827       13.426      855.221
05/21/2013  22:14:00     -177.557      -55.003       13.150      184.636      118.404       76.901    34090.612    14019.566     5913.795        4.436        2.701      185.881       86.445        0.216      339.804       13.386      855.229
05/21/2013  22:15:00     -115.750      -80.021       25.684      164.010      125.981       66.624    26899.291    15871.270     4438.798        3.383        2.360      140.717       72.355        0.264      339.773       13.334      855.241
05/21/2013  22:16:00     -312.581      -69.905      -23.042      134.339      122.960       71.586    18046.854    15119.264     5124.563        7.070        1.915      320.302       57.126        0.032      339.788       13.357      855.265
05/21/2013  22:17:00     -229.935     -129.951       -0.138      125.651      112.517       59.952    15788.113    12660.057     3594.199        5.089        1.602      264.116       58.521        0.049      339.843       13.450      855.238
05/21/2013  22:18:00     -250.584      -46.110      -11.779      154.898      123.569       73.995    23993.262    15269.229     5475.241        5.489        2.237      254.791       53.122        0.043      339.800       13.379      855.233
05/21/2013  22:19:00     -529.967     -175.397      -14.693      328.324      223.856      122.511   107796.624    50111.700    15008.891       24.235        8.646      558.238      149.363        0.072      339.770       13.327      855.174
05/21/2013  22:20:00     -463.114      -54.495      -10.845      253.117      163.022       93.989    64068.213    26576.322     8833.951       15.850        4.974      466.310      116.303        0.062      339.760       13.311      855.216
05/21/2013  22:21:00     -423.248      -34.482      -15.316      205.129      161.200       94.605    42077.761    25985.554     8950.035       12.877        3.851      424.651       96.309        0.051      339.777       13.339      855.267
05/21/2013  22:22:00     -356.030      -61.685        7.464      187.939      158.745      110.600    35320.988    25200.121    12232.305       10.167        3.638      361.334      112.700        0.097      339.781       13.346      855.272
05/21/2013  22:23:00     -357.281      -84.537       -8.815      204.728      128.446       83.604    41913.383    16498.329     6989.593       10.012        3.270      367.147       94.649        0.066      339.768       13.325      855.281
05/21/2013  22:24:00     -458.112      -94.231        1.096      148.297      132.408       86.983    21992.010    17531.823     7566.101       13.291        2.354      467.703       83.140        0.032      339.712       13.231      855.269
05/21/2013  22:25:00     -413.864      -53.707      -13.213      220.665      162.977      100.921    48692.936    26561.409    10184.954       12.987        4.272      417.334      104.387        0.063      339.703       13.215      855.269
05/21/2013  22:26:00     -360.709     -110.408      -35.725      181.906      153.957       74.539    33089.854    23702.766     5556.050       10.295        3.117      377.227       56.007        0.022      339.717       13.238      855.229
05/21/2013  22:27:00     -375.662     -108.646        1.695      242.995      148.838       85.884    59046.416    22152.746     7375.990       12.073        4.429      391.058      110.293        0.080      339.689       13.192      855.186
05/21/2013  22:28:00     -377.831      -34.137       -5.694      195.303      133.781       77.764    38143.330    17897.305     6047.209       10.301        3.104      379.370       81.280        0.046      339.685       13.184      855.218
05/21/2013  22:29:00     -550.640      -68.703      -25.536      263.027      185.186      106.105    69183.329    34293.908    11258.175       21.163        5.737      554.909      129.630        0.055      339.692       13.196      855.246
05/21/2013  22:30:00     -430.805      -65.237      -29.020      281.491      142.801       87.373    79237.076    20392.011     7634.062       14.895        5.363      435.716       88.220        0.041      339.714       13.235      855.282
05/21/2013  22:31:00     -603.623     -145.373      -14.923      271.855      222.559      112.081    73905.178    49532.481    12562.224       26.083        6.800      620.882      134.178        0.047      339.682       13.180      855.224
05/21/2013  22:32:00     -466.493      -94.715       -8.489      244.472      174.600       99.785    59766.523    30485.106     9957.054       16.341        5.010      476.012      119.646        0.063      339.663       13.147      855.303
05/21/2013  22:33:00     -500.232      -68.567       -7.538      207.247      189.350       88.011    42951.295    35853.544     7745.865       17.075        4.328      504.909       98.157        0.038      339.648       13.121      855.261
05/21/2013  22:34:00     -482.063     -109.870       -4.929      184.708      152.555       77.745    34117.180    23272.912     6044.238       15.394        3.172      494.425       78.544        0.025      339.665       13.150      855.235
05/21/2013  22:35:00     -359.118      -64.093       -5.565      206.690      111.776       66.619    42720.803    12493.906     4438.025        9.637        2.983      364.793       84.114        0.053      339.612       13.062      855.225
05/21/2013  22:36:00     -264.010      -47.785      -12.644      141.467      138.681       78.965    20012.924    19232.340     6235.406        5.880        2.274      268.300       65.984        0.060      339.601       13.043      855.188
05/21/2013  22:37:00     -475.373      -16.492      -12.280      252.094      190.573      102.582    63551.445    36317.898    10523.125       16.837        5.520      475.659      106.319        0.050      339.626       13.086      855.138
05/21/2013  22:38:00     -587.006     -112.144      -24.139      274.719      153.185      101.782    75470.431    23465.525    10359.518       23.349        5.465      597.622      117.556        0.039      339.658       13.138      855.145
05/21/2013  22:39:00     -464.045      -63.093      -21.278      176.520      116.651       75.663    31159.480    13607.522     5724.847       13.512        2.525      468.314       81.968        0.031      339.647       13.119      855.195
05/21/2013  22:40:00     -622.058     -104.531      -28.147      255.308      200.295      104.847    65182.188    40118.234    10992.873       25.746        5.815      630.780      108.686        0.030      339.681       13.178      855.147
05/21/2013  22:41:00     -531.568     -100.167      -17.328      275.696      169.369       96.593    76008.145    28685.883     9330.232       20.344        5.701      540.924      111.228        0.042      339.643       13.113      855.150
05/21/2013  22:42:00     -614.645      -71.020      -19.979      295.278      224.578      105.266    87189.034    50435.365    11080.895       26.594        7.435      618.734      113.392        0.034      339.631       13.091      855.116
05/21/2013  22:43:00     -435.026      -90.891      -12.039      226.711      188.768      110.243    51398.051    35633.290    12153.466       14.840        4.959      444.419      129.586        0.085      339.625       13.082      855.191
05/21/2013  22:44:00     -443.439      -79.913       -9.829      202.736      162.320       99.507    41101.730    26347.826     9901.609       14.022        3.868      450.582      108.823        0.058      339.653       13.130      855.244
05/21/2013  22:45:00     -407.208     -115.915      -10.712      218.396      154.096       73.034    47696.969    23745.563     5334.026       12.806        3.839      423.385       82.236        0.038      339.662       13.146      855.208
05/21/2013  22:46:00     -501.055      -99.527      -33.891      163.433      180.689       88.616    26710.376    32648.453     7852.767       16.465        3.361      510.844       68.629        0.018      339.624       13.081      855.112
05/21/2013  22:47:00     -390.742     -254.680      -21.578      227.783      190.059       99.411    51885.255    36122.274     9882.557       15.793        4.895      466.413      107.932        0.054      339.627       13.087      855.132
05/21/2013  22:48:00     -443.976      -52.600      -10.275      212.268      159.703       74.281    45057.827    25504.971     5517.662       13.802        3.804      447.081       80.628        0.033      339.636       13.101      855.170
05/21/2013  22:49:00     -533.795     -116.682       -1.649      236.062      179.396      111.841    55725.290    32183.083    12508.397       19.947        5.021      546.399      118.446        0.047      339.615       13.066      855.166
05/21/2013  22:50:00     -538.946      -67.469      -22.614      316.425      159.795      104.826   100124.721    25534.334    10988.539       21.606        6.832      543.153      120.555        0.049      339.649       13.122      855.216
05/21/2013  22:51:00     -437.771      -81.389      -14.321      242.667      155.821       98.067    58887.338    24280.188     9617.083       14.561        4.639      445.273      114.663        0.066      339.645       13.117      855.226
05/21/2013  22:52:00     -486.885      -16.121      -11.993      235.087      150.760       88.817    55266.065    22728.652     7888.378       16.165        4.294      487.152      112.180        0.053      339.607       13.053      855.177
05/21/2013  22:53:00     -549.855      -56.977       -3.873      239.874      143.091      103.061    57539.351    20475.113    10621.567       19.710        4.432      552.799      121.028        0.048      339.575       12.998      855.165
05/21/2013  22:54:00     -442.824      -94.045       -0.888      254.012      179.736      105.972    64522.268    32305.111    11229.996       15.648        5.403      452.700      115.726        0.065      339.570       12.992      855.164
05/21/2013  22:55:00     -453.639      -67.876      -20.791      243.349      126.341       85.951    59218.951    15962.153     7387.557       14.668        4.128      458.688      100.894        0.048      339.588       13.021      855.152
05/21/2013  22:56:00     -347.557      -46.665        2.142      259.024      148.846      122.876    67093.620    22155.168    15098.538       11.364        5.217      350.676      137.359        0.153      339.569       12.988      855.073
05/21/2013  22:57:00     -590.469     -100.982      -41.084      237.440      181.883      101.463    56377.896    33081.462    10294.691       23.013        4.988      599.041      116.465        0.038      339.559       12.972      855.125
05/21/2013  22:58:00     -379.793     -144.896       -5.569      229.035      178.358       96.462    52457.222    31811.653     9304.925       12.940        4.679      406.494      118.947        0.086      339.569       12.990      855.203
05/21/2013  22:59:00     -342.389      -92.739       -6.204      181.720      140.653       89.961    33022.297    19783.169     8092.995        9.337        3.045      354.726      101.783        0.082      339.524       12.913      855.220
05/21/2013  23:00:00     -154.277      -50.505        8.650      177.350      120.502       69.346    31452.947    14520.768     4808.803        3.859        2.539      162.334       69.445        0.183      339.519       12.906      855.194
05/21/2013  23:01:00     -409.966     -116.209      -22.766      217.043      113.190       64.078    47107.652    12811.889     4106.051       12.305        3.201      426.118       65.862        0.024      339.512       12.892      855.167
05/21/2013  23:02:00     -391.156     -375.749       -0.142      271.889      227.076      130.263    73923.388    51563.681    16968.546       21.829        7.123      542.393      154.720        0.081      339.503       12.877      855.141
05/21/2013  23:03:00     -509.643     -182.908      -26.359      309.277      172.002       87.203    95652.179    29584.611     7604.443       21.334        6.642      541.472       82.350        0.023      339.507       12.883      855.138
05/21/2013  23:04:00     -332.462      -94.765        2.133      204.193      179.488       87.499    41694.760    32215.956     7656.091       10.052        4.078      345.704       84.374        0.060      339.491       12.857      855.112
05/21/2013  23:05:00     -410.591     -223.921      -25.756      229.323      180.778      100.543    52588.915    32680.664    10108.927       15.736        4.769      467.681      102.404        0.048      339.467       12.815      855.063
05/21/2013  23:06:00     -431.590     -104.692        1.059      271.875      187.546      107.599    73916.282    35173.685    11577.483       15.892        6.033      444.106      128.933        0.084      339.467       12.817      855.028
05/21/2013  23:07:00     -447.289     -112.111      -19.895      187.289      218.150      100.482    35077.133    47589.275    10096.698       15.288        4.638      461.125      102.318        0.049      339.464       12.811      855.037
05/21/2013  23:08:00     -319.123     -167.170       15.519      236.709      167.394      112.125    56031.252    28020.716    12572.026       11.331        4.831      360.258      129.570        0.129      339.488       12.853      855.012
05/21/2013  23:09:00     -316.622     -185.869       12.824      257.742      190.287      117.616    66430.731    36209.092    13833.634       12.569        5.824      367.147      135.061        0.135      339.479       12.835      854.980
05/21/2013  23:10:00     -361.121     -131.937      -11.115      281.548      149.789      112.538    79269.059    22436.642    12664.770       13.113        5.719      384.468      146.534        0.145      339.507       12.883      855.017
05/21/2013  23:11:00     -325.951     -109.273        2.475      218.430      165.178       85.682    47711.737    27283.909     7341.356       10.025        4.117      343.780       95.804        0.078      339.490       12.854      855.017
05/21/2013  23:12:00     -543.259      -96.189      -14.325      237.447      154.329       94.928    56381.258    23817.474     9011.270       19.688        4.461      551.709      101.299        0.034      339.473       12.826      855.033
05/21/2013  23:13:00     -532.249      -37.525      -34.441      206.513      176.317       98.322    42647.710    31087.737     9667.147       18.463        4.170      533.570      103.547        0.038      339.457       12.799      855.046
05/21/2013  23:14:00     -423.111     -158.441      -27.653      182.236      169.161       82.527    33209.910    28615.585     6810.691       13.675        3.432      451.804       73.767        0.027      339.448       12.784      855.094
05/21/2013  23:15:00     -332.157     -200.590      -12.249      150.080      123.065       75.608    22524.020    15145.020     5716.508        9.704        2.169      388.027       71.093        0.034      339.429       12.753      855.088
05/21/2013  23:16:00     -234.234      -95.177        3.808      172.479      131.039       70.899    29749.061    17171.133     5026.711        5.793        2.597      252.832       74.546        0.087      339.405       12.712      855.113
05/21/2013  23:17:00     -453.299     -200.614      -23.420      203.101      172.697       85.008    41250.151    29824.193     7226.382       16.227        3.915      495.707       91.456        0.034      339.402       12.707      855.056
05/21/2013  23:18:00     -513.667     -328.669       -2.817      270.309      234.930      125.706    73067.197    55192.287    15801.885       25.794        7.203      609.817      145.798        0.057      339.416       12.731      855.051
05/21/2013  23:19:00     -371.077     -198.004        7.016      219.293      152.026       92.837    48089.269    23111.910     8618.669       12.837        3.991      420.599       99.890        0.056      339.422       12.739      855.051
05/21/2013  23:20:00     -435.310      -92.538      -20.710      250.577      156.524       86.901    62788.920    24499.760     7551.712       14.664        4.742      445.037      111.546        0.063      339.423       12.743      855.032
05/21/2013  23:21:00     -524.774     -383.082      -28.125      202.468      173.871      109.684    40993.224    30231.132    12030.563       25.308        4.163      649.723      106.348        0.027      339.426       12.747      854.961
05/21/2013  23:22:00     -465.361     -258.442      -33.575      220.841      196.827      100.463    48770.584    38740.698    10092.880       19.102        4.880      532.309       90.072        0.029      339.415       12.730      854.913
05/21/2013  23:23:00     -341.588     -164.128      -25.093      226.083      158.950       89.738    51113.302    25265.074     8052.937       11.432        4.222      378.973       84.111        0.049      339.400       12.705      854.921
05/21/2013  23:24:00     -391.198     -224.974       -4.115      226.434      193.181      108.814    51272.156    37318.922    11840.558       15.203        5.022      451.275      105.293        0.054      339.366       12.646      854.957
05/21/2013  23:25:00     -417.644     -169.231      -15.775      203.094      163.113       98.580    41247.228    26605.845     9718.034       14.043        3.879      450.628      107.217        0.057      339.361       12.638      854.951
05/21/2013  23:26:00     -282.813     -100.745        3.494      260.290      188.839      112.346    67750.731    35660.051    12621.735       10.306        5.802      300.221      133.688        0.198      339.350       12.620      855.010
05/21/2013  23:27:00     -246.302     -106.345       -7.424      167.622      162.206       84.252    28097.083    26310.905     7098.413        6.675        3.075      268.279       86.159        0.103      339.361       12.639      854.976
05/21/2013  23:28:00     -490.216     -116.148      -28.079      207.053      204.853       95.651    42870.908    41964.721     9149.025       17.427        4.699      503.788       81.050        0.026      339.348       12.615      854.971
05/21/2013  23:29:00     -445.450     -165.869      -14.233      238.561      190.982      113.979    56911.205    36473.946    12991.302       16.624        5.319      475.330      126.490        0.071      339.358       12.634      854.978
05/21/2013  23:30:00     -290.989     -152.276       16.474      216.130      148.408       96.516    46712.021    22024.837     9315.309        9.308        3.903      328.424      115.172        0.123      339.357       12.630      854.974
05/21/2013  23:31:00     -488.858     -187.569      -12.633      303.561      176.043      116.364    92149.337    30991.163    13540.651       20.547        6.834      523.607      135.825        0.067      339.376       12.665      854.921
05/21/2013  23:32:00     -582.714     -128.929      -35.307      271.976      193.807       94.470    73970.798    37561.289     8924.501       23.892        6.023      596.807      106.673        0.032      339.339       12.601      854.971
05/21/2013  23:33:00     -444.415     -207.624      -22.100      221.833      164.248       89.701    49209.773    26977.453     8046.232       16.265        4.212      490.522       97.293        0.039      339.341       12.603      855.030
05/21/2013  23:34:00     -335.374     -236.733       -7.976      223.511      196.114       92.915    49957.348    38460.608     8633.241       13.280        4.853      410.510      100.118        0.059      339.332       12.589      855.028
05/21/2013  23:35:00     -556.402     -106.899      -21.748      195.434      183.790      101.490    38194.574    33778.596    10300.240       20.186        4.114      566.578       97.578        0.030      339.320       12.570      854.991
05/21/2013  23:36:00     -275.072     -124.212       17.301      210.123      182.410       87.194    44151.755    33273.275     7602.796        8.819        4.251      301.817      105.724        0.123      339.308       12.549      855.036
05/21/2013  23:37:00     -485.223     -159.224      -19.279      258.861      283.222      105.251    67009.026    80214.749    11077.676       20.970        7.915      510.680      128.597        0.063      339.340       12.603      855.048
05/21/2013  23:38:00     -342.878     -214.920      -18.747      173.428      185.138       90.376    30077.174    34275.992     8167.888       11.830        3.626      404.667       93.277        0.053      339.327       12.582      855.039
05/21/2013  23:39:00     -306.006     -147.558        3.735      228.275      138.966       85.930    52109.323    19311.557     7383.959        9.710        3.940      339.725      100.324        0.087      339.294       12.526      855.016
05/21/2013  23:40:00     -466.215     -177.494       -2.812      282.328      184.978      107.282    79709.197    34216.728    11509.339       18.713        6.272      498.859      121.915        0.060      339.301       12.536      855.044
05/21/2013  23:41:00     -419.017     -160.541      -10.369      235.610      189.062      104.512    55512.103    35744.364    10922.732       15.180        5.109      448.719      110.710        0.061      339.291       12.520      855.085
05/21/2013  23:42:00     -416.299     -245.551      -15.542      289.605      222.503      121.014    83870.776    49507.792    14644.422       19.090        7.401      483.322      151.406        0.098      339.293       12.521      855.076
05/21/2013  23:43:00     -307.529     -145.904       -0.497      218.751      159.866       97.090    47851.824    25557.122     9426.389        9.933        4.142      340.385      113.097        0.110      339.274       12.493      855.038
05/21/2013  23:44:00     -392.327     -155.760       -1.007      311.408      188.084      105.353    96974.769    35375.694    11099.334       16.079        7.172      422.116      137.869        0.107      339.274       12.491      855.031
05/21/2013  23:45:00     -430.132     -133.801       -3.490      242.404      221.845       97.061    58759.656    49215.293     9420.837       16.014        5.870      450.462      116.782        0.067      339.244       12.441      855.051
05/21/2013  23:46:00     -449.452     -185.689      -12.332      262.263      197.305      110.300    68781.775    38929.438    12166.161       17.823        5.994      486.300      132.932        0.075      339.230       12.419      855.046
05/21/2013  23:47:00     -427.014     -230.507       -9.742      239.152      193.894      112.484    57193.823    37595.002    12652.708       17.148        5.372      485.257      111.836        0.053      339.241       12.437      855.014
05/21/2013  23:48:00     -280.089     -122.486       13.318      219.490      162.659      104.875    48175.694    26457.864    10998.833        8.961        4.282      305.700      114.204        0.140      339.233       12.423      854.996
05/21/2013  23:49:00     -515.729     -122.721      -28.372      188.914      186.784       92.885    35688.315    34888.257     8627.644       18.051        3.960      530.129       88.581        0.028      339.212       12.388      854.973
05/21/2013  23:50:00     -431.941     -148.235      -15.347      241.685      160.262       90.253    58411.691    25683.843     8145.648       15.049        4.612      456.669       92.380        0.041      339.208       12.382      854.971
05/21/2013  23:51:00     -326.364     -264.324      -15.388      276.496      216.781      131.578    76449.762    46993.831    17312.824       15.866        7.038      419.977      148.117        0.124      339.199       12.367      854.907
05/21/2013  23:52:00     -221.507     -141.513       24.962      217.102      189.621       99.227    47133.464    35955.994     9846.083        8.131        4.647      262.852      113.107        0.185      339.192       12.355      854.878
05/21/2013  23:53:00     -341.194     -145.164      -13.442      222.657      203.170       89.708    49576.129    41277.847     8047.580       11.826        4.945      370.791       87.217        0.055      339.196       12.360      854.869
05/21/2013  23:54:00     -424.779     -232.451       -4.653      250.247      228.542      120.079    62623.440    52231.373    14419.018       18.186        6.464      484.222      138.624        0.082      339.186       12.345      854.863
05/21/2013  23:55:00     -578.130     -154.233      -20.880      291.643      208.007      103.332    85055.871    43266.869    10677.524       24.870        6.950      598.349      112.928        0.036      339.226       12.411      854.884
05/21/2013  23:56:00     -314.460     -135.344       -2.928      227.920      165.749       85.244    51947.404    27472.891     7266.614       10.193        4.334      342.349      106.510        0.097      339.213       12.390      854.908
05/21/2013  23:57:00     -463.840      -89.096      -12.499      295.409      212.870       89.853    87266.301    45313.740     8073.613       18.192        7.033      472.320      108.754        0.053      339.200       12.367      854.853
05/21/2013  23:58:00     -562.063     -196.415      -22.540      191.220      175.711      100.037    36564.970    30874.303    10007.335       21.621        3.872      595.393       98.719        0.027      339.208       12.380      854.838
05/21/2013  23:59:00     -431.125     -169.582       -7.760      232.518      202.096      111.543    54064.841    40842.826    12441.930       16.100        5.367      463.278      129.750        0.078      339.227       12.412      854.829
